<?xml version="1.0" encoding="UTF-8" standalone="no" ?>
<gpx xmlns="http://www.topografix.com/GPX/1/1" xmlns:xsi="http://www.w3.org/2001/XMLSchema-instance" xsi:schemaLocation="http://www.topografix.com/GPX/1/1 http://www.topografix.com/GPX/1/1/gpx.xsd" version="1.1" creator="VisuGPX - https://www.visugpx.com">
  <metadata>
    <name>Etang de la Tour Etang du Perray</name>
    <desc><![CDATA[marche nordique entre l'Etang de la Tour et Le Perray en Yvelines.]]></desc>
  </metadata>
  <trk>
    <name><![CDATA[2020-02-18 09:02]]></name>
    <desc><![CDATA[<p>Heure de départ: 02/18/2020 09:06<br/>Heure d'arrivée: 02/18/2020 12:08<br/>Distance: 13,9 km (03:01)<br/>Temps déplacement: 02:23<br/>Vitesse moyenne: 4,58 km/h<br/>Vitesse moyenne mouv.: 5,79 km/h<br/>Vitesse Max.: 11,43 km/h<br/>Altitude minimale: 189 m<br/>Altitude maximale: 242 m<br/>Vitesse de montée: 244,1 m/h<br/>Vitesse de descente: -280,1 m/h<br/>Gain d'altitude: 391 m<br/>Perte d'altitude: -387 m<br/>Temps de montée: 01:36<br/>Temps de descente: 01:22<br/></p><hr align="center" width="480" style="height: 2px; width: 517px"/>]]></desc>
    <trkseg>
      <trkpt lat="48.65485" lon="1.88525">
        <ele>173</ele>
        <time>2020-02-18T08:06:22Z</time>
      </trkpt>
      <trkpt lat="48.65488" lon="1.88531">
        <ele>173</ele>
        <time>2020-02-18T08:07:02Z</time>
      </trkpt>
      <trkpt lat="48.6549" lon="1.88525">
        <ele>173</ele>
        <time>2020-02-18T08:07:52Z</time>
      </trkpt>
      <trkpt lat="48.65486" lon="1.88524">
        <ele>173</ele>
        <time>2020-02-18T08:09:28Z</time>
      </trkpt>
      <trkpt lat="48.65487" lon="1.88516">
        <ele>173</ele>
        <time>2020-02-18T08:11:08Z</time>
      </trkpt>
      <trkpt lat="48.6549" lon="1.88509">
        <ele>173</ele>
        <time>2020-02-18T08:13:28Z</time>
      </trkpt>
      <trkpt lat="48.65494" lon="1.88501">
        <ele>174</ele>
        <time>2020-02-18T08:13:36Z</time>
      </trkpt>
      <trkpt lat="48.65497" lon="1.88496">
        <ele>173</ele>
        <time>2020-02-18T08:13:40Z</time>
      </trkpt>
      <trkpt lat="48.65502" lon="1.88493">
        <ele>173</ele>
        <time>2020-02-18T08:13:44Z</time>
      </trkpt>
      <trkpt lat="48.65506" lon="1.88493">
        <ele>173</ele>
        <time>2020-02-18T08:13:48Z</time>
      </trkpt>
      <trkpt lat="48.65511" lon="1.88495">
        <ele>172</ele>
        <time>2020-02-18T08:13:52Z</time>
      </trkpt>
      <trkpt lat="48.65516" lon="1.88499">
        <ele>172</ele>
        <time>2020-02-18T08:13:56Z</time>
      </trkpt>
      <trkpt lat="48.65521" lon="1.88502">
        <ele>174</ele>
        <time>2020-02-18T08:14:00Z</time>
      </trkpt>
      <trkpt lat="48.65528" lon="1.88505">
        <ele>174</ele>
        <time>2020-02-18T08:14:04Z</time>
      </trkpt>
      <trkpt lat="48.65535" lon="1.88507">
        <ele>173</ele>
        <time>2020-02-18T08:14:08Z</time>
      </trkpt>
      <trkpt lat="48.65541" lon="1.88509">
        <ele>173</ele>
        <time>2020-02-18T08:14:12Z</time>
      </trkpt>
      <trkpt lat="48.65549" lon="1.88511">
        <ele>173</ele>
        <time>2020-02-18T08:14:16Z</time>
      </trkpt>
      <trkpt lat="48.65555" lon="1.88512">
        <ele>173</ele>
        <time>2020-02-18T08:14:20Z</time>
      </trkpt>
      <trkpt lat="48.65563" lon="1.88516">
        <ele>172</ele>
        <time>2020-02-18T08:14:24Z</time>
      </trkpt>
      <trkpt lat="48.65571" lon="1.88517">
        <ele>172</ele>
        <time>2020-02-18T08:14:28Z</time>
      </trkpt>
      <trkpt lat="48.65578" lon="1.8852">
        <ele>172</ele>
        <time>2020-02-18T08:14:34Z</time>
      </trkpt>
      <trkpt lat="48.65587" lon="1.88519">
        <ele>172</ele>
        <time>2020-02-18T08:14:38Z</time>
      </trkpt>
      <trkpt lat="48.65593" lon="1.88521">
        <ele>172</ele>
        <time>2020-02-18T08:14:42Z</time>
      </trkpt>
      <trkpt lat="48.65599" lon="1.88522">
        <ele>172</ele>
        <time>2020-02-18T08:14:46Z</time>
      </trkpt>
      <trkpt lat="48.65604" lon="1.88523">
        <ele>172</ele>
        <time>2020-02-18T08:14:50Z</time>
      </trkpt>
      <trkpt lat="48.65609" lon="1.88528">
        <ele>172</ele>
        <time>2020-02-18T08:15:00Z</time>
      </trkpt>
      <trkpt lat="48.65615" lon="1.88527">
        <ele>172</ele>
        <time>2020-02-18T08:15:04Z</time>
      </trkpt>
      <trkpt lat="48.65622" lon="1.88528">
        <ele>173</ele>
        <time>2020-02-18T08:15:08Z</time>
      </trkpt>
      <trkpt lat="48.65629" lon="1.88529">
        <ele>173</ele>
        <time>2020-02-18T08:15:12Z</time>
      </trkpt>
      <trkpt lat="48.65636" lon="1.8853">
        <ele>173</ele>
        <time>2020-02-18T08:15:16Z</time>
      </trkpt>
      <trkpt lat="48.65643" lon="1.88529">
        <ele>173</ele>
        <time>2020-02-18T08:15:20Z</time>
      </trkpt>
      <trkpt lat="48.65648" lon="1.88529">
        <ele>173</ele>
        <time>2020-02-18T08:15:24Z</time>
      </trkpt>
      <trkpt lat="48.65654" lon="1.88529">
        <ele>173</ele>
        <time>2020-02-18T08:15:28Z</time>
      </trkpt>
      <trkpt lat="48.65662" lon="1.88532">
        <ele>173</ele>
        <time>2020-02-18T08:15:34Z</time>
      </trkpt>
      <trkpt lat="48.65669" lon="1.88532">
        <ele>172</ele>
        <time>2020-02-18T08:15:38Z</time>
      </trkpt>
      <trkpt lat="48.65674" lon="1.88533">
        <ele>172</ele>
        <time>2020-02-18T08:15:42Z</time>
      </trkpt>
      <trkpt lat="48.6568" lon="1.88534">
        <ele>173</ele>
        <time>2020-02-18T08:15:46Z</time>
      </trkpt>
      <trkpt lat="48.65686" lon="1.88534">
        <ele>172</ele>
        <time>2020-02-18T08:15:50Z</time>
      </trkpt>
      <trkpt lat="48.65693" lon="1.88533">
        <ele>172</ele>
        <time>2020-02-18T08:15:54Z</time>
      </trkpt>
      <trkpt lat="48.65698" lon="1.88531">
        <ele>172</ele>
        <time>2020-02-18T08:15:58Z</time>
      </trkpt>
      <trkpt lat="48.65705" lon="1.88532">
        <ele>172</ele>
        <time>2020-02-18T08:16:02Z</time>
      </trkpt>
      <trkpt lat="48.6571" lon="1.88533">
        <ele>172</ele>
        <time>2020-02-18T08:16:06Z</time>
      </trkpt>
      <trkpt lat="48.65715" lon="1.88531">
        <ele>172</ele>
        <time>2020-02-18T08:16:10Z</time>
      </trkpt>
      <trkpt lat="48.6572" lon="1.8853">
        <ele>172</ele>
        <time>2020-02-18T08:16:14Z</time>
      </trkpt>
      <trkpt lat="48.65726" lon="1.88525">
        <ele>172</ele>
        <time>2020-02-18T08:16:20Z</time>
      </trkpt>
      <trkpt lat="48.65733" lon="1.88523">
        <ele>171</ele>
        <time>2020-02-18T08:16:24Z</time>
      </trkpt>
      <trkpt lat="48.65739" lon="1.88519">
        <ele>171</ele>
        <time>2020-02-18T08:16:28Z</time>
      </trkpt>
      <trkpt lat="48.65744" lon="1.88518">
        <ele>170</ele>
        <time>2020-02-18T08:16:32Z</time>
      </trkpt>
      <trkpt lat="48.65752" lon="1.88517">
        <ele>171</ele>
        <time>2020-02-18T08:16:36Z</time>
      </trkpt>
      <trkpt lat="48.65759" lon="1.88516">
        <ele>171</ele>
        <time>2020-02-18T08:16:40Z</time>
      </trkpt>
      <trkpt lat="48.65765" lon="1.88514">
        <ele>171</ele>
        <time>2020-02-18T08:16:46Z</time>
      </trkpt>
      <trkpt lat="48.65773" lon="1.88515">
        <ele>171</ele>
        <time>2020-02-18T08:16:50Z</time>
      </trkpt>
      <trkpt lat="48.65778" lon="1.88515">
        <ele>172</ele>
        <time>2020-02-18T08:16:54Z</time>
      </trkpt>
      <trkpt lat="48.65784" lon="1.88514">
        <ele>172</ele>
        <time>2020-02-18T08:16:58Z</time>
      </trkpt>
      <trkpt lat="48.65789" lon="1.88511">
        <ele>172</ele>
        <time>2020-02-18T08:17:02Z</time>
      </trkpt>
      <trkpt lat="48.65796" lon="1.88509">
        <ele>172</ele>
        <time>2020-02-18T08:17:06Z</time>
      </trkpt>
      <trkpt lat="48.65803" lon="1.88508">
        <ele>172</ele>
        <time>2020-02-18T08:17:10Z</time>
      </trkpt>
      <trkpt lat="48.65808" lon="1.88506">
        <ele>172</ele>
        <time>2020-02-18T08:17:14Z</time>
      </trkpt>
      <trkpt lat="48.65814" lon="1.88505">
        <ele>172</ele>
        <time>2020-02-18T08:17:18Z</time>
      </trkpt>
      <trkpt lat="48.65819" lon="1.88503">
        <ele>172</ele>
        <time>2020-02-18T08:17:22Z</time>
      </trkpt>
      <trkpt lat="48.65826" lon="1.885">
        <ele>171</ele>
        <time>2020-02-18T08:17:28Z</time>
      </trkpt>
      <trkpt lat="48.65833" lon="1.88497">
        <ele>172</ele>
        <time>2020-02-18T08:17:34Z</time>
      </trkpt>
      <trkpt lat="48.65838" lon="1.88492">
        <ele>172</ele>
        <time>2020-02-18T08:17:38Z</time>
      </trkpt>
      <trkpt lat="48.65843" lon="1.88489">
        <ele>172</ele>
        <time>2020-02-18T08:17:42Z</time>
      </trkpt>
      <trkpt lat="48.65849" lon="1.88482">
        <ele>172</ele>
        <time>2020-02-18T08:17:46Z</time>
      </trkpt>
      <trkpt lat="48.65856" lon="1.88475">
        <ele>172</ele>
        <time>2020-02-18T08:17:52Z</time>
      </trkpt>
      <trkpt lat="48.65861" lon="1.88467">
        <ele>172</ele>
        <time>2020-02-18T08:17:56Z</time>
      </trkpt>
      <trkpt lat="48.65867" lon="1.88463">
        <ele>172</ele>
        <time>2020-02-18T08:18:00Z</time>
      </trkpt>
      <trkpt lat="48.65872" lon="1.88458">
        <ele>172</ele>
        <time>2020-02-18T08:18:04Z</time>
      </trkpt>
      <trkpt lat="48.65877" lon="1.88457">
        <ele>172</ele>
        <time>2020-02-18T08:18:08Z</time>
      </trkpt>
      <trkpt lat="48.65882" lon="1.88451">
        <ele>172</ele>
        <time>2020-02-18T08:18:12Z</time>
      </trkpt>
      <trkpt lat="48.65888" lon="1.88449">
        <ele>172</ele>
        <time>2020-02-18T08:18:16Z</time>
      </trkpt>
      <trkpt lat="48.65892" lon="1.88443">
        <ele>173</ele>
        <time>2020-02-18T08:18:20Z</time>
      </trkpt>
      <trkpt lat="48.65897" lon="1.88438">
        <ele>173</ele>
        <time>2020-02-18T08:18:24Z</time>
      </trkpt>
      <trkpt lat="48.659" lon="1.88428">
        <ele>173</ele>
        <time>2020-02-18T08:18:28Z</time>
      </trkpt>
      <trkpt lat="48.65902" lon="1.88421">
        <ele>173</ele>
        <time>2020-02-18T08:18:32Z</time>
      </trkpt>
      <trkpt lat="48.65904" lon="1.88413">
        <ele>173</ele>
        <time>2020-02-18T08:18:36Z</time>
      </trkpt>
      <trkpt lat="48.65906" lon="1.88404">
        <ele>172</ele>
        <time>2020-02-18T08:18:40Z</time>
      </trkpt>
      <trkpt lat="48.65909" lon="1.88397">
        <ele>172</ele>
        <time>2020-02-18T08:18:44Z</time>
      </trkpt>
      <trkpt lat="48.65911" lon="1.88388">
        <ele>172</ele>
        <time>2020-02-18T08:18:48Z</time>
      </trkpt>
      <trkpt lat="48.65912" lon="1.88379">
        <ele>172</ele>
        <time>2020-02-18T08:18:52Z</time>
      </trkpt>
      <trkpt lat="48.65915" lon="1.88371">
        <ele>172</ele>
        <time>2020-02-18T08:18:58Z</time>
      </trkpt>
      <trkpt lat="48.65918" lon="1.88361">
        <ele>173</ele>
        <time>2020-02-18T08:19:02Z</time>
      </trkpt>
      <trkpt lat="48.65918" lon="1.88352">
        <ele>173</ele>
        <time>2020-02-18T08:19:08Z</time>
      </trkpt>
      <trkpt lat="48.65919" lon="1.88343">
        <ele>173</ele>
        <time>2020-02-18T08:19:12Z</time>
      </trkpt>
      <trkpt lat="48.65921" lon="1.88331">
        <ele>173</ele>
        <time>2020-02-18T08:19:18Z</time>
      </trkpt>
      <trkpt lat="48.6592" lon="1.88322">
        <ele>173</ele>
        <time>2020-02-18T08:19:22Z</time>
      </trkpt>
      <trkpt lat="48.65923" lon="1.88314">
        <ele>173</ele>
        <time>2020-02-18T08:19:26Z</time>
      </trkpt>
      <trkpt lat="48.65923" lon="1.88305">
        <ele>174</ele>
        <time>2020-02-18T08:19:30Z</time>
      </trkpt>
      <trkpt lat="48.65925" lon="1.88296">
        <ele>174</ele>
        <time>2020-02-18T08:19:34Z</time>
      </trkpt>
      <trkpt lat="48.65926" lon="1.88287">
        <ele>174</ele>
        <time>2020-02-18T08:19:38Z</time>
      </trkpt>
      <trkpt lat="48.65929" lon="1.8828">
        <ele>174</ele>
        <time>2020-02-18T08:19:42Z</time>
      </trkpt>
      <trkpt lat="48.65929" lon="1.88273">
        <ele>174</ele>
        <time>2020-02-18T08:19:46Z</time>
      </trkpt>
      <trkpt lat="48.65931" lon="1.88266">
        <ele>174</ele>
        <time>2020-02-18T08:19:50Z</time>
      </trkpt>
      <trkpt lat="48.65933" lon="1.88259">
        <ele>174</ele>
        <time>2020-02-18T08:19:54Z</time>
      </trkpt>
      <trkpt lat="48.65935" lon="1.8825">
        <ele>175</ele>
        <time>2020-02-18T08:20:00Z</time>
      </trkpt>
      <trkpt lat="48.65937" lon="1.88243">
        <ele>174</ele>
        <time>2020-02-18T08:20:04Z</time>
      </trkpt>
      <trkpt lat="48.65938" lon="1.88235">
        <ele>174</ele>
        <time>2020-02-18T08:20:08Z</time>
      </trkpt>
      <trkpt lat="48.65938" lon="1.88226">
        <ele>174</ele>
        <time>2020-02-18T08:20:12Z</time>
      </trkpt>
      <trkpt lat="48.6594" lon="1.88218">
        <ele>174</ele>
        <time>2020-02-18T08:20:16Z</time>
      </trkpt>
      <trkpt lat="48.65942" lon="1.8821">
        <ele>174</ele>
        <time>2020-02-18T08:20:20Z</time>
      </trkpt>
      <trkpt lat="48.65943" lon="1.88201">
        <ele>174</ele>
        <time>2020-02-18T08:20:24Z</time>
      </trkpt>
      <trkpt lat="48.65947" lon="1.88193">
        <ele>174</ele>
        <time>2020-02-18T08:20:28Z</time>
      </trkpt>
      <trkpt lat="48.65951" lon="1.88185">
        <ele>174</ele>
        <time>2020-02-18T08:20:32Z</time>
      </trkpt>
      <trkpt lat="48.65951" lon="1.88176">
        <ele>174</ele>
        <time>2020-02-18T08:20:36Z</time>
      </trkpt>
      <trkpt lat="48.65955" lon="1.88169">
        <ele>174</ele>
        <time>2020-02-18T08:20:40Z</time>
      </trkpt>
      <trkpt lat="48.65959" lon="1.88161">
        <ele>173</ele>
        <time>2020-02-18T08:20:44Z</time>
      </trkpt>
      <trkpt lat="48.6596" lon="1.88151">
        <ele>173</ele>
        <time>2020-02-18T08:20:48Z</time>
      </trkpt>
      <trkpt lat="48.65962" lon="1.88143">
        <ele>173</ele>
        <time>2020-02-18T08:20:52Z</time>
      </trkpt>
      <trkpt lat="48.65962" lon="1.8813">
        <ele>173</ele>
        <time>2020-02-18T08:20:56Z</time>
      </trkpt>
      <trkpt lat="48.65964" lon="1.88123">
        <ele>173</ele>
        <time>2020-02-18T08:21:00Z</time>
      </trkpt>
      <trkpt lat="48.65965" lon="1.88116">
        <ele>173</ele>
        <time>2020-02-18T08:21:04Z</time>
      </trkpt>
      <trkpt lat="48.65968" lon="1.88106">
        <ele>173</ele>
        <time>2020-02-18T08:21:08Z</time>
      </trkpt>
      <trkpt lat="48.6597" lon="1.88097">
        <ele>173</ele>
        <time>2020-02-18T08:21:14Z</time>
      </trkpt>
      <trkpt lat="48.65973" lon="1.88087">
        <ele>173</ele>
        <time>2020-02-18T08:21:18Z</time>
      </trkpt>
      <trkpt lat="48.65976" lon="1.88082">
        <ele>171</ele>
        <time>2020-02-18T08:21:22Z</time>
      </trkpt>
      <trkpt lat="48.65979" lon="1.88073">
        <ele>171</ele>
        <time>2020-02-18T08:21:26Z</time>
      </trkpt>
      <trkpt lat="48.65982" lon="1.88063">
        <ele>171</ele>
        <time>2020-02-18T08:21:30Z</time>
      </trkpt>
      <trkpt lat="48.65986" lon="1.88057">
        <ele>171</ele>
        <time>2020-02-18T08:21:34Z</time>
      </trkpt>
      <trkpt lat="48.65991" lon="1.88055">
        <ele>171</ele>
        <time>2020-02-18T08:21:38Z</time>
      </trkpt>
      <trkpt lat="48.65996" lon="1.88046">
        <ele>170</ele>
        <time>2020-02-18T08:21:42Z</time>
      </trkpt>
      <trkpt lat="48.66" lon="1.88041">
        <ele>172</ele>
        <time>2020-02-18T08:21:46Z</time>
      </trkpt>
      <trkpt lat="48.66007" lon="1.8804">
        <ele>172</ele>
        <time>2020-02-18T08:21:52Z</time>
      </trkpt>
      <trkpt lat="48.66011" lon="1.88039">
        <ele>172</ele>
        <time>2020-02-18T08:21:56Z</time>
      </trkpt>
      <trkpt lat="48.66016" lon="1.8804">
        <ele>172</ele>
        <time>2020-02-18T08:22:00Z</time>
      </trkpt>
      <trkpt lat="48.66021" lon="1.88043">
        <ele>172</ele>
        <time>2020-02-18T08:22:06Z</time>
      </trkpt>
      <trkpt lat="48.66028" lon="1.88047">
        <ele>172</ele>
        <time>2020-02-18T08:22:12Z</time>
      </trkpt>
      <trkpt lat="48.66033" lon="1.88048">
        <ele>173</ele>
        <time>2020-02-18T08:22:16Z</time>
      </trkpt>
      <trkpt lat="48.6604" lon="1.88052">
        <ele>173</ele>
        <time>2020-02-18T08:22:20Z</time>
      </trkpt>
      <trkpt lat="48.66045" lon="1.88052">
        <ele>173</ele>
        <time>2020-02-18T08:22:24Z</time>
      </trkpt>
      <trkpt lat="48.66051" lon="1.88051">
        <ele>173</ele>
        <time>2020-02-18T08:22:30Z</time>
      </trkpt>
      <trkpt lat="48.66056" lon="1.88049">
        <ele>173</ele>
        <time>2020-02-18T08:22:34Z</time>
      </trkpt>
      <trkpt lat="48.66064" lon="1.88043">
        <ele>173</ele>
        <time>2020-02-18T08:22:40Z</time>
      </trkpt>
      <trkpt lat="48.6607" lon="1.88039">
        <ele>173</ele>
        <time>2020-02-18T08:22:44Z</time>
      </trkpt>
      <trkpt lat="48.66076" lon="1.88037">
        <ele>173</ele>
        <time>2020-02-18T08:22:48Z</time>
      </trkpt>
      <trkpt lat="48.66082" lon="1.88031">
        <ele>173</ele>
        <time>2020-02-18T08:22:54Z</time>
      </trkpt>
      <trkpt lat="48.66086" lon="1.88024">
        <ele>173</ele>
        <time>2020-02-18T08:22:58Z</time>
      </trkpt>
      <trkpt lat="48.66093" lon="1.88018">
        <ele>173</ele>
        <time>2020-02-18T08:23:02Z</time>
      </trkpt>
      <trkpt lat="48.66097" lon="1.88014">
        <ele>173</ele>
        <time>2020-02-18T08:23:04Z</time>
      </trkpt>
      <trkpt lat="48.66101" lon="1.8801">
        <ele>173</ele>
        <time>2020-02-18T08:23:08Z</time>
      </trkpt>
      <trkpt lat="48.66105" lon="1.88006">
        <ele>173</ele>
        <time>2020-02-18T08:23:12Z</time>
      </trkpt>
      <trkpt lat="48.66111" lon="1.88004">
        <ele>173</ele>
        <time>2020-02-18T08:23:16Z</time>
      </trkpt>
      <trkpt lat="48.66118" lon="1.88">
        <ele>173</ele>
        <time>2020-02-18T08:23:20Z</time>
      </trkpt>
      <trkpt lat="48.66125" lon="1.87999">
        <ele>172</ele>
        <time>2020-02-18T08:23:24Z</time>
      </trkpt>
      <trkpt lat="48.6613" lon="1.87997">
        <ele>172</ele>
        <time>2020-02-18T08:23:28Z</time>
      </trkpt>
      <trkpt lat="48.66135" lon="1.87996">
        <ele>172</ele>
        <time>2020-02-18T08:23:32Z</time>
      </trkpt>
      <trkpt lat="48.66141" lon="1.87996">
        <ele>172</ele>
        <time>2020-02-18T08:23:38Z</time>
      </trkpt>
      <trkpt lat="48.66153" lon="1.87991">
        <ele>172</ele>
        <time>2020-02-18T08:23:44Z</time>
      </trkpt>
      <trkpt lat="48.66158" lon="1.87989">
        <ele>172</ele>
        <time>2020-02-18T08:23:48Z</time>
      </trkpt>
      <trkpt lat="48.66164" lon="1.87984">
        <ele>172</ele>
        <time>2020-02-18T08:23:54Z</time>
      </trkpt>
      <trkpt lat="48.66168" lon="1.87979">
        <ele>172</ele>
        <time>2020-02-18T08:24:00Z</time>
      </trkpt>
      <trkpt lat="48.66172" lon="1.87975">
        <ele>172</ele>
        <time>2020-02-18T08:24:04Z</time>
      </trkpt>
      <trkpt lat="48.66174" lon="1.87967">
        <ele>172</ele>
        <time>2020-02-18T08:24:08Z</time>
      </trkpt>
      <trkpt lat="48.66177" lon="1.87961">
        <ele>172</ele>
        <time>2020-02-18T08:24:12Z</time>
      </trkpt>
      <trkpt lat="48.66181" lon="1.87957">
        <ele>171</ele>
        <time>2020-02-18T08:24:14Z</time>
      </trkpt>
      <trkpt lat="48.66186" lon="1.87954">
        <ele>171</ele>
        <time>2020-02-18T08:24:16Z</time>
      </trkpt>
      <trkpt lat="48.66188" lon="1.87946">
        <ele>171</ele>
        <time>2020-02-18T08:24:22Z</time>
      </trkpt>
      <trkpt lat="48.6619" lon="1.87939">
        <ele>171</ele>
        <time>2020-02-18T08:24:26Z</time>
      </trkpt>
      <trkpt lat="48.66194" lon="1.87933">
        <ele>171</ele>
        <time>2020-02-18T08:24:30Z</time>
      </trkpt>
      <trkpt lat="48.66197" lon="1.87924">
        <ele>171</ele>
        <time>2020-02-18T08:24:34Z</time>
      </trkpt>
      <trkpt lat="48.66203" lon="1.87916">
        <ele>172</ele>
        <time>2020-02-18T08:24:40Z</time>
      </trkpt>
      <trkpt lat="48.66209" lon="1.87908">
        <ele>172</ele>
        <time>2020-02-18T08:24:44Z</time>
      </trkpt>
      <trkpt lat="48.66213" lon="1.87901">
        <ele>172</ele>
        <time>2020-02-18T08:24:48Z</time>
      </trkpt>
      <trkpt lat="48.66218" lon="1.87893">
        <ele>173</ele>
        <time>2020-02-18T08:24:54Z</time>
      </trkpt>
      <trkpt lat="48.6622" lon="1.87884">
        <ele>173</ele>
        <time>2020-02-18T08:24:58Z</time>
      </trkpt>
      <trkpt lat="48.66225" lon="1.87875">
        <ele>173</ele>
        <time>2020-02-18T08:25:02Z</time>
      </trkpt>
      <trkpt lat="48.66228" lon="1.87868">
        <ele>173</ele>
        <time>2020-02-18T08:25:04Z</time>
      </trkpt>
      <trkpt lat="48.66233" lon="1.87865">
        <ele>173</ele>
        <time>2020-02-18T08:25:06Z</time>
      </trkpt>
      <trkpt lat="48.66236" lon="1.87859">
        <ele>173</ele>
        <time>2020-02-18T08:25:10Z</time>
      </trkpt>
      <trkpt lat="48.66239" lon="1.87853">
        <ele>174</ele>
        <time>2020-02-18T08:25:14Z</time>
      </trkpt>
      <trkpt lat="48.66242" lon="1.87845">
        <ele>174</ele>
        <time>2020-02-18T08:25:20Z</time>
      </trkpt>
      <trkpt lat="48.66247" lon="1.87839">
        <ele>175</ele>
        <time>2020-02-18T08:25:26Z</time>
      </trkpt>
      <trkpt lat="48.66253" lon="1.87834">
        <ele>175</ele>
        <time>2020-02-18T08:25:32Z</time>
      </trkpt>
      <trkpt lat="48.66252" lon="1.87826">
        <ele>175</ele>
        <time>2020-02-18T08:25:38Z</time>
      </trkpt>
      <trkpt lat="48.66255" lon="1.8782">
        <ele>175</ele>
        <time>2020-02-18T08:25:42Z</time>
      </trkpt>
      <trkpt lat="48.66259" lon="1.87816">
        <ele>175</ele>
        <time>2020-02-18T08:25:46Z</time>
      </trkpt>
      <trkpt lat="48.66265" lon="1.87812">
        <ele>175</ele>
        <time>2020-02-18T08:25:50Z</time>
      </trkpt>
      <trkpt lat="48.6627" lon="1.87802">
        <ele>175</ele>
        <time>2020-02-18T08:25:54Z</time>
      </trkpt>
      <trkpt lat="48.66274" lon="1.87797">
        <ele>175</ele>
        <time>2020-02-18T08:25:58Z</time>
      </trkpt>
      <trkpt lat="48.66275" lon="1.8779">
        <ele>176</ele>
        <time>2020-02-18T08:26:00Z</time>
      </trkpt>
      <trkpt lat="48.66279" lon="1.87784">
        <ele>176</ele>
        <time>2020-02-18T08:26:02Z</time>
      </trkpt>
      <trkpt lat="48.66281" lon="1.87777">
        <ele>176</ele>
        <time>2020-02-18T08:26:04Z</time>
      </trkpt>
      <trkpt lat="48.66283" lon="1.87771">
        <ele>176</ele>
        <time>2020-02-18T08:26:06Z</time>
      </trkpt>
      <trkpt lat="48.66287" lon="1.87765">
        <ele>176</ele>
        <time>2020-02-18T08:26:10Z</time>
      </trkpt>
      <trkpt lat="48.66291" lon="1.87758">
        <ele>176</ele>
        <time>2020-02-18T08:26:14Z</time>
      </trkpt>
      <trkpt lat="48.66295" lon="1.87755">
        <ele>176</ele>
        <time>2020-02-18T08:26:18Z</time>
      </trkpt>
      <trkpt lat="48.66301" lon="1.8775">
        <ele>176</ele>
        <time>2020-02-18T08:26:22Z</time>
      </trkpt>
      <trkpt lat="48.66304" lon="1.87743">
        <ele>175</ele>
        <time>2020-02-18T08:26:26Z</time>
      </trkpt>
      <trkpt lat="48.66306" lon="1.87735">
        <ele>175</ele>
        <time>2020-02-18T08:26:30Z</time>
      </trkpt>
      <trkpt lat="48.66309" lon="1.8773">
        <ele>175</ele>
        <time>2020-02-18T08:26:34Z</time>
      </trkpt>
      <trkpt lat="48.6631" lon="1.87722">
        <ele>175</ele>
        <time>2020-02-18T08:26:38Z</time>
      </trkpt>
      <trkpt lat="48.66315" lon="1.87713">
        <ele>175</ele>
        <time>2020-02-18T08:26:42Z</time>
      </trkpt>
      <trkpt lat="48.66317" lon="1.87707">
        <ele>175</ele>
        <time>2020-02-18T08:26:44Z</time>
      </trkpt>
      <trkpt lat="48.66321" lon="1.87695">
        <ele>175</ele>
        <time>2020-02-18T08:26:48Z</time>
      </trkpt>
      <trkpt lat="48.66322" lon="1.87688">
        <ele>174</ele>
        <time>2020-02-18T08:26:52Z</time>
      </trkpt>
      <trkpt lat="48.66326" lon="1.87679">
        <ele>174</ele>
        <time>2020-02-18T08:26:58Z</time>
      </trkpt>
      <trkpt lat="48.66329" lon="1.87672">
        <ele>174</ele>
        <time>2020-02-18T08:27:02Z</time>
      </trkpt>
      <trkpt lat="48.66331" lon="1.87665">
        <ele>174</ele>
        <time>2020-02-18T08:27:06Z</time>
      </trkpt>
      <trkpt lat="48.66333" lon="1.87656">
        <ele>173</ele>
        <time>2020-02-18T08:27:10Z</time>
      </trkpt>
      <trkpt lat="48.66336" lon="1.87649">
        <ele>173</ele>
        <time>2020-02-18T08:27:14Z</time>
      </trkpt>
      <trkpt lat="48.66341" lon="1.8764">
        <ele>172</ele>
        <time>2020-02-18T08:27:18Z</time>
      </trkpt>
      <trkpt lat="48.66342" lon="1.87633">
        <ele>172</ele>
        <time>2020-02-18T08:27:22Z</time>
      </trkpt>
      <trkpt lat="48.66349" lon="1.87625">
        <ele>172</ele>
        <time>2020-02-18T08:27:26Z</time>
      </trkpt>
      <trkpt lat="48.66353" lon="1.87617">
        <ele>172</ele>
        <time>2020-02-18T08:27:30Z</time>
      </trkpt>
      <trkpt lat="48.66356" lon="1.87607">
        <ele>171</ele>
        <time>2020-02-18T08:27:34Z</time>
      </trkpt>
      <trkpt lat="48.6636" lon="1.87599">
        <ele>171</ele>
        <time>2020-02-18T08:27:38Z</time>
      </trkpt>
      <trkpt lat="48.66364" lon="1.87588">
        <ele>171</ele>
        <time>2020-02-18T08:27:42Z</time>
      </trkpt>
      <trkpt lat="48.66367" lon="1.8758">
        <ele>170</ele>
        <time>2020-02-18T08:27:46Z</time>
      </trkpt>
      <trkpt lat="48.66371" lon="1.87571">
        <ele>170</ele>
        <time>2020-02-18T08:27:50Z</time>
      </trkpt>
      <trkpt lat="48.66374" lon="1.87563">
        <ele>170</ele>
        <time>2020-02-18T08:27:54Z</time>
      </trkpt>
      <trkpt lat="48.66379" lon="1.87556">
        <ele>170</ele>
        <time>2020-02-18T08:27:58Z</time>
      </trkpt>
      <trkpt lat="48.66383" lon="1.87549">
        <ele>170</ele>
        <time>2020-02-18T08:28:02Z</time>
      </trkpt>
      <trkpt lat="48.66386" lon="1.87542">
        <ele>170</ele>
        <time>2020-02-18T08:28:06Z</time>
      </trkpt>
      <trkpt lat="48.66391" lon="1.87535">
        <ele>170</ele>
        <time>2020-02-18T08:28:10Z</time>
      </trkpt>
      <trkpt lat="48.66395" lon="1.87528">
        <ele>170</ele>
        <time>2020-02-18T08:28:14Z</time>
      </trkpt>
      <trkpt lat="48.66398" lon="1.87522">
        <ele>170</ele>
        <time>2020-02-18T08:28:18Z</time>
      </trkpt>
      <trkpt lat="48.66404" lon="1.87518">
        <ele>170</ele>
        <time>2020-02-18T08:28:24Z</time>
      </trkpt>
      <trkpt lat="48.6641" lon="1.87515">
        <ele>170</ele>
        <time>2020-02-18T08:28:28Z</time>
      </trkpt>
      <trkpt lat="48.66415" lon="1.87511">
        <ele>170</ele>
        <time>2020-02-18T08:28:32Z</time>
      </trkpt>
      <trkpt lat="48.6642" lon="1.87507">
        <ele>170</ele>
        <time>2020-02-18T08:28:36Z</time>
      </trkpt>
      <trkpt lat="48.66424" lon="1.87504">
        <ele>170</ele>
        <time>2020-02-18T08:28:40Z</time>
      </trkpt>
      <trkpt lat="48.66428" lon="1.875">
        <ele>170</ele>
        <time>2020-02-18T08:28:44Z</time>
      </trkpt>
      <trkpt lat="48.66433" lon="1.87495">
        <ele>171</ele>
        <time>2020-02-18T08:28:48Z</time>
      </trkpt>
      <trkpt lat="48.66437" lon="1.87489">
        <ele>171</ele>
        <time>2020-02-18T08:28:52Z</time>
      </trkpt>
      <trkpt lat="48.6644" lon="1.8748">
        <ele>171</ele>
        <time>2020-02-18T08:28:56Z</time>
      </trkpt>
      <trkpt lat="48.66445" lon="1.87475">
        <ele>171</ele>
        <time>2020-02-18T08:29:00Z</time>
      </trkpt>
      <trkpt lat="48.66449" lon="1.87469">
        <ele>171</ele>
        <time>2020-02-18T08:29:04Z</time>
      </trkpt>
      <trkpt lat="48.66454" lon="1.87463">
        <ele>171</ele>
        <time>2020-02-18T08:29:08Z</time>
      </trkpt>
      <trkpt lat="48.66458" lon="1.87461">
        <ele>171</ele>
        <time>2020-02-18T08:29:20Z</time>
      </trkpt>
      <trkpt lat="48.66465" lon="1.87459">
        <ele>171</ele>
        <time>2020-02-18T08:29:26Z</time>
      </trkpt>
      <trkpt lat="48.6647" lon="1.87456">
        <ele>171</ele>
        <time>2020-02-18T08:29:32Z</time>
      </trkpt>
      <trkpt lat="48.66475" lon="1.8745">
        <ele>172</ele>
        <time>2020-02-18T08:29:38Z</time>
      </trkpt>
      <trkpt lat="48.66479" lon="1.87446">
        <ele>172</ele>
        <time>2020-02-18T08:29:42Z</time>
      </trkpt>
      <trkpt lat="48.66483" lon="1.87442">
        <ele>172</ele>
        <time>2020-02-18T08:29:46Z</time>
      </trkpt>
      <trkpt lat="48.66488" lon="1.8744">
        <ele>172</ele>
        <time>2020-02-18T08:29:52Z</time>
      </trkpt>
      <trkpt lat="48.66493" lon="1.87438">
        <ele>172</ele>
        <time>2020-02-18T08:29:54Z</time>
      </trkpt>
      <trkpt lat="48.66498" lon="1.87436">
        <ele>172</ele>
        <time>2020-02-18T08:29:58Z</time>
      </trkpt>
      <trkpt lat="48.66505" lon="1.87432">
        <ele>173</ele>
        <time>2020-02-18T08:30:02Z</time>
      </trkpt>
      <trkpt lat="48.66511" lon="1.8743">
        <ele>173</ele>
        <time>2020-02-18T08:30:06Z</time>
      </trkpt>
      <trkpt lat="48.66516" lon="1.87428">
        <ele>173</ele>
        <time>2020-02-18T08:30:14Z</time>
      </trkpt>
      <trkpt lat="48.66522" lon="1.87424">
        <ele>174</ele>
        <time>2020-02-18T08:30:18Z</time>
      </trkpt>
      <trkpt lat="48.66528" lon="1.8742">
        <ele>174</ele>
        <time>2020-02-18T08:30:22Z</time>
      </trkpt>
      <trkpt lat="48.66532" lon="1.87417">
        <ele>174</ele>
        <time>2020-02-18T08:30:28Z</time>
      </trkpt>
      <trkpt lat="48.66537" lon="1.87414">
        <ele>174</ele>
        <time>2020-02-18T08:30:34Z</time>
      </trkpt>
      <trkpt lat="48.66544" lon="1.87409">
        <ele>174</ele>
        <time>2020-02-18T08:30:38Z</time>
      </trkpt>
      <trkpt lat="48.66549" lon="1.87407">
        <ele>174</ele>
        <time>2020-02-18T08:30:44Z</time>
      </trkpt>
      <trkpt lat="48.66555" lon="1.87406">
        <ele>174</ele>
        <time>2020-02-18T08:30:48Z</time>
      </trkpt>
      <trkpt lat="48.6656" lon="1.87404">
        <ele>175</ele>
        <time>2020-02-18T08:30:50Z</time>
      </trkpt>
      <trkpt lat="48.66568" lon="1.87403">
        <ele>175</ele>
        <time>2020-02-18T08:30:56Z</time>
      </trkpt>
      <trkpt lat="48.66572" lon="1.87398">
        <ele>175</ele>
        <time>2020-02-18T08:31:02Z</time>
      </trkpt>
      <trkpt lat="48.66578" lon="1.87393">
        <ele>175</ele>
        <time>2020-02-18T08:31:08Z</time>
      </trkpt>
      <trkpt lat="48.66584" lon="1.87393">
        <ele>177</ele>
        <time>2020-02-18T08:31:12Z</time>
      </trkpt>
      <trkpt lat="48.66589" lon="1.8739">
        <ele>177</ele>
        <time>2020-02-18T08:31:18Z</time>
      </trkpt>
      <trkpt lat="48.66594" lon="1.87387">
        <ele>177</ele>
        <time>2020-02-18T08:31:22Z</time>
      </trkpt>
      <trkpt lat="48.66599" lon="1.87385">
        <ele>177</ele>
        <time>2020-02-18T08:31:26Z</time>
      </trkpt>
      <trkpt lat="48.66607" lon="1.87382">
        <ele>177</ele>
        <time>2020-02-18T08:31:30Z</time>
      </trkpt>
      <trkpt lat="48.66613" lon="1.87377">
        <ele>177</ele>
        <time>2020-02-18T08:31:36Z</time>
      </trkpt>
      <trkpt lat="48.66618" lon="1.87375">
        <ele>177</ele>
        <time>2020-02-18T08:31:42Z</time>
      </trkpt>
      <trkpt lat="48.66624" lon="1.87371">
        <ele>177</ele>
        <time>2020-02-18T08:31:46Z</time>
      </trkpt>
      <trkpt lat="48.66631" lon="1.87369">
        <ele>177</ele>
        <time>2020-02-18T08:31:50Z</time>
      </trkpt>
      <trkpt lat="48.66641" lon="1.87364">
        <ele>178</ele>
        <time>2020-02-18T08:31:58Z</time>
      </trkpt>
      <trkpt lat="48.66647" lon="1.87362">
        <ele>178</ele>
        <time>2020-02-18T08:32:02Z</time>
      </trkpt>
      <trkpt lat="48.66652" lon="1.87357">
        <ele>178</ele>
        <time>2020-02-18T08:32:08Z</time>
      </trkpt>
      <trkpt lat="48.66657" lon="1.87355">
        <ele>178</ele>
        <time>2020-02-18T08:32:12Z</time>
      </trkpt>
      <trkpt lat="48.66664" lon="1.87351">
        <ele>178</ele>
        <time>2020-02-18T08:32:16Z</time>
      </trkpt>
      <trkpt lat="48.6667" lon="1.87349">
        <ele>179</ele>
        <time>2020-02-18T08:32:20Z</time>
      </trkpt>
      <trkpt lat="48.66675" lon="1.87345">
        <ele>179</ele>
        <time>2020-02-18T08:32:24Z</time>
      </trkpt>
      <trkpt lat="48.66681" lon="1.87343">
        <ele>180</ele>
        <time>2020-02-18T08:32:32Z</time>
      </trkpt>
      <trkpt lat="48.66688" lon="1.87342">
        <ele>180</ele>
        <time>2020-02-18T08:32:36Z</time>
      </trkpt>
      <trkpt lat="48.66693" lon="1.87342">
        <ele>180</ele>
        <time>2020-02-18T08:32:42Z</time>
      </trkpt>
      <trkpt lat="48.66697" lon="1.87339">
        <ele>180</ele>
        <time>2020-02-18T08:32:44Z</time>
      </trkpt>
      <trkpt lat="48.66702" lon="1.87338">
        <ele>180</ele>
        <time>2020-02-18T08:32:46Z</time>
      </trkpt>
      <trkpt lat="48.66706" lon="1.87339">
        <ele>180</ele>
        <time>2020-02-18T08:32:48Z</time>
      </trkpt>
      <trkpt lat="48.66714" lon="1.87334">
        <ele>180</ele>
        <time>2020-02-18T08:32:52Z</time>
      </trkpt>
      <trkpt lat="48.66718" lon="1.87331">
        <ele>179</ele>
        <time>2020-02-18T08:32:56Z</time>
      </trkpt>
      <trkpt lat="48.66725" lon="1.87331">
        <ele>179</ele>
        <time>2020-02-18T08:32:58Z</time>
      </trkpt>
      <trkpt lat="48.66732" lon="1.87326">
        <ele>179</ele>
        <time>2020-02-18T08:33:02Z</time>
      </trkpt>
      <trkpt lat="48.6674" lon="1.87321">
        <ele>179</ele>
        <time>2020-02-18T08:33:06Z</time>
      </trkpt>
      <trkpt lat="48.66747" lon="1.87318">
        <ele>180</ele>
        <time>2020-02-18T08:33:10Z</time>
      </trkpt>
      <trkpt lat="48.66752" lon="1.87314">
        <ele>181</ele>
        <time>2020-02-18T08:33:14Z</time>
      </trkpt>
      <trkpt lat="48.66758" lon="1.87311">
        <ele>181</ele>
        <time>2020-02-18T08:33:20Z</time>
      </trkpt>
      <trkpt lat="48.66762" lon="1.87309">
        <ele>180</ele>
        <time>2020-02-18T08:33:24Z</time>
      </trkpt>
      <trkpt lat="48.66767" lon="1.87304">
        <ele>180</ele>
        <time>2020-02-18T08:33:30Z</time>
      </trkpt>
      <trkpt lat="48.66775" lon="1.87303">
        <ele>180</ele>
        <time>2020-02-18T08:33:36Z</time>
      </trkpt>
      <trkpt lat="48.6678" lon="1.87299">
        <ele>180</ele>
        <time>2020-02-18T08:33:42Z</time>
      </trkpt>
      <trkpt lat="48.66785" lon="1.87298">
        <ele>181</ele>
        <time>2020-02-18T08:33:44Z</time>
      </trkpt>
      <trkpt lat="48.66794" lon="1.87294">
        <ele>181</ele>
        <time>2020-02-18T08:33:48Z</time>
      </trkpt>
      <trkpt lat="48.66799" lon="1.87291">
        <ele>181</ele>
        <time>2020-02-18T08:33:50Z</time>
      </trkpt>
      <trkpt lat="48.66803" lon="1.87288">
        <ele>181</ele>
        <time>2020-02-18T08:33:52Z</time>
      </trkpt>
      <trkpt lat="48.66808" lon="1.87284">
        <ele>181</ele>
        <time>2020-02-18T08:33:56Z</time>
      </trkpt>
      <trkpt lat="48.66816" lon="1.87283">
        <ele>181</ele>
        <time>2020-02-18T08:34:00Z</time>
      </trkpt>
      <trkpt lat="48.66821" lon="1.87281">
        <ele>181</ele>
        <time>2020-02-18T08:34:02Z</time>
      </trkpt>
      <trkpt lat="48.66827" lon="1.87279">
        <ele>181</ele>
        <time>2020-02-18T08:34:04Z</time>
      </trkpt>
      <trkpt lat="48.66834" lon="1.87275">
        <ele>181</ele>
        <time>2020-02-18T08:34:10Z</time>
      </trkpt>
      <trkpt lat="48.6684" lon="1.87273">
        <ele>181</ele>
        <time>2020-02-18T08:34:14Z</time>
      </trkpt>
      <trkpt lat="48.66846" lon="1.87269">
        <ele>181</ele>
        <time>2020-02-18T08:34:22Z</time>
      </trkpt>
      <trkpt lat="48.66852" lon="1.87267">
        <ele>181</ele>
        <time>2020-02-18T08:34:28Z</time>
      </trkpt>
      <trkpt lat="48.66856" lon="1.87268">
        <ele>181</ele>
        <time>2020-02-18T08:34:30Z</time>
      </trkpt>
      <trkpt lat="48.66865" lon="1.87264">
        <ele>181</ele>
        <time>2020-02-18T08:34:34Z</time>
      </trkpt>
      <trkpt lat="48.66872" lon="1.87259">
        <ele>181</ele>
        <time>2020-02-18T08:34:38Z</time>
      </trkpt>
      <trkpt lat="48.66879" lon="1.87256">
        <ele>181</ele>
        <time>2020-02-18T08:34:42Z</time>
      </trkpt>
      <trkpt lat="48.66884" lon="1.87256">
        <ele>180</ele>
        <time>2020-02-18T08:34:46Z</time>
      </trkpt>
      <trkpt lat="48.6689" lon="1.87253">
        <ele>180</ele>
        <time>2020-02-18T08:34:50Z</time>
      </trkpt>
      <trkpt lat="48.66895" lon="1.87246">
        <ele>178</ele>
        <time>2020-02-18T08:34:56Z</time>
      </trkpt>
      <trkpt lat="48.66901" lon="1.87243">
        <ele>178</ele>
        <time>2020-02-18T08:35:00Z</time>
      </trkpt>
      <trkpt lat="48.66907" lon="1.87242">
        <ele>178</ele>
        <time>2020-02-18T08:35:04Z</time>
      </trkpt>
      <trkpt lat="48.66912" lon="1.8724">
        <ele>178</ele>
        <time>2020-02-18T08:35:08Z</time>
      </trkpt>
      <trkpt lat="48.66916" lon="1.87236">
        <ele>178</ele>
        <time>2020-02-18T08:35:12Z</time>
      </trkpt>
      <trkpt lat="48.66922" lon="1.87233">
        <ele>177</ele>
        <time>2020-02-18T08:35:16Z</time>
      </trkpt>
      <trkpt lat="48.66926" lon="1.87234">
        <ele>177</ele>
        <time>2020-02-18T08:35:20Z</time>
      </trkpt>
      <trkpt lat="48.66934" lon="1.87231">
        <ele>176</ele>
        <time>2020-02-18T08:35:26Z</time>
      </trkpt>
      <trkpt lat="48.66939" lon="1.8723">
        <ele>176</ele>
        <time>2020-02-18T08:35:28Z</time>
      </trkpt>
      <trkpt lat="48.66943" lon="1.87227">
        <ele>176</ele>
        <time>2020-02-18T08:35:32Z</time>
      </trkpt>
      <trkpt lat="48.66948" lon="1.87232">
        <ele>176</ele>
        <time>2020-02-18T08:35:38Z</time>
      </trkpt>
      <trkpt lat="48.66956" lon="1.8723">
        <ele>175</ele>
        <time>2020-02-18T08:35:44Z</time>
      </trkpt>
      <trkpt lat="48.66961" lon="1.87228">
        <ele>175</ele>
        <time>2020-02-18T08:35:46Z</time>
      </trkpt>
      <trkpt lat="48.66965" lon="1.87227">
        <ele>175</ele>
        <time>2020-02-18T08:35:50Z</time>
      </trkpt>
      <trkpt lat="48.6697" lon="1.87224">
        <ele>175</ele>
        <time>2020-02-18T08:35:54Z</time>
      </trkpt>
      <trkpt lat="48.66974" lon="1.87222">
        <ele>175</ele>
        <time>2020-02-18T08:35:58Z</time>
      </trkpt>
      <trkpt lat="48.6698" lon="1.87217">
        <ele>175</ele>
        <time>2020-02-18T08:36:02Z</time>
      </trkpt>
      <trkpt lat="48.66983" lon="1.87212">
        <ele>175</ele>
        <time>2020-02-18T08:36:06Z</time>
      </trkpt>
      <trkpt lat="48.66988" lon="1.87208">
        <ele>175</ele>
        <time>2020-02-18T08:36:10Z</time>
      </trkpt>
      <trkpt lat="48.66993" lon="1.87204">
        <ele>175</ele>
        <time>2020-02-18T08:36:14Z</time>
      </trkpt>
      <trkpt lat="48.66999" lon="1.87201">
        <ele>175</ele>
        <time>2020-02-18T08:36:20Z</time>
      </trkpt>
      <trkpt lat="48.67003" lon="1.87198">
        <ele>174</ele>
        <time>2020-02-18T08:36:24Z</time>
      </trkpt>
      <trkpt lat="48.6701" lon="1.87194">
        <ele>174</ele>
        <time>2020-02-18T08:36:28Z</time>
      </trkpt>
      <trkpt lat="48.67016" lon="1.87191">
        <ele>174</ele>
        <time>2020-02-18T08:36:32Z</time>
      </trkpt>
      <trkpt lat="48.67023" lon="1.87187">
        <ele>174</ele>
        <time>2020-02-18T08:36:36Z</time>
      </trkpt>
      <trkpt lat="48.6703" lon="1.87181">
        <ele>174</ele>
        <time>2020-02-18T08:36:40Z</time>
      </trkpt>
      <trkpt lat="48.67036" lon="1.87175">
        <ele>174</ele>
        <time>2020-02-18T08:36:46Z</time>
      </trkpt>
      <trkpt lat="48.67042" lon="1.87171">
        <ele>175</ele>
        <time>2020-02-18T08:36:52Z</time>
      </trkpt>
      <trkpt lat="48.67048" lon="1.87165">
        <ele>174</ele>
        <time>2020-02-18T08:36:56Z</time>
      </trkpt>
      <trkpt lat="48.67053" lon="1.87162">
        <ele>174</ele>
        <time>2020-02-18T08:37:00Z</time>
      </trkpt>
      <trkpt lat="48.67057" lon="1.87158">
        <ele>174</ele>
        <time>2020-02-18T08:37:06Z</time>
      </trkpt>
      <trkpt lat="48.67064" lon="1.87153">
        <ele>174</ele>
        <time>2020-02-18T08:37:10Z</time>
      </trkpt>
      <trkpt lat="48.67069" lon="1.87151">
        <ele>174</ele>
        <time>2020-02-18T08:37:12Z</time>
      </trkpt>
      <trkpt lat="48.67074" lon="1.87147">
        <ele>174</ele>
        <time>2020-02-18T08:37:18Z</time>
      </trkpt>
      <trkpt lat="48.67078" lon="1.87144">
        <ele>174</ele>
        <time>2020-02-18T08:37:22Z</time>
      </trkpt>
      <trkpt lat="48.67084" lon="1.87141">
        <ele>175</ele>
        <time>2020-02-18T08:37:26Z</time>
      </trkpt>
      <trkpt lat="48.6709" lon="1.87138">
        <ele>175</ele>
        <time>2020-02-18T08:37:30Z</time>
      </trkpt>
      <trkpt lat="48.67094" lon="1.87136">
        <ele>175</ele>
        <time>2020-02-18T08:37:32Z</time>
      </trkpt>
      <trkpt lat="48.67098" lon="1.87132">
        <ele>175</ele>
        <time>2020-02-18T08:37:36Z</time>
      </trkpt>
      <trkpt lat="48.67104" lon="1.87126">
        <ele>175</ele>
        <time>2020-02-18T08:37:40Z</time>
      </trkpt>
      <trkpt lat="48.67109" lon="1.87123">
        <ele>175</ele>
        <time>2020-02-18T08:37:44Z</time>
      </trkpt>
      <trkpt lat="48.67114" lon="1.87122">
        <ele>175</ele>
        <time>2020-02-18T08:37:50Z</time>
      </trkpt>
      <trkpt lat="48.67119" lon="1.8712">
        <ele>175</ele>
        <time>2020-02-18T08:37:52Z</time>
      </trkpt>
      <trkpt lat="48.67123" lon="1.87116">
        <ele>175</ele>
        <time>2020-02-18T08:37:56Z</time>
      </trkpt>
      <trkpt lat="48.67129" lon="1.87113">
        <ele>175</ele>
        <time>2020-02-18T08:38:00Z</time>
      </trkpt>
      <trkpt lat="48.67134" lon="1.8711">
        <ele>175</ele>
        <time>2020-02-18T08:38:04Z</time>
      </trkpt>
      <trkpt lat="48.67139" lon="1.87106">
        <ele>175</ele>
        <time>2020-02-18T08:38:08Z</time>
      </trkpt>
      <trkpt lat="48.67145" lon="1.871">
        <ele>175</ele>
        <time>2020-02-18T08:38:14Z</time>
      </trkpt>
      <trkpt lat="48.67153" lon="1.87098">
        <ele>175</ele>
        <time>2020-02-18T08:38:22Z</time>
      </trkpt>
      <trkpt lat="48.67159" lon="1.87096">
        <ele>176</ele>
        <time>2020-02-18T08:38:26Z</time>
      </trkpt>
      <trkpt lat="48.67165" lon="1.87095">
        <ele>176</ele>
        <time>2020-02-18T08:38:30Z</time>
      </trkpt>
      <trkpt lat="48.6717" lon="1.87091">
        <ele>176</ele>
        <time>2020-02-18T08:38:34Z</time>
      </trkpt>
      <trkpt lat="48.67175" lon="1.87086">
        <ele>176</ele>
        <time>2020-02-18T08:38:40Z</time>
      </trkpt>
      <trkpt lat="48.6718" lon="1.87084">
        <ele>176</ele>
        <time>2020-02-18T08:38:44Z</time>
      </trkpt>
      <trkpt lat="48.67185" lon="1.8708">
        <ele>176</ele>
        <time>2020-02-18T08:38:48Z</time>
      </trkpt>
      <trkpt lat="48.67191" lon="1.87077">
        <ele>175</ele>
        <time>2020-02-18T08:38:52Z</time>
      </trkpt>
      <trkpt lat="48.67195" lon="1.87074">
        <ele>175</ele>
        <time>2020-02-18T08:38:56Z</time>
      </trkpt>
      <trkpt lat="48.672" lon="1.87072">
        <ele>175</ele>
        <time>2020-02-18T08:39:00Z</time>
      </trkpt>
      <trkpt lat="48.67206" lon="1.87068">
        <ele>175</ele>
        <time>2020-02-18T08:39:04Z</time>
      </trkpt>
      <trkpt lat="48.67211" lon="1.87062">
        <ele>175</ele>
        <time>2020-02-18T08:39:08Z</time>
      </trkpt>
      <trkpt lat="48.67219" lon="1.87056">
        <ele>175</ele>
        <time>2020-02-18T08:39:12Z</time>
      </trkpt>
      <trkpt lat="48.67225" lon="1.87052">
        <ele>175</ele>
        <time>2020-02-18T08:39:16Z</time>
      </trkpt>
      <trkpt lat="48.67231" lon="1.87048">
        <ele>175</ele>
        <time>2020-02-18T08:39:18Z</time>
      </trkpt>
      <trkpt lat="48.67237" lon="1.87044">
        <ele>175</ele>
        <time>2020-02-18T08:39:22Z</time>
      </trkpt>
      <trkpt lat="48.67241" lon="1.87039">
        <ele>175</ele>
        <time>2020-02-18T08:39:26Z</time>
      </trkpt>
      <trkpt lat="48.67248" lon="1.87034">
        <ele>175</ele>
        <time>2020-02-18T08:39:32Z</time>
      </trkpt>
      <trkpt lat="48.67252" lon="1.87029">
        <ele>175</ele>
        <time>2020-02-18T08:39:36Z</time>
      </trkpt>
      <trkpt lat="48.67259" lon="1.87029">
        <ele>175</ele>
        <time>2020-02-18T08:39:40Z</time>
      </trkpt>
      <trkpt lat="48.67264" lon="1.87028">
        <ele>175</ele>
        <time>2020-02-18T08:39:42Z</time>
      </trkpt>
      <trkpt lat="48.67269" lon="1.87025">
        <ele>175</ele>
        <time>2020-02-18T08:39:46Z</time>
      </trkpt>
      <trkpt lat="48.67278" lon="1.87023">
        <ele>176</ele>
        <time>2020-02-18T08:39:50Z</time>
      </trkpt>
      <trkpt lat="48.67283" lon="1.87023">
        <ele>176</ele>
        <time>2020-02-18T08:39:52Z</time>
      </trkpt>
      <trkpt lat="48.67291" lon="1.87026">
        <ele>176</ele>
        <time>2020-02-18T08:39:58Z</time>
      </trkpt>
      <trkpt lat="48.67296" lon="1.87029">
        <ele>176</ele>
        <time>2020-02-18T08:40:02Z</time>
      </trkpt>
      <trkpt lat="48.673" lon="1.8703">
        <ele>176</ele>
        <time>2020-02-18T08:40:06Z</time>
      </trkpt>
      <trkpt lat="48.67305" lon="1.87029">
        <ele>176</ele>
        <time>2020-02-18T08:40:10Z</time>
      </trkpt>
      <trkpt lat="48.67311" lon="1.8703">
        <ele>176</ele>
        <time>2020-02-18T08:40:14Z</time>
      </trkpt>
      <trkpt lat="48.67319" lon="1.87031">
        <ele>176</ele>
        <time>2020-02-18T08:40:20Z</time>
      </trkpt>
      <trkpt lat="48.67324" lon="1.87034">
        <ele>176</ele>
        <time>2020-02-18T08:40:24Z</time>
      </trkpt>
      <trkpt lat="48.67328" lon="1.87033">
        <ele>176</ele>
        <time>2020-02-18T08:40:26Z</time>
      </trkpt>
      <trkpt lat="48.67333" lon="1.87035">
        <ele>176</ele>
        <time>2020-02-18T08:40:30Z</time>
      </trkpt>
      <trkpt lat="48.67339" lon="1.87037">
        <ele>176</ele>
        <time>2020-02-18T08:40:34Z</time>
      </trkpt>
      <trkpt lat="48.67345" lon="1.87041">
        <ele>176</ele>
        <time>2020-02-18T08:40:40Z</time>
      </trkpt>
      <trkpt lat="48.67353" lon="1.87045">
        <ele>175</ele>
        <time>2020-02-18T08:40:46Z</time>
      </trkpt>
      <trkpt lat="48.6736" lon="1.87046">
        <ele>175</ele>
        <time>2020-02-18T08:40:50Z</time>
      </trkpt>
      <trkpt lat="48.67365" lon="1.87047">
        <ele>175</ele>
        <time>2020-02-18T08:40:54Z</time>
      </trkpt>
      <trkpt lat="48.67372" lon="1.87049">
        <ele>175</ele>
        <time>2020-02-18T08:40:58Z</time>
      </trkpt>
      <trkpt lat="48.67379" lon="1.87052">
        <ele>175</ele>
        <time>2020-02-18T08:41:04Z</time>
      </trkpt>
      <trkpt lat="48.67386" lon="1.87054">
        <ele>175</ele>
        <time>2020-02-18T08:41:10Z</time>
      </trkpt>
      <trkpt lat="48.67391" lon="1.87056">
        <ele>176</ele>
        <time>2020-02-18T08:41:14Z</time>
      </trkpt>
      <trkpt lat="48.67395" lon="1.8706">
        <ele>176</ele>
        <time>2020-02-18T08:41:18Z</time>
      </trkpt>
      <trkpt lat="48.67402" lon="1.87061">
        <ele>176</ele>
        <time>2020-02-18T08:41:22Z</time>
      </trkpt>
      <trkpt lat="48.67413" lon="1.87064">
        <ele>176</ele>
        <time>2020-02-18T08:41:26Z</time>
      </trkpt>
      <trkpt lat="48.67421" lon="1.87065">
        <ele>176</ele>
        <time>2020-02-18T08:41:30Z</time>
      </trkpt>
      <trkpt lat="48.67428" lon="1.87069">
        <ele>176</ele>
        <time>2020-02-18T08:41:34Z</time>
      </trkpt>
      <trkpt lat="48.67436" lon="1.8707">
        <ele>176</ele>
        <time>2020-02-18T08:41:38Z</time>
      </trkpt>
      <trkpt lat="48.67442" lon="1.87071">
        <ele>176</ele>
        <time>2020-02-18T08:41:42Z</time>
      </trkpt>
      <trkpt lat="48.67447" lon="1.87072">
        <ele>176</ele>
        <time>2020-02-18T08:41:44Z</time>
      </trkpt>
      <trkpt lat="48.67451" lon="1.87074">
        <ele>176</ele>
        <time>2020-02-18T08:41:48Z</time>
      </trkpt>
      <trkpt lat="48.67457" lon="1.87079">
        <ele>176</ele>
        <time>2020-02-18T08:41:52Z</time>
      </trkpt>
      <trkpt lat="48.67462" lon="1.87085">
        <ele>175</ele>
        <time>2020-02-18T08:41:56Z</time>
      </trkpt>
      <trkpt lat="48.67467" lon="1.87089">
        <ele>175</ele>
        <time>2020-02-18T08:42:00Z</time>
      </trkpt>
      <trkpt lat="48.67471" lon="1.87081">
        <ele>176</ele>
        <time>2020-02-18T08:42:08Z</time>
      </trkpt>
      <trkpt lat="48.67475" lon="1.87075">
        <ele>176</ele>
        <time>2020-02-18T08:42:12Z</time>
      </trkpt>
      <trkpt lat="48.67474" lon="1.87068">
        <ele>176</ele>
        <time>2020-02-18T08:42:16Z</time>
      </trkpt>
      <trkpt lat="48.67478" lon="1.87061">
        <ele>176</ele>
        <time>2020-02-18T08:42:20Z</time>
      </trkpt>
      <trkpt lat="48.67484" lon="1.87064">
        <ele>176</ele>
        <time>2020-02-18T08:42:24Z</time>
      </trkpt>
      <trkpt lat="48.67489" lon="1.87064">
        <ele>176</ele>
        <time>2020-02-18T08:42:28Z</time>
      </trkpt>
      <trkpt lat="48.67495" lon="1.87068">
        <ele>176</ele>
        <time>2020-02-18T08:42:32Z</time>
      </trkpt>
      <trkpt lat="48.67501" lon="1.87071">
        <ele>176</ele>
        <time>2020-02-18T08:42:38Z</time>
      </trkpt>
      <trkpt lat="48.67508" lon="1.87076">
        <ele>176</ele>
        <time>2020-02-18T08:42:44Z</time>
      </trkpt>
      <trkpt lat="48.67512" lon="1.87081">
        <ele>176</ele>
        <time>2020-02-18T08:42:52Z</time>
      </trkpt>
      <trkpt lat="48.67517" lon="1.87082">
        <ele>176</ele>
        <time>2020-02-18T08:42:54Z</time>
      </trkpt>
      <trkpt lat="48.67522" lon="1.87085">
        <ele>176</ele>
        <time>2020-02-18T08:42:58Z</time>
      </trkpt>
      <trkpt lat="48.67528" lon="1.87086">
        <ele>176</ele>
        <time>2020-02-18T08:43:02Z</time>
      </trkpt>
      <trkpt lat="48.67534" lon="1.87086">
        <ele>175</ele>
        <time>2020-02-18T08:43:04Z</time>
      </trkpt>
      <trkpt lat="48.67539" lon="1.87089">
        <ele>175</ele>
        <time>2020-02-18T08:43:08Z</time>
      </trkpt>
      <trkpt lat="48.67544" lon="1.8709">
        <ele>175</ele>
        <time>2020-02-18T08:43:14Z</time>
      </trkpt>
      <trkpt lat="48.6755" lon="1.87092">
        <ele>175</ele>
        <time>2020-02-18T08:43:22Z</time>
      </trkpt>
      <trkpt lat="48.67554" lon="1.87092">
        <ele>175</ele>
        <time>2020-02-18T08:43:24Z</time>
      </trkpt>
      <trkpt lat="48.67561" lon="1.87096">
        <ele>175</ele>
        <time>2020-02-18T08:43:26Z</time>
      </trkpt>
      <trkpt lat="48.67565" lon="1.87098">
        <ele>175</ele>
        <time>2020-02-18T08:43:28Z</time>
      </trkpt>
      <trkpt lat="48.67569" lon="1.87103">
        <ele>175</ele>
        <time>2020-02-18T08:43:32Z</time>
      </trkpt>
      <trkpt lat="48.67575" lon="1.87105">
        <ele>175</ele>
        <time>2020-02-18T08:43:36Z</time>
      </trkpt>
      <trkpt lat="48.67583" lon="1.87106">
        <ele>175</ele>
        <time>2020-02-18T08:43:40Z</time>
      </trkpt>
      <trkpt lat="48.67589" lon="1.87108">
        <ele>174</ele>
        <time>2020-02-18T08:43:44Z</time>
      </trkpt>
      <trkpt lat="48.67594" lon="1.87112">
        <ele>174</ele>
        <time>2020-02-18T08:43:50Z</time>
      </trkpt>
      <trkpt lat="48.676" lon="1.8711">
        <ele>174</ele>
        <time>2020-02-18T08:43:52Z</time>
      </trkpt>
      <trkpt lat="48.67605" lon="1.87108">
        <ele>174</ele>
        <time>2020-02-18T08:43:54Z</time>
      </trkpt>
      <trkpt lat="48.67613" lon="1.8711">
        <ele>174</ele>
        <time>2020-02-18T08:44:00Z</time>
      </trkpt>
      <trkpt lat="48.67617" lon="1.87112">
        <ele>174</ele>
        <time>2020-02-18T08:44:02Z</time>
      </trkpt>
      <trkpt lat="48.67622" lon="1.87114">
        <ele>174</ele>
        <time>2020-02-18T08:44:06Z</time>
      </trkpt>
      <trkpt lat="48.67626" lon="1.87117">
        <ele>174</ele>
        <time>2020-02-18T08:44:10Z</time>
      </trkpt>
      <trkpt lat="48.67631" lon="1.8712">
        <ele>174</ele>
        <time>2020-02-18T08:44:16Z</time>
      </trkpt>
      <trkpt lat="48.6764" lon="1.8712">
        <ele>174</ele>
        <time>2020-02-18T08:44:20Z</time>
      </trkpt>
      <trkpt lat="48.67645" lon="1.8712">
        <ele>174</ele>
        <time>2020-02-18T08:44:22Z</time>
      </trkpt>
      <trkpt lat="48.6765" lon="1.8712">
        <ele>174</ele>
        <time>2020-02-18T08:44:24Z</time>
      </trkpt>
      <trkpt lat="48.67655" lon="1.87118">
        <ele>174</ele>
        <time>2020-02-18T08:44:26Z</time>
      </trkpt>
      <trkpt lat="48.67662" lon="1.8712">
        <ele>174</ele>
        <time>2020-02-18T08:44:30Z</time>
      </trkpt>
      <trkpt lat="48.67668" lon="1.87122">
        <ele>173</ele>
        <time>2020-02-18T08:44:34Z</time>
      </trkpt>
      <trkpt lat="48.67675" lon="1.87122">
        <ele>173</ele>
        <time>2020-02-18T08:44:40Z</time>
      </trkpt>
      <trkpt lat="48.67681" lon="1.87122">
        <ele>173</ele>
        <time>2020-02-18T08:44:44Z</time>
      </trkpt>
      <trkpt lat="48.67686" lon="1.87124">
        <ele>173</ele>
        <time>2020-02-18T08:44:46Z</time>
      </trkpt>
      <trkpt lat="48.67693" lon="1.87125">
        <ele>173</ele>
        <time>2020-02-18T08:44:52Z</time>
      </trkpt>
      <trkpt lat="48.67699" lon="1.87124">
        <ele>173</ele>
        <time>2020-02-18T08:44:58Z</time>
      </trkpt>
      <trkpt lat="48.67706" lon="1.87123">
        <ele>173</ele>
        <time>2020-02-18T08:45:02Z</time>
      </trkpt>
      <trkpt lat="48.67711" lon="1.87121">
        <ele>173</ele>
        <time>2020-02-18T08:45:06Z</time>
      </trkpt>
      <trkpt lat="48.67718" lon="1.8712">
        <ele>172</ele>
        <time>2020-02-18T08:45:12Z</time>
      </trkpt>
      <trkpt lat="48.67723" lon="1.87119">
        <ele>172</ele>
        <time>2020-02-18T08:45:16Z</time>
      </trkpt>
      <trkpt lat="48.6773" lon="1.87118">
        <ele>172</ele>
        <time>2020-02-18T08:45:22Z</time>
      </trkpt>
      <trkpt lat="48.67736" lon="1.87119">
        <ele>172</ele>
        <time>2020-02-18T08:45:26Z</time>
      </trkpt>
      <trkpt lat="48.6774" lon="1.87125">
        <ele>172</ele>
        <time>2020-02-18T08:45:32Z</time>
      </trkpt>
      <trkpt lat="48.67742" lon="1.87133">
        <ele>172</ele>
        <time>2020-02-18T08:47:20Z</time>
      </trkpt>
      <trkpt lat="48.67742" lon="1.87141">
        <ele>172</ele>
        <time>2020-02-18T08:47:26Z</time>
      </trkpt>
      <trkpt lat="48.67746" lon="1.87143">
        <ele>172</ele>
        <time>2020-02-18T08:47:34Z</time>
      </trkpt>
      <trkpt lat="48.67752" lon="1.87141">
        <ele>173</ele>
        <time>2020-02-18T08:47:40Z</time>
      </trkpt>
      <trkpt lat="48.67757" lon="1.87138">
        <ele>173</ele>
        <time>2020-02-18T08:47:44Z</time>
      </trkpt>
      <trkpt lat="48.67764" lon="1.87137">
        <ele>173</ele>
        <time>2020-02-18T08:47:48Z</time>
      </trkpt>
      <trkpt lat="48.67769" lon="1.87137">
        <ele>173</ele>
        <time>2020-02-18T08:47:52Z</time>
      </trkpt>
      <trkpt lat="48.67774" lon="1.87134">
        <ele>173</ele>
        <time>2020-02-18T08:48:00Z</time>
      </trkpt>
      <trkpt lat="48.67782" lon="1.87132">
        <ele>173</ele>
        <time>2020-02-18T08:48:06Z</time>
      </trkpt>
      <trkpt lat="48.67787" lon="1.87132">
        <ele>173</ele>
        <time>2020-02-18T08:48:08Z</time>
      </trkpt>
      <trkpt lat="48.67793" lon="1.87132">
        <ele>173</ele>
        <time>2020-02-18T08:48:12Z</time>
      </trkpt>
      <trkpt lat="48.67799" lon="1.87132">
        <ele>174</ele>
        <time>2020-02-18T08:48:16Z</time>
      </trkpt>
      <trkpt lat="48.67804" lon="1.87132">
        <ele>174</ele>
        <time>2020-02-18T08:48:18Z</time>
      </trkpt>
      <trkpt lat="48.67809" lon="1.87131">
        <ele>174</ele>
        <time>2020-02-18T08:48:24Z</time>
      </trkpt>
      <trkpt lat="48.67817" lon="1.87131">
        <ele>174</ele>
        <time>2020-02-18T08:48:32Z</time>
      </trkpt>
      <trkpt lat="48.67824" lon="1.8713">
        <ele>174</ele>
        <time>2020-02-18T08:48:36Z</time>
      </trkpt>
      <trkpt lat="48.6783" lon="1.87129">
        <ele>174</ele>
        <time>2020-02-18T08:48:40Z</time>
      </trkpt>
      <trkpt lat="48.67836" lon="1.8713">
        <ele>175</ele>
        <time>2020-02-18T08:48:44Z</time>
      </trkpt>
      <trkpt lat="48.67842" lon="1.87131">
        <ele>175</ele>
        <time>2020-02-18T08:48:48Z</time>
      </trkpt>
      <trkpt lat="48.67848" lon="1.87131">
        <ele>175</ele>
        <time>2020-02-18T08:48:52Z</time>
      </trkpt>
      <trkpt lat="48.67852" lon="1.87131">
        <ele>175</ele>
        <time>2020-02-18T08:48:56Z</time>
      </trkpt>
      <trkpt lat="48.67859" lon="1.87131">
        <ele>175</ele>
        <time>2020-02-18T08:49:02Z</time>
      </trkpt>
      <trkpt lat="48.67867" lon="1.87131">
        <ele>175</ele>
        <time>2020-02-18T08:49:08Z</time>
      </trkpt>
      <trkpt lat="48.67876" lon="1.87127">
        <ele>175</ele>
        <time>2020-02-18T08:49:12Z</time>
      </trkpt>
      <trkpt lat="48.6788" lon="1.87125">
        <ele>175</ele>
        <time>2020-02-18T08:49:14Z</time>
      </trkpt>
      <trkpt lat="48.67886" lon="1.87126">
        <ele>175</ele>
        <time>2020-02-18T08:49:18Z</time>
      </trkpt>
      <trkpt lat="48.67892" lon="1.87125">
        <ele>175</ele>
        <time>2020-02-18T08:49:22Z</time>
      </trkpt>
      <trkpt lat="48.67896" lon="1.87124">
        <ele>175</ele>
        <time>2020-02-18T08:49:26Z</time>
      </trkpt>
      <trkpt lat="48.67903" lon="1.87125">
        <ele>175</ele>
        <time>2020-02-18T08:49:32Z</time>
      </trkpt>
      <trkpt lat="48.6791" lon="1.87123">
        <ele>175</ele>
        <time>2020-02-18T08:49:36Z</time>
      </trkpt>
      <trkpt lat="48.67918" lon="1.87122">
        <ele>174</ele>
        <time>2020-02-18T08:49:40Z</time>
      </trkpt>
      <trkpt lat="48.67923" lon="1.87122">
        <ele>174</ele>
        <time>2020-02-18T08:49:42Z</time>
      </trkpt>
      <trkpt lat="48.67928" lon="1.8712">
        <ele>174</ele>
        <time>2020-02-18T08:49:46Z</time>
      </trkpt>
      <trkpt lat="48.67935" lon="1.87119">
        <ele>174</ele>
        <time>2020-02-18T08:49:52Z</time>
      </trkpt>
      <trkpt lat="48.67941" lon="1.87117">
        <ele>174</ele>
        <time>2020-02-18T08:49:56Z</time>
      </trkpt>
      <trkpt lat="48.67949" lon="1.87115">
        <ele>174</ele>
        <time>2020-02-18T08:50:00Z</time>
      </trkpt>
      <trkpt lat="48.67954" lon="1.87113">
        <ele>174</ele>
        <time>2020-02-18T08:50:04Z</time>
      </trkpt>
      <trkpt lat="48.6796" lon="1.87112">
        <ele>173</ele>
        <time>2020-02-18T08:50:08Z</time>
      </trkpt>
      <trkpt lat="48.67965" lon="1.87109">
        <ele>173</ele>
        <time>2020-02-18T08:50:14Z</time>
      </trkpt>
      <trkpt lat="48.67971" lon="1.87109">
        <ele>173</ele>
        <time>2020-02-18T08:50:22Z</time>
      </trkpt>
      <trkpt lat="48.67975" lon="1.87107">
        <ele>173</ele>
        <time>2020-02-18T08:50:26Z</time>
      </trkpt>
      <trkpt lat="48.6798" lon="1.87107">
        <ele>173</ele>
        <time>2020-02-18T08:50:30Z</time>
      </trkpt>
      <trkpt lat="48.67985" lon="1.87102">
        <ele>173</ele>
        <time>2020-02-18T08:50:36Z</time>
      </trkpt>
      <trkpt lat="48.6799" lon="1.87101">
        <ele>173</ele>
        <time>2020-02-18T08:50:46Z</time>
      </trkpt>
      <trkpt lat="48.67994" lon="1.87098">
        <ele>173</ele>
        <time>2020-02-18T08:50:58Z</time>
      </trkpt>
      <trkpt lat="48.68" lon="1.871">
        <ele>173</ele>
        <time>2020-02-18T08:51:04Z</time>
      </trkpt>
      <trkpt lat="48.68005" lon="1.87097">
        <ele>173</ele>
        <time>2020-02-18T08:51:10Z</time>
      </trkpt>
      <trkpt lat="48.68011" lon="1.87096">
        <ele>173</ele>
        <time>2020-02-18T08:51:16Z</time>
      </trkpt>
      <trkpt lat="48.68016" lon="1.87097">
        <ele>172</ele>
        <time>2020-02-18T08:51:22Z</time>
      </trkpt>
      <trkpt lat="48.68024" lon="1.87099">
        <ele>172</ele>
        <time>2020-02-18T08:51:26Z</time>
      </trkpt>
      <trkpt lat="48.6803" lon="1.87097">
        <ele>172</ele>
        <time>2020-02-18T08:51:30Z</time>
      </trkpt>
      <trkpt lat="48.68035" lon="1.87094">
        <ele>172</ele>
        <time>2020-02-18T08:51:40Z</time>
      </trkpt>
      <trkpt lat="48.68043" lon="1.87091">
        <ele>172</ele>
        <time>2020-02-18T08:51:44Z</time>
      </trkpt>
      <trkpt lat="48.6805" lon="1.87086">
        <ele>172</ele>
        <time>2020-02-18T08:51:48Z</time>
      </trkpt>
      <trkpt lat="48.68054" lon="1.8708">
        <ele>172</ele>
        <time>2020-02-18T08:51:54Z</time>
      </trkpt>
      <trkpt lat="48.68059" lon="1.87078">
        <ele>172</ele>
        <time>2020-02-18T08:52:00Z</time>
      </trkpt>
      <trkpt lat="48.68063" lon="1.87074">
        <ele>172</ele>
        <time>2020-02-18T08:52:06Z</time>
      </trkpt>
      <trkpt lat="48.68067" lon="1.87069">
        <ele>172</ele>
        <time>2020-02-18T08:52:10Z</time>
      </trkpt>
      <trkpt lat="48.68072" lon="1.87069">
        <ele>172</ele>
        <time>2020-02-18T08:52:16Z</time>
      </trkpt>
      <trkpt lat="48.68077" lon="1.87069">
        <ele>172</ele>
        <time>2020-02-18T08:52:20Z</time>
      </trkpt>
      <trkpt lat="48.68083" lon="1.87066">
        <ele>172</ele>
        <time>2020-02-18T08:52:26Z</time>
      </trkpt>
      <trkpt lat="48.68088" lon="1.87063">
        <ele>172</ele>
        <time>2020-02-18T08:52:32Z</time>
      </trkpt>
      <trkpt lat="48.68093" lon="1.87062">
        <ele>172</ele>
        <time>2020-02-18T08:52:36Z</time>
      </trkpt>
      <trkpt lat="48.68099" lon="1.87059">
        <ele>172</ele>
        <time>2020-02-18T08:52:40Z</time>
      </trkpt>
      <trkpt lat="48.68105" lon="1.87056">
        <ele>172</ele>
        <time>2020-02-18T08:52:46Z</time>
      </trkpt>
      <trkpt lat="48.68111" lon="1.87055">
        <ele>172</ele>
        <time>2020-02-18T08:52:50Z</time>
      </trkpt>
      <trkpt lat="48.68116" lon="1.87053">
        <ele>172</ele>
        <time>2020-02-18T08:52:54Z</time>
      </trkpt>
      <trkpt lat="48.6812" lon="1.87051">
        <ele>172</ele>
        <time>2020-02-18T08:53:00Z</time>
      </trkpt>
      <trkpt lat="48.68125" lon="1.8705">
        <ele>173</ele>
        <time>2020-02-18T08:53:04Z</time>
      </trkpt>
      <trkpt lat="48.68134" lon="1.87047">
        <ele>173</ele>
        <time>2020-02-18T08:53:08Z</time>
      </trkpt>
      <trkpt lat="48.68139" lon="1.87046">
        <ele>173</ele>
        <time>2020-02-18T08:53:12Z</time>
      </trkpt>
      <trkpt lat="48.68145" lon="1.87045">
        <ele>173</ele>
        <time>2020-02-18T08:53:14Z</time>
      </trkpt>
      <trkpt lat="48.68149" lon="1.87044">
        <ele>173</ele>
        <time>2020-02-18T08:53:18Z</time>
      </trkpt>
      <trkpt lat="48.68154" lon="1.87043">
        <ele>173</ele>
        <time>2020-02-18T08:53:22Z</time>
      </trkpt>
      <trkpt lat="48.68161" lon="1.87041">
        <ele>173</ele>
        <time>2020-02-18T08:53:26Z</time>
      </trkpt>
      <trkpt lat="48.68169" lon="1.87039">
        <ele>173</ele>
        <time>2020-02-18T08:53:30Z</time>
      </trkpt>
      <trkpt lat="48.68174" lon="1.87036">
        <ele>173</ele>
        <time>2020-02-18T08:53:36Z</time>
      </trkpt>
      <trkpt lat="48.68178" lon="1.87031">
        <ele>173</ele>
        <time>2020-02-18T08:53:40Z</time>
      </trkpt>
      <trkpt lat="48.68184" lon="1.87029">
        <ele>173</ele>
        <time>2020-02-18T08:53:44Z</time>
      </trkpt>
      <trkpt lat="48.68191" lon="1.87027">
        <ele>173</ele>
        <time>2020-02-18T08:53:48Z</time>
      </trkpt>
      <trkpt lat="48.68197" lon="1.87023">
        <ele>173</ele>
        <time>2020-02-18T08:53:52Z</time>
      </trkpt>
      <trkpt lat="48.68204" lon="1.87021">
        <ele>173</ele>
        <time>2020-02-18T08:53:56Z</time>
      </trkpt>
      <trkpt lat="48.6821" lon="1.87021">
        <ele>173</ele>
        <time>2020-02-18T08:54:02Z</time>
      </trkpt>
      <trkpt lat="48.68217" lon="1.87018">
        <ele>173</ele>
        <time>2020-02-18T08:54:06Z</time>
      </trkpt>
      <trkpt lat="48.68222" lon="1.87017">
        <ele>173</ele>
        <time>2020-02-18T08:54:08Z</time>
      </trkpt>
      <trkpt lat="48.68228" lon="1.87015">
        <ele>173</ele>
        <time>2020-02-18T08:54:12Z</time>
      </trkpt>
      <trkpt lat="48.68235" lon="1.87013">
        <ele>173</ele>
        <time>2020-02-18T08:54:16Z</time>
      </trkpt>
      <trkpt lat="48.68241" lon="1.87011">
        <ele>173</ele>
        <time>2020-02-18T08:54:22Z</time>
      </trkpt>
      <trkpt lat="48.68248" lon="1.87008">
        <ele>173</ele>
        <time>2020-02-18T08:54:28Z</time>
      </trkpt>
      <trkpt lat="48.68253" lon="1.87005">
        <ele>173</ele>
        <time>2020-02-18T08:54:32Z</time>
      </trkpt>
      <trkpt lat="48.6826" lon="1.87005">
        <ele>173</ele>
        <time>2020-02-18T08:54:36Z</time>
      </trkpt>
      <trkpt lat="48.68266" lon="1.87003">
        <ele>173</ele>
        <time>2020-02-18T08:54:40Z</time>
      </trkpt>
      <trkpt lat="48.68271" lon="1.87002">
        <ele>173</ele>
        <time>2020-02-18T08:54:44Z</time>
      </trkpt>
      <trkpt lat="48.68276" lon="1.86999">
        <ele>174</ele>
        <time>2020-02-18T08:54:48Z</time>
      </trkpt>
      <trkpt lat="48.68283" lon="1.86999">
        <ele>174</ele>
        <time>2020-02-18T08:54:52Z</time>
      </trkpt>
      <trkpt lat="48.68287" lon="1.86995">
        <ele>174</ele>
        <time>2020-02-18T08:54:56Z</time>
      </trkpt>
      <trkpt lat="48.68292" lon="1.86993">
        <ele>174</ele>
        <time>2020-02-18T08:55:02Z</time>
      </trkpt>
      <trkpt lat="48.68302" lon="1.86991">
        <ele>174</ele>
        <time>2020-02-18T08:55:06Z</time>
      </trkpt>
      <trkpt lat="48.68309" lon="1.8699">
        <ele>174</ele>
        <time>2020-02-18T08:55:08Z</time>
      </trkpt>
      <trkpt lat="48.68315" lon="1.86988">
        <ele>174</ele>
        <time>2020-02-18T08:55:12Z</time>
      </trkpt>
      <trkpt lat="48.68322" lon="1.86988">
        <ele>174</ele>
        <time>2020-02-18T08:55:16Z</time>
      </trkpt>
      <trkpt lat="48.68328" lon="1.86986">
        <ele>174</ele>
        <time>2020-02-18T08:55:22Z</time>
      </trkpt>
      <trkpt lat="48.68335" lon="1.86983">
        <ele>175</ele>
        <time>2020-02-18T08:55:26Z</time>
      </trkpt>
      <trkpt lat="48.68341" lon="1.86982">
        <ele>175</ele>
        <time>2020-02-18T08:55:28Z</time>
      </trkpt>
      <trkpt lat="48.68347" lon="1.8698">
        <ele>175</ele>
        <time>2020-02-18T08:55:32Z</time>
      </trkpt>
      <trkpt lat="48.68353" lon="1.86977">
        <ele>175</ele>
        <time>2020-02-18T08:55:38Z</time>
      </trkpt>
      <trkpt lat="48.68359" lon="1.86974">
        <ele>176</ele>
        <time>2020-02-18T08:55:42Z</time>
      </trkpt>
      <trkpt lat="48.68366" lon="1.86972">
        <ele>176</ele>
        <time>2020-02-18T08:55:46Z</time>
      </trkpt>
      <trkpt lat="48.68371" lon="1.86971">
        <ele>176</ele>
        <time>2020-02-18T08:55:50Z</time>
      </trkpt>
      <trkpt lat="48.68378" lon="1.86969">
        <ele>176</ele>
        <time>2020-02-18T08:55:54Z</time>
      </trkpt>
      <trkpt lat="48.68383" lon="1.8697">
        <ele>176</ele>
        <time>2020-02-18T08:55:58Z</time>
      </trkpt>
      <trkpt lat="48.68389" lon="1.86968">
        <ele>176</ele>
        <time>2020-02-18T08:56:02Z</time>
      </trkpt>
      <trkpt lat="48.68397" lon="1.86965">
        <ele>176</ele>
        <time>2020-02-18T08:56:06Z</time>
      </trkpt>
      <trkpt lat="48.68402" lon="1.86964">
        <ele>176</ele>
        <time>2020-02-18T08:56:12Z</time>
      </trkpt>
      <trkpt lat="48.68406" lon="1.86963">
        <ele>176</ele>
        <time>2020-02-18T08:56:16Z</time>
      </trkpt>
      <trkpt lat="48.68413" lon="1.86962">
        <ele>176</ele>
        <time>2020-02-18T08:56:22Z</time>
      </trkpt>
      <trkpt lat="48.68418" lon="1.86957">
        <ele>176</ele>
        <time>2020-02-18T08:56:28Z</time>
      </trkpt>
      <trkpt lat="48.68427" lon="1.86954">
        <ele>176</ele>
        <time>2020-02-18T08:56:32Z</time>
      </trkpt>
      <trkpt lat="48.68433" lon="1.86952">
        <ele>176</ele>
        <time>2020-02-18T08:56:36Z</time>
      </trkpt>
      <trkpt lat="48.68439" lon="1.8695">
        <ele>176</ele>
        <time>2020-02-18T08:56:40Z</time>
      </trkpt>
      <trkpt lat="48.68446" lon="1.86949">
        <ele>176</ele>
        <time>2020-02-18T08:56:44Z</time>
      </trkpt>
      <trkpt lat="48.6845" lon="1.86948">
        <ele>176</ele>
        <time>2020-02-18T08:56:48Z</time>
      </trkpt>
      <trkpt lat="48.68455" lon="1.86947">
        <ele>176</ele>
        <time>2020-02-18T08:56:50Z</time>
      </trkpt>
      <trkpt lat="48.68461" lon="1.86943">
        <ele>176</ele>
        <time>2020-02-18T08:56:54Z</time>
      </trkpt>
      <trkpt lat="48.68466" lon="1.86941">
        <ele>176</ele>
        <time>2020-02-18T08:56:56Z</time>
      </trkpt>
      <trkpt lat="48.68472" lon="1.86938">
        <ele>176</ele>
        <time>2020-02-18T08:57:00Z</time>
      </trkpt>
      <trkpt lat="48.68481" lon="1.86935">
        <ele>176</ele>
        <time>2020-02-18T08:57:06Z</time>
      </trkpt>
      <trkpt lat="48.68486" lon="1.86932">
        <ele>176</ele>
        <time>2020-02-18T08:57:12Z</time>
      </trkpt>
      <trkpt lat="48.68491" lon="1.86929">
        <ele>176</ele>
        <time>2020-02-18T08:57:18Z</time>
      </trkpt>
      <trkpt lat="48.68497" lon="1.86928">
        <ele>176</ele>
        <time>2020-02-18T08:57:26Z</time>
      </trkpt>
      <trkpt lat="48.68506" lon="1.86927">
        <ele>176</ele>
        <time>2020-02-18T08:57:32Z</time>
      </trkpt>
      <trkpt lat="48.68512" lon="1.86924">
        <ele>176</ele>
        <time>2020-02-18T08:57:36Z</time>
      </trkpt>
      <trkpt lat="48.6852" lon="1.86921">
        <ele>176</ele>
        <time>2020-02-18T08:57:40Z</time>
      </trkpt>
      <trkpt lat="48.68526" lon="1.86918">
        <ele>176</ele>
        <time>2020-02-18T08:57:44Z</time>
      </trkpt>
      <trkpt lat="48.68532" lon="1.86917">
        <ele>176</ele>
        <time>2020-02-18T08:57:48Z</time>
      </trkpt>
      <trkpt lat="48.68537" lon="1.86916">
        <ele>177</ele>
        <time>2020-02-18T08:57:52Z</time>
      </trkpt>
      <trkpt lat="48.68542" lon="1.86916">
        <ele>177</ele>
        <time>2020-02-18T08:57:56Z</time>
      </trkpt>
      <trkpt lat="48.68548" lon="1.86914">
        <ele>177</ele>
        <time>2020-02-18T08:58:00Z</time>
      </trkpt>
      <trkpt lat="48.68554" lon="1.86911">
        <ele>177</ele>
        <time>2020-02-18T08:58:08Z</time>
      </trkpt>
      <trkpt lat="48.68559" lon="1.86909">
        <ele>177</ele>
        <time>2020-02-18T08:58:14Z</time>
      </trkpt>
      <trkpt lat="48.68566" lon="1.86907">
        <ele>177</ele>
        <time>2020-02-18T08:58:20Z</time>
      </trkpt>
      <trkpt lat="48.68572" lon="1.86905">
        <ele>177</ele>
        <time>2020-02-18T08:58:24Z</time>
      </trkpt>
      <trkpt lat="48.68578" lon="1.86905">
        <ele>177</ele>
        <time>2020-02-18T08:58:28Z</time>
      </trkpt>
      <trkpt lat="48.68584" lon="1.86901">
        <ele>176</ele>
        <time>2020-02-18T08:58:36Z</time>
      </trkpt>
      <trkpt lat="48.68591" lon="1.86899">
        <ele>176</ele>
        <time>2020-02-18T08:58:44Z</time>
      </trkpt>
      <trkpt lat="48.68596" lon="1.86896">
        <ele>176</ele>
        <time>2020-02-18T08:58:50Z</time>
      </trkpt>
      <trkpt lat="48.68601" lon="1.86894">
        <ele>176</ele>
        <time>2020-02-18T08:58:54Z</time>
      </trkpt>
      <trkpt lat="48.68607" lon="1.86892">
        <ele>176</ele>
        <time>2020-02-18T08:58:58Z</time>
      </trkpt>
      <trkpt lat="48.68612" lon="1.86891">
        <ele>176</ele>
        <time>2020-02-18T08:59:02Z</time>
      </trkpt>
      <trkpt lat="48.68617" lon="1.86888">
        <ele>176</ele>
        <time>2020-02-18T08:59:06Z</time>
      </trkpt>
      <trkpt lat="48.68622" lon="1.86888">
        <ele>176</ele>
        <time>2020-02-18T08:59:12Z</time>
      </trkpt>
      <trkpt lat="48.68629" lon="1.86887">
        <ele>176</ele>
        <time>2020-02-18T08:59:16Z</time>
      </trkpt>
      <trkpt lat="48.68635" lon="1.86888">
        <ele>176</ele>
        <time>2020-02-18T08:59:20Z</time>
      </trkpt>
      <trkpt lat="48.6864" lon="1.86887">
        <ele>176</ele>
        <time>2020-02-18T08:59:22Z</time>
      </trkpt>
      <trkpt lat="48.68648" lon="1.86883">
        <ele>175</ele>
        <time>2020-02-18T08:59:26Z</time>
      </trkpt>
      <trkpt lat="48.68652" lon="1.86882">
        <ele>175</ele>
        <time>2020-02-18T08:59:28Z</time>
      </trkpt>
      <trkpt lat="48.68657" lon="1.86879">
        <ele>175</ele>
        <time>2020-02-18T08:59:32Z</time>
      </trkpt>
      <trkpt lat="48.68661" lon="1.86877">
        <ele>175</ele>
        <time>2020-02-18T08:59:38Z</time>
      </trkpt>
      <trkpt lat="48.68666" lon="1.86874">
        <ele>175</ele>
        <time>2020-02-18T08:59:42Z</time>
      </trkpt>
      <trkpt lat="48.68669" lon="1.86869">
        <ele>174</ele>
        <time>2020-02-18T08:59:46Z</time>
      </trkpt>
      <trkpt lat="48.68674" lon="1.86864">
        <ele>174</ele>
        <time>2020-02-18T08:59:50Z</time>
      </trkpt>
      <trkpt lat="48.68679" lon="1.86864">
        <ele>174</ele>
        <time>2020-02-18T08:59:54Z</time>
      </trkpt>
      <trkpt lat="48.68685" lon="1.86864">
        <ele>174</ele>
        <time>2020-02-18T08:59:58Z</time>
      </trkpt>
      <trkpt lat="48.68691" lon="1.86864">
        <ele>174</ele>
        <time>2020-02-18T09:00:04Z</time>
      </trkpt>
      <trkpt lat="48.68696" lon="1.86863">
        <ele>174</ele>
        <time>2020-02-18T09:00:12Z</time>
      </trkpt>
      <trkpt lat="48.68702" lon="1.86864">
        <ele>174</ele>
        <time>2020-02-18T09:00:20Z</time>
      </trkpt>
      <trkpt lat="48.68707" lon="1.86862">
        <ele>174</ele>
        <time>2020-02-18T09:00:26Z</time>
      </trkpt>
      <trkpt lat="48.68712" lon="1.8686">
        <ele>174</ele>
        <time>2020-02-18T09:00:32Z</time>
      </trkpt>
      <trkpt lat="48.68719" lon="1.86858">
        <ele>174</ele>
        <time>2020-02-18T09:00:40Z</time>
      </trkpt>
      <trkpt lat="48.68723" lon="1.86856">
        <ele>174</ele>
        <time>2020-02-18T09:00:44Z</time>
      </trkpt>
      <trkpt lat="48.68731" lon="1.86855">
        <ele>174</ele>
        <time>2020-02-18T09:00:50Z</time>
      </trkpt>
      <trkpt lat="48.68736" lon="1.86853">
        <ele>174</ele>
        <time>2020-02-18T09:00:52Z</time>
      </trkpt>
      <trkpt lat="48.68742" lon="1.86853">
        <ele>174</ele>
        <time>2020-02-18T09:00:56Z</time>
      </trkpt>
      <trkpt lat="48.6875" lon="1.86849">
        <ele>174</ele>
        <time>2020-02-18T09:01:00Z</time>
      </trkpt>
      <trkpt lat="48.68756" lon="1.86847">
        <ele>173</ele>
        <time>2020-02-18T09:01:04Z</time>
      </trkpt>
      <trkpt lat="48.68761" lon="1.86843">
        <ele>173</ele>
        <time>2020-02-18T09:01:08Z</time>
      </trkpt>
      <trkpt lat="48.68766" lon="1.86842">
        <ele>173</ele>
        <time>2020-02-18T09:01:12Z</time>
      </trkpt>
      <trkpt lat="48.68771" lon="1.86839">
        <ele>173</ele>
        <time>2020-02-18T09:01:20Z</time>
      </trkpt>
      <trkpt lat="48.68776" lon="1.86837">
        <ele>173</ele>
        <time>2020-02-18T09:01:24Z</time>
      </trkpt>
      <trkpt lat="48.68781" lon="1.86836">
        <ele>173</ele>
        <time>2020-02-18T09:01:28Z</time>
      </trkpt>
      <trkpt lat="48.68788" lon="1.86834">
        <ele>173</ele>
        <time>2020-02-18T09:01:32Z</time>
      </trkpt>
      <trkpt lat="48.68794" lon="1.86832">
        <ele>173</ele>
        <time>2020-02-18T09:01:36Z</time>
      </trkpt>
      <trkpt lat="48.68798" lon="1.86829">
        <ele>173</ele>
        <time>2020-02-18T09:01:40Z</time>
      </trkpt>
      <trkpt lat="48.68805" lon="1.86828">
        <ele>173</ele>
        <time>2020-02-18T09:01:46Z</time>
      </trkpt>
      <trkpt lat="48.68809" lon="1.86826">
        <ele>173</ele>
        <time>2020-02-18T09:01:52Z</time>
      </trkpt>
      <trkpt lat="48.68816" lon="1.86822">
        <ele>173</ele>
        <time>2020-02-18T09:01:58Z</time>
      </trkpt>
      <trkpt lat="48.68822" lon="1.86817">
        <ele>173</ele>
        <time>2020-02-18T09:02:02Z</time>
      </trkpt>
      <trkpt lat="48.68829" lon="1.86816">
        <ele>173</ele>
        <time>2020-02-18T09:02:06Z</time>
      </trkpt>
      <trkpt lat="48.68836" lon="1.86813">
        <ele>173</ele>
        <time>2020-02-18T09:02:10Z</time>
      </trkpt>
      <trkpt lat="48.68843" lon="1.86811">
        <ele>173</ele>
        <time>2020-02-18T09:02:16Z</time>
      </trkpt>
      <trkpt lat="48.68849" lon="1.86809">
        <ele>173</ele>
        <time>2020-02-18T09:02:22Z</time>
      </trkpt>
      <trkpt lat="48.68854" lon="1.86808">
        <ele>173</ele>
        <time>2020-02-18T09:02:26Z</time>
      </trkpt>
      <trkpt lat="48.68862" lon="1.86806">
        <ele>173</ele>
        <time>2020-02-18T09:02:30Z</time>
      </trkpt>
      <trkpt lat="48.68867" lon="1.86806">
        <ele>173</ele>
        <time>2020-02-18T09:02:34Z</time>
      </trkpt>
      <trkpt lat="48.68876" lon="1.86808">
        <ele>173</ele>
        <time>2020-02-18T09:02:38Z</time>
      </trkpt>
      <trkpt lat="48.68881" lon="1.86814">
        <ele>173</ele>
        <time>2020-02-18T09:02:42Z</time>
      </trkpt>
      <trkpt lat="48.68886" lon="1.86819">
        <ele>173</ele>
        <time>2020-02-18T09:02:46Z</time>
      </trkpt>
      <trkpt lat="48.68892" lon="1.86825">
        <ele>173</ele>
        <time>2020-02-18T09:02:50Z</time>
      </trkpt>
      <trkpt lat="48.68898" lon="1.86832">
        <ele>173</ele>
        <time>2020-02-18T09:02:54Z</time>
      </trkpt>
      <trkpt lat="48.68901" lon="1.86837">
        <ele>173</ele>
        <time>2020-02-18T09:02:58Z</time>
      </trkpt>
      <trkpt lat="48.68905" lon="1.86843">
        <ele>173</ele>
        <time>2020-02-18T09:03:06Z</time>
      </trkpt>
      <trkpt lat="48.68908" lon="1.8685">
        <ele>173</ele>
        <time>2020-02-18T09:03:12Z</time>
      </trkpt>
      <trkpt lat="48.6891" lon="1.86858">
        <ele>173</ele>
        <time>2020-02-18T09:03:16Z</time>
      </trkpt>
      <trkpt lat="48.68914" lon="1.86863">
        <ele>173</ele>
        <time>2020-02-18T09:03:20Z</time>
      </trkpt>
      <trkpt lat="48.68919" lon="1.86867">
        <ele>172</ele>
        <time>2020-02-18T09:03:24Z</time>
      </trkpt>
      <trkpt lat="48.68923" lon="1.8687">
        <ele>172</ele>
        <time>2020-02-18T09:03:28Z</time>
      </trkpt>
      <trkpt lat="48.68928" lon="1.86872">
        <ele>172</ele>
        <time>2020-02-18T09:03:32Z</time>
      </trkpt>
      <trkpt lat="48.68935" lon="1.86871">
        <ele>172</ele>
        <time>2020-02-18T09:03:38Z</time>
      </trkpt>
      <trkpt lat="48.68942" lon="1.8687">
        <ele>172</ele>
        <time>2020-02-18T09:03:44Z</time>
      </trkpt>
      <trkpt lat="48.68949" lon="1.8687">
        <ele>172</ele>
        <time>2020-02-18T09:03:48Z</time>
      </trkpt>
      <trkpt lat="48.68954" lon="1.8687">
        <ele>172</ele>
        <time>2020-02-18T09:03:52Z</time>
      </trkpt>
      <trkpt lat="48.6896" lon="1.86869">
        <ele>172</ele>
        <time>2020-02-18T09:03:56Z</time>
      </trkpt>
      <trkpt lat="48.68966" lon="1.86868">
        <ele>172</ele>
        <time>2020-02-18T09:04:00Z</time>
      </trkpt>
      <trkpt lat="48.68973" lon="1.86868">
        <ele>172</ele>
        <time>2020-02-18T09:04:06Z</time>
      </trkpt>
      <trkpt lat="48.68978" lon="1.86868">
        <ele>172</ele>
        <time>2020-02-18T09:04:10Z</time>
      </trkpt>
      <trkpt lat="48.68985" lon="1.86867">
        <ele>172</ele>
        <time>2020-02-18T09:04:14Z</time>
      </trkpt>
      <trkpt lat="48.6899" lon="1.86867">
        <ele>172</ele>
        <time>2020-02-18T09:04:18Z</time>
      </trkpt>
      <trkpt lat="48.68997" lon="1.86865">
        <ele>172</ele>
        <time>2020-02-18T09:04:22Z</time>
      </trkpt>
      <trkpt lat="48.69003" lon="1.86866">
        <ele>172</ele>
        <time>2020-02-18T09:04:26Z</time>
      </trkpt>
      <trkpt lat="48.69007" lon="1.86865">
        <ele>172</ele>
        <time>2020-02-18T09:04:30Z</time>
      </trkpt>
      <trkpt lat="48.69013" lon="1.86865">
        <ele>172</ele>
        <time>2020-02-18T09:04:34Z</time>
      </trkpt>
      <trkpt lat="48.69018" lon="1.86865">
        <ele>172</ele>
        <time>2020-02-18T09:04:38Z</time>
      </trkpt>
      <trkpt lat="48.69023" lon="1.86865">
        <ele>172</ele>
        <time>2020-02-18T09:04:42Z</time>
      </trkpt>
      <trkpt lat="48.69029" lon="1.86864">
        <ele>172</ele>
        <time>2020-02-18T09:04:46Z</time>
      </trkpt>
      <trkpt lat="48.69034" lon="1.86864">
        <ele>172</ele>
        <time>2020-02-18T09:04:50Z</time>
      </trkpt>
      <trkpt lat="48.6904" lon="1.86864">
        <ele>172</ele>
        <time>2020-02-18T09:04:54Z</time>
      </trkpt>
      <trkpt lat="48.69046" lon="1.86863">
        <ele>172</ele>
        <time>2020-02-18T09:04:58Z</time>
      </trkpt>
      <trkpt lat="48.69052" lon="1.86863">
        <ele>172</ele>
        <time>2020-02-18T09:05:02Z</time>
      </trkpt>
      <trkpt lat="48.69057" lon="1.86863">
        <ele>172</ele>
        <time>2020-02-18T09:05:06Z</time>
      </trkpt>
      <trkpt lat="48.69063" lon="1.86863">
        <ele>172</ele>
        <time>2020-02-18T09:05:10Z</time>
      </trkpt>
      <trkpt lat="48.69069" lon="1.86862">
        <ele>172</ele>
        <time>2020-02-18T09:05:14Z</time>
      </trkpt>
      <trkpt lat="48.69073" lon="1.86862">
        <ele>172</ele>
        <time>2020-02-18T09:05:18Z</time>
      </trkpt>
      <trkpt lat="48.69079" lon="1.86861">
        <ele>172</ele>
        <time>2020-02-18T09:05:24Z</time>
      </trkpt>
      <trkpt lat="48.69085" lon="1.86863">
        <ele>172</ele>
        <time>2020-02-18T09:05:30Z</time>
      </trkpt>
      <trkpt lat="48.69092" lon="1.86862">
        <ele>172</ele>
        <time>2020-02-18T09:05:36Z</time>
      </trkpt>
      <trkpt lat="48.69097" lon="1.86862">
        <ele>172</ele>
        <time>2020-02-18T09:05:40Z</time>
      </trkpt>
      <trkpt lat="48.69104" lon="1.86862">
        <ele>172</ele>
        <time>2020-02-18T09:05:44Z</time>
      </trkpt>
      <trkpt lat="48.69109" lon="1.86862">
        <ele>172</ele>
        <time>2020-02-18T09:05:48Z</time>
      </trkpt>
      <trkpt lat="48.69115" lon="1.8686">
        <ele>172</ele>
        <time>2020-02-18T09:05:52Z</time>
      </trkpt>
      <trkpt lat="48.69121" lon="1.8686">
        <ele>172</ele>
        <time>2020-02-18T09:05:56Z</time>
      </trkpt>
      <trkpt lat="48.69127" lon="1.8686">
        <ele>172</ele>
        <time>2020-02-18T09:06:04Z</time>
      </trkpt>
      <trkpt lat="48.69133" lon="1.86859">
        <ele>172</ele>
        <time>2020-02-18T09:06:08Z</time>
      </trkpt>
      <trkpt lat="48.69138" lon="1.8686">
        <ele>172</ele>
        <time>2020-02-18T09:06:12Z</time>
      </trkpt>
      <trkpt lat="48.69144" lon="1.8686">
        <ele>172</ele>
        <time>2020-02-18T09:06:16Z</time>
      </trkpt>
      <trkpt lat="48.69151" lon="1.86859">
        <ele>172</ele>
        <time>2020-02-18T09:06:20Z</time>
      </trkpt>
      <trkpt lat="48.69159" lon="1.86858">
        <ele>172</ele>
        <time>2020-02-18T09:06:24Z</time>
      </trkpt>
      <trkpt lat="48.69165" lon="1.86858">
        <ele>172</ele>
        <time>2020-02-18T09:06:28Z</time>
      </trkpt>
      <trkpt lat="48.6917" lon="1.86857">
        <ele>172</ele>
        <time>2020-02-18T09:06:32Z</time>
      </trkpt>
      <trkpt lat="48.69176" lon="1.86857">
        <ele>172</ele>
        <time>2020-02-18T09:06:36Z</time>
      </trkpt>
      <trkpt lat="48.69181" lon="1.86856">
        <ele>172</ele>
        <time>2020-02-18T09:06:40Z</time>
      </trkpt>
      <trkpt lat="48.69187" lon="1.86856">
        <ele>172</ele>
        <time>2020-02-18T09:06:44Z</time>
      </trkpt>
      <trkpt lat="48.69194" lon="1.86856">
        <ele>172</ele>
        <time>2020-02-18T09:06:48Z</time>
      </trkpt>
      <trkpt lat="48.692" lon="1.86855">
        <ele>172</ele>
        <time>2020-02-18T09:06:52Z</time>
      </trkpt>
      <trkpt lat="48.69205" lon="1.86856">
        <ele>172</ele>
        <time>2020-02-18T09:06:56Z</time>
      </trkpt>
      <trkpt lat="48.69211" lon="1.86856">
        <ele>172</ele>
        <time>2020-02-18T09:07:00Z</time>
      </trkpt>
      <trkpt lat="48.69216" lon="1.86856">
        <ele>172</ele>
        <time>2020-02-18T09:07:04Z</time>
      </trkpt>
      <trkpt lat="48.69222" lon="1.86855">
        <ele>172</ele>
        <time>2020-02-18T09:07:08Z</time>
      </trkpt>
      <trkpt lat="48.69228" lon="1.86855">
        <ele>172</ele>
        <time>2020-02-18T09:07:12Z</time>
      </trkpt>
      <trkpt lat="48.69233" lon="1.86855">
        <ele>172</ele>
        <time>2020-02-18T09:07:16Z</time>
      </trkpt>
      <trkpt lat="48.69238" lon="1.86854">
        <ele>173</ele>
        <time>2020-02-18T09:07:20Z</time>
      </trkpt>
      <trkpt lat="48.69244" lon="1.86854">
        <ele>173</ele>
        <time>2020-02-18T09:07:24Z</time>
      </trkpt>
      <trkpt lat="48.69249" lon="1.86853">
        <ele>173</ele>
        <time>2020-02-18T09:07:28Z</time>
      </trkpt>
      <trkpt lat="48.69253" lon="1.86851">
        <ele>173</ele>
        <time>2020-02-18T09:07:32Z</time>
      </trkpt>
      <trkpt lat="48.69253" lon="1.86844">
        <ele>173</ele>
        <time>2020-02-18T09:07:42Z</time>
      </trkpt>
      <trkpt lat="48.69254" lon="1.86837">
        <ele>173</ele>
        <time>2020-02-18T09:07:46Z</time>
      </trkpt>
      <trkpt lat="48.69256" lon="1.86829">
        <ele>173</ele>
        <time>2020-02-18T09:07:50Z</time>
      </trkpt>
      <trkpt lat="48.69256" lon="1.86822">
        <ele>173</ele>
        <time>2020-02-18T09:07:52Z</time>
      </trkpt>
      <trkpt lat="48.6926" lon="1.86814">
        <ele>173</ele>
        <time>2020-02-18T09:07:56Z</time>
      </trkpt>
      <trkpt lat="48.69264" lon="1.86809">
        <ele>173</ele>
        <time>2020-02-18T09:08:00Z</time>
      </trkpt>
      <trkpt lat="48.69265" lon="1.86801">
        <ele>173</ele>
        <time>2020-02-18T09:08:04Z</time>
      </trkpt>
      <trkpt lat="48.69267" lon="1.86792">
        <ele>173</ele>
        <time>2020-02-18T09:08:08Z</time>
      </trkpt>
      <trkpt lat="48.6927" lon="1.86786">
        <ele>173</ele>
        <time>2020-02-18T09:08:12Z</time>
      </trkpt>
      <trkpt lat="48.69275" lon="1.86781">
        <ele>173</ele>
        <time>2020-02-18T09:08:16Z</time>
      </trkpt>
      <trkpt lat="48.69278" lon="1.86773">
        <ele>173</ele>
        <time>2020-02-18T09:08:20Z</time>
      </trkpt>
      <trkpt lat="48.69279" lon="1.86764">
        <ele>173</ele>
        <time>2020-02-18T09:08:24Z</time>
      </trkpt>
      <trkpt lat="48.69282" lon="1.86756">
        <ele>173</ele>
        <time>2020-02-18T09:08:28Z</time>
      </trkpt>
      <trkpt lat="48.69283" lon="1.86749">
        <ele>174</ele>
        <time>2020-02-18T09:08:30Z</time>
      </trkpt>
      <trkpt lat="48.69286" lon="1.86743">
        <ele>174</ele>
        <time>2020-02-18T09:08:34Z</time>
      </trkpt>
      <trkpt lat="48.69289" lon="1.86735">
        <ele>174</ele>
        <time>2020-02-18T09:08:38Z</time>
      </trkpt>
      <trkpt lat="48.6929" lon="1.86728">
        <ele>174</ele>
        <time>2020-02-18T09:08:42Z</time>
      </trkpt>
      <trkpt lat="48.69293" lon="1.8672">
        <ele>174</ele>
        <time>2020-02-18T09:08:46Z</time>
      </trkpt>
      <trkpt lat="48.69296" lon="1.86712">
        <ele>174</ele>
        <time>2020-02-18T09:08:50Z</time>
      </trkpt>
      <trkpt lat="48.69299" lon="1.86705">
        <ele>174</ele>
        <time>2020-02-18T09:08:54Z</time>
      </trkpt>
      <trkpt lat="48.69302" lon="1.86698">
        <ele>175</ele>
        <time>2020-02-18T09:08:58Z</time>
      </trkpt>
      <trkpt lat="48.69306" lon="1.86693">
        <ele>175</ele>
        <time>2020-02-18T09:09:02Z</time>
      </trkpt>
      <trkpt lat="48.69307" lon="1.86686">
        <ele>175</ele>
        <time>2020-02-18T09:09:06Z</time>
      </trkpt>
      <trkpt lat="48.6931" lon="1.8668">
        <ele>175</ele>
        <time>2020-02-18T09:09:10Z</time>
      </trkpt>
      <trkpt lat="48.69312" lon="1.86672">
        <ele>175</ele>
        <time>2020-02-18T09:09:14Z</time>
      </trkpt>
      <trkpt lat="48.69316" lon="1.86665">
        <ele>175</ele>
        <time>2020-02-18T09:09:18Z</time>
      </trkpt>
      <trkpt lat="48.6932" lon="1.86663">
        <ele>175</ele>
        <time>2020-02-18T09:09:24Z</time>
      </trkpt>
      <trkpt lat="48.69325" lon="1.86664">
        <ele>175</ele>
        <time>2020-02-18T09:09:28Z</time>
      </trkpt>
      <trkpt lat="48.69331" lon="1.86662">
        <ele>175</ele>
        <time>2020-02-18T09:09:32Z</time>
      </trkpt>
      <trkpt lat="48.69336" lon="1.86661">
        <ele>175</ele>
        <time>2020-02-18T09:09:36Z</time>
      </trkpt>
      <trkpt lat="48.69341" lon="1.86661">
        <ele>175</ele>
        <time>2020-02-18T09:09:42Z</time>
      </trkpt>
      <trkpt lat="48.69345" lon="1.86654">
        <ele>175</ele>
        <time>2020-02-18T09:09:52Z</time>
      </trkpt>
      <trkpt lat="48.6935" lon="1.86654">
        <ele>174</ele>
        <time>2020-02-18T09:09:56Z</time>
      </trkpt>
      <trkpt lat="48.69356" lon="1.86653">
        <ele>174</ele>
        <time>2020-02-18T09:10:02Z</time>
      </trkpt>
      <trkpt lat="48.69363" lon="1.86653">
        <ele>174</ele>
        <time>2020-02-18T09:10:06Z</time>
      </trkpt>
      <trkpt lat="48.69368" lon="1.86652">
        <ele>174</ele>
        <time>2020-02-18T09:10:10Z</time>
      </trkpt>
      <trkpt lat="48.69374" lon="1.86651">
        <ele>174</ele>
        <time>2020-02-18T09:10:16Z</time>
      </trkpt>
      <trkpt lat="48.69381" lon="1.86648">
        <ele>174</ele>
        <time>2020-02-18T09:10:22Z</time>
      </trkpt>
      <trkpt lat="48.69387" lon="1.86645">
        <ele>174</ele>
        <time>2020-02-18T09:10:28Z</time>
      </trkpt>
      <trkpt lat="48.69395" lon="1.86643">
        <ele>174</ele>
        <time>2020-02-18T09:10:32Z</time>
      </trkpt>
      <trkpt lat="48.694" lon="1.86639">
        <ele>174</ele>
        <time>2020-02-18T09:10:36Z</time>
      </trkpt>
      <trkpt lat="48.69404" lon="1.86635">
        <ele>174</ele>
        <time>2020-02-18T09:10:40Z</time>
      </trkpt>
      <trkpt lat="48.69408" lon="1.86629">
        <ele>174</ele>
        <time>2020-02-18T09:10:46Z</time>
      </trkpt>
      <trkpt lat="48.69411" lon="1.86622">
        <ele>173</ele>
        <time>2020-02-18T09:10:52Z</time>
      </trkpt>
      <trkpt lat="48.69416" lon="1.86615">
        <ele>173</ele>
        <time>2020-02-18T09:11:00Z</time>
      </trkpt>
      <trkpt lat="48.69422" lon="1.86612">
        <ele>172</ele>
        <time>2020-02-18T09:11:06Z</time>
      </trkpt>
      <trkpt lat="48.69427" lon="1.86608">
        <ele>172</ele>
        <time>2020-02-18T09:11:12Z</time>
      </trkpt>
      <trkpt lat="48.69431" lon="1.86603">
        <ele>172</ele>
        <time>2020-02-18T09:11:18Z</time>
      </trkpt>
      <trkpt lat="48.69437" lon="1.86598">
        <ele>172</ele>
        <time>2020-02-18T09:11:26Z</time>
      </trkpt>
      <trkpt lat="48.6944" lon="1.86591">
        <ele>172</ele>
        <time>2020-02-18T09:11:32Z</time>
      </trkpt>
      <trkpt lat="48.69441" lon="1.86583">
        <ele>171</ele>
        <time>2020-02-18T09:11:38Z</time>
      </trkpt>
      <trkpt lat="48.69444" lon="1.86578">
        <ele>171</ele>
        <time>2020-02-18T09:11:42Z</time>
      </trkpt>
      <trkpt lat="48.6945" lon="1.86572">
        <ele>171</ele>
        <time>2020-02-18T09:11:46Z</time>
      </trkpt>
      <trkpt lat="48.69452" lon="1.86564">
        <ele>171</ele>
        <time>2020-02-18T09:11:54Z</time>
      </trkpt>
      <trkpt lat="48.69457" lon="1.86555">
        <ele>171</ele>
        <time>2020-02-18T09:11:58Z</time>
      </trkpt>
      <trkpt lat="48.69458" lon="1.86548">
        <ele>171</ele>
        <time>2020-02-18T09:12:02Z</time>
      </trkpt>
      <trkpt lat="48.69462" lon="1.86539">
        <ele>171</ele>
        <time>2020-02-18T09:12:06Z</time>
      </trkpt>
      <trkpt lat="48.69467" lon="1.86531">
        <ele>171</ele>
        <time>2020-02-18T09:12:10Z</time>
      </trkpt>
      <trkpt lat="48.6947" lon="1.86524">
        <ele>171</ele>
        <time>2020-02-18T09:12:14Z</time>
      </trkpt>
      <trkpt lat="48.69473" lon="1.86518">
        <ele>171</ele>
        <time>2020-02-18T09:12:18Z</time>
      </trkpt>
      <trkpt lat="48.69478" lon="1.8651">
        <ele>171</ele>
        <time>2020-02-18T09:12:22Z</time>
      </trkpt>
      <trkpt lat="48.69481" lon="1.86503">
        <ele>171</ele>
        <time>2020-02-18T09:12:28Z</time>
      </trkpt>
      <trkpt lat="48.69485" lon="1.86499">
        <ele>171</ele>
        <time>2020-02-18T09:12:32Z</time>
      </trkpt>
      <trkpt lat="48.69491" lon="1.86494">
        <ele>171</ele>
        <time>2020-02-18T09:12:38Z</time>
      </trkpt>
      <trkpt lat="48.69497" lon="1.86492">
        <ele>171</ele>
        <time>2020-02-18T09:12:42Z</time>
      </trkpt>
      <trkpt lat="48.69506" lon="1.86491">
        <ele>172</ele>
        <time>2020-02-18T09:12:46Z</time>
      </trkpt>
      <trkpt lat="48.69512" lon="1.86488">
        <ele>172</ele>
        <time>2020-02-18T09:12:50Z</time>
      </trkpt>
      <trkpt lat="48.69513" lon="1.8648">
        <ele>172</ele>
        <time>2020-02-18T09:12:58Z</time>
      </trkpt>
      <trkpt lat="48.69514" lon="1.86473">
        <ele>172</ele>
        <time>2020-02-18T09:13:10Z</time>
      </trkpt>
      <trkpt lat="48.69518" lon="1.8647">
        <ele>173</ele>
        <time>2020-02-18T09:13:16Z</time>
      </trkpt>
      <trkpt lat="48.69523" lon="1.86471">
        <ele>173</ele>
        <time>2020-02-18T09:13:22Z</time>
      </trkpt>
      <trkpt lat="48.69528" lon="1.86474">
        <ele>173</ele>
        <time>2020-02-18T09:13:26Z</time>
      </trkpt>
      <trkpt lat="48.69533" lon="1.86474">
        <ele>173</ele>
        <time>2020-02-18T09:13:30Z</time>
      </trkpt>
      <trkpt lat="48.6954" lon="1.86475">
        <ele>173</ele>
        <time>2020-02-18T09:13:34Z</time>
      </trkpt>
      <trkpt lat="48.69545" lon="1.86477">
        <ele>173</ele>
        <time>2020-02-18T09:13:38Z</time>
      </trkpt>
      <trkpt lat="48.6955" lon="1.86478">
        <ele>173</ele>
        <time>2020-02-18T09:13:42Z</time>
      </trkpt>
      <trkpt lat="48.69555" lon="1.8648">
        <ele>173</ele>
        <time>2020-02-18T09:13:46Z</time>
      </trkpt>
      <trkpt lat="48.69562" lon="1.86483">
        <ele>173</ele>
        <time>2020-02-18T09:13:52Z</time>
      </trkpt>
      <trkpt lat="48.69566" lon="1.86486">
        <ele>173</ele>
        <time>2020-02-18T09:13:58Z</time>
      </trkpt>
      <trkpt lat="48.69573" lon="1.86486">
        <ele>173</ele>
        <time>2020-02-18T09:14:04Z</time>
      </trkpt>
      <trkpt lat="48.69578" lon="1.86488">
        <ele>174</ele>
        <time>2020-02-18T09:14:10Z</time>
      </trkpt>
      <trkpt lat="48.69584" lon="1.86488">
        <ele>175</ele>
        <time>2020-02-18T09:14:18Z</time>
      </trkpt>
      <trkpt lat="48.6959" lon="1.86485">
        <ele>175</ele>
        <time>2020-02-18T09:14:26Z</time>
      </trkpt>
      <trkpt lat="48.69592" lon="1.86476">
        <ele>175</ele>
        <time>2020-02-18T09:14:32Z</time>
      </trkpt>
      <trkpt lat="48.69592" lon="1.86469">
        <ele>175</ele>
        <time>2020-02-18T09:14:36Z</time>
      </trkpt>
      <trkpt lat="48.69596" lon="1.86461">
        <ele>176</ele>
        <time>2020-02-18T09:14:42Z</time>
      </trkpt>
      <trkpt lat="48.69597" lon="1.86454">
        <ele>176</ele>
        <time>2020-02-18T09:14:46Z</time>
      </trkpt>
      <trkpt lat="48.696" lon="1.86447">
        <ele>176</ele>
        <time>2020-02-18T09:14:50Z</time>
      </trkpt>
      <trkpt lat="48.69603" lon="1.86438">
        <ele>176</ele>
        <time>2020-02-18T09:14:56Z</time>
      </trkpt>
      <trkpt lat="48.69604" lon="1.86431">
        <ele>176</ele>
        <time>2020-02-18T09:15:00Z</time>
      </trkpt>
      <trkpt lat="48.69606" lon="1.86424">
        <ele>176</ele>
        <time>2020-02-18T09:15:04Z</time>
      </trkpt>
      <trkpt lat="48.69608" lon="1.86417">
        <ele>176</ele>
        <time>2020-02-18T09:15:08Z</time>
      </trkpt>
      <trkpt lat="48.69609" lon="1.86409">
        <ele>175</ele>
        <time>2020-02-18T09:15:12Z</time>
      </trkpt>
      <trkpt lat="48.69611" lon="1.86402">
        <ele>175</ele>
        <time>2020-02-18T09:15:18Z</time>
      </trkpt>
      <trkpt lat="48.69613" lon="1.86394">
        <ele>175</ele>
        <time>2020-02-18T09:15:22Z</time>
      </trkpt>
      <trkpt lat="48.69615" lon="1.86387">
        <ele>175</ele>
        <time>2020-02-18T09:15:26Z</time>
      </trkpt>
      <trkpt lat="48.69617" lon="1.86378">
        <ele>175</ele>
        <time>2020-02-18T09:15:30Z</time>
      </trkpt>
      <trkpt lat="48.69619" lon="1.86371">
        <ele>175</ele>
        <time>2020-02-18T09:15:34Z</time>
      </trkpt>
      <trkpt lat="48.6962" lon="1.86363">
        <ele>175</ele>
        <time>2020-02-18T09:15:38Z</time>
      </trkpt>
      <trkpt lat="48.69623" lon="1.86357">
        <ele>175</ele>
        <time>2020-02-18T09:15:42Z</time>
      </trkpt>
      <trkpt lat="48.69624" lon="1.86348">
        <ele>175</ele>
        <time>2020-02-18T09:15:46Z</time>
      </trkpt>
      <trkpt lat="48.69625" lon="1.8634">
        <ele>175</ele>
        <time>2020-02-18T09:15:50Z</time>
      </trkpt>
      <trkpt lat="48.69627" lon="1.86331">
        <ele>174</ele>
        <time>2020-02-18T09:15:54Z</time>
      </trkpt>
      <trkpt lat="48.69629" lon="1.86324">
        <ele>174</ele>
        <time>2020-02-18T09:15:58Z</time>
      </trkpt>
      <trkpt lat="48.69631" lon="1.86317">
        <ele>174</ele>
        <time>2020-02-18T09:16:02Z</time>
      </trkpt>
      <trkpt lat="48.69633" lon="1.86309">
        <ele>174</ele>
        <time>2020-02-18T09:16:08Z</time>
      </trkpt>
      <trkpt lat="48.69634" lon="1.86302">
        <ele>174</ele>
        <time>2020-02-18T09:16:12Z</time>
      </trkpt>
      <trkpt lat="48.69638" lon="1.86296">
        <ele>174</ele>
        <time>2020-02-18T09:16:18Z</time>
      </trkpt>
      <trkpt lat="48.69641" lon="1.86289">
        <ele>174</ele>
        <time>2020-02-18T09:16:24Z</time>
      </trkpt>
      <trkpt lat="48.69644" lon="1.86281">
        <ele>174</ele>
        <time>2020-02-18T09:16:28Z</time>
      </trkpt>
      <trkpt lat="48.69646" lon="1.86273">
        <ele>173</ele>
        <time>2020-02-18T09:16:32Z</time>
      </trkpt>
      <trkpt lat="48.69649" lon="1.86267">
        <ele>173</ele>
        <time>2020-02-18T09:16:36Z</time>
      </trkpt>
      <trkpt lat="48.69651" lon="1.86257">
        <ele>173</ele>
        <time>2020-02-18T09:16:40Z</time>
      </trkpt>
      <trkpt lat="48.69653" lon="1.8625">
        <ele>173</ele>
        <time>2020-02-18T09:16:44Z</time>
      </trkpt>
      <trkpt lat="48.69655" lon="1.8624">
        <ele>173</ele>
        <time>2020-02-18T09:16:50Z</time>
      </trkpt>
      <trkpt lat="48.69656" lon="1.86231">
        <ele>173</ele>
        <time>2020-02-18T09:16:54Z</time>
      </trkpt>
      <trkpt lat="48.69659" lon="1.86222">
        <ele>173</ele>
        <time>2020-02-18T09:16:58Z</time>
      </trkpt>
      <trkpt lat="48.69662" lon="1.86213">
        <ele>173</ele>
        <time>2020-02-18T09:17:02Z</time>
      </trkpt>
      <trkpt lat="48.69665" lon="1.86206">
        <ele>173</ele>
        <time>2020-02-18T09:17:06Z</time>
      </trkpt>
      <trkpt lat="48.69664" lon="1.86195">
        <ele>173</ele>
        <time>2020-02-18T09:17:10Z</time>
      </trkpt>
      <trkpt lat="48.69663" lon="1.86186">
        <ele>173</ele>
        <time>2020-02-18T09:17:14Z</time>
      </trkpt>
      <trkpt lat="48.69664" lon="1.86178">
        <ele>173</ele>
        <time>2020-02-18T09:17:18Z</time>
      </trkpt>
      <trkpt lat="48.69663" lon="1.8617">
        <ele>173</ele>
        <time>2020-02-18T09:17:22Z</time>
      </trkpt>
      <trkpt lat="48.69663" lon="1.86162">
        <ele>173</ele>
        <time>2020-02-18T09:17:26Z</time>
      </trkpt>
      <trkpt lat="48.69664" lon="1.86151">
        <ele>172</ele>
        <time>2020-02-18T09:17:30Z</time>
      </trkpt>
      <trkpt lat="48.69667" lon="1.86143">
        <ele>173</ele>
        <time>2020-02-18T09:17:34Z</time>
      </trkpt>
      <trkpt lat="48.69669" lon="1.86134">
        <ele>173</ele>
        <time>2020-02-18T09:17:38Z</time>
      </trkpt>
      <trkpt lat="48.69671" lon="1.86122">
        <ele>173</ele>
        <time>2020-02-18T09:17:44Z</time>
      </trkpt>
      <trkpt lat="48.69673" lon="1.8611">
        <ele>173</ele>
        <time>2020-02-18T09:17:48Z</time>
      </trkpt>
      <trkpt lat="48.69676" lon="1.86101">
        <ele>173</ele>
        <time>2020-02-18T09:17:52Z</time>
      </trkpt>
      <trkpt lat="48.69677" lon="1.86094">
        <ele>173</ele>
        <time>2020-02-18T09:17:56Z</time>
      </trkpt>
      <trkpt lat="48.6968" lon="1.86085">
        <ele>173</ele>
        <time>2020-02-18T09:18:00Z</time>
      </trkpt>
      <trkpt lat="48.69682" lon="1.86076">
        <ele>174</ele>
        <time>2020-02-18T09:18:04Z</time>
      </trkpt>
      <trkpt lat="48.69682" lon="1.86067">
        <ele>174</ele>
        <time>2020-02-18T09:18:08Z</time>
      </trkpt>
      <trkpt lat="48.69683" lon="1.8606">
        <ele>174</ele>
        <time>2020-02-18T09:18:12Z</time>
      </trkpt>
      <trkpt lat="48.69685" lon="1.86052">
        <ele>174</ele>
        <time>2020-02-18T09:18:16Z</time>
      </trkpt>
      <trkpt lat="48.69686" lon="1.86042">
        <ele>174</ele>
        <time>2020-02-18T09:18:20Z</time>
      </trkpt>
      <trkpt lat="48.69688" lon="1.86034">
        <ele>174</ele>
        <time>2020-02-18T09:18:24Z</time>
      </trkpt>
      <trkpt lat="48.6969" lon="1.86027">
        <ele>174</ele>
        <time>2020-02-18T09:18:28Z</time>
      </trkpt>
      <trkpt lat="48.6969" lon="1.86017">
        <ele>174</ele>
        <time>2020-02-18T09:18:32Z</time>
      </trkpt>
      <trkpt lat="48.6969" lon="1.86007">
        <ele>174</ele>
        <time>2020-02-18T09:18:36Z</time>
      </trkpt>
      <trkpt lat="48.6969" lon="1.85998">
        <ele>174</ele>
        <time>2020-02-18T09:18:40Z</time>
      </trkpt>
      <trkpt lat="48.69692" lon="1.8599">
        <ele>174</ele>
        <time>2020-02-18T09:18:44Z</time>
      </trkpt>
      <trkpt lat="48.69694" lon="1.85984">
        <ele>174</ele>
        <time>2020-02-18T09:18:48Z</time>
      </trkpt>
      <trkpt lat="48.69696" lon="1.85977">
        <ele>174</ele>
        <time>2020-02-18T09:18:52Z</time>
      </trkpt>
      <trkpt lat="48.69697" lon="1.85967">
        <ele>174</ele>
        <time>2020-02-18T09:18:56Z</time>
      </trkpt>
      <trkpt lat="48.69698" lon="1.8596">
        <ele>174</ele>
        <time>2020-02-18T09:19:00Z</time>
      </trkpt>
      <trkpt lat="48.69698" lon="1.85951">
        <ele>174</ele>
        <time>2020-02-18T09:19:06Z</time>
      </trkpt>
      <trkpt lat="48.69696" lon="1.85943">
        <ele>174</ele>
        <time>2020-02-18T09:19:10Z</time>
      </trkpt>
      <trkpt lat="48.69695" lon="1.85932">
        <ele>174</ele>
        <time>2020-02-18T09:19:16Z</time>
      </trkpt>
      <trkpt lat="48.69694" lon="1.85922">
        <ele>174</ele>
        <time>2020-02-18T09:19:20Z</time>
      </trkpt>
      <trkpt lat="48.69694" lon="1.85914">
        <ele>174</ele>
        <time>2020-02-18T09:19:24Z</time>
      </trkpt>
      <trkpt lat="48.69694" lon="1.85906">
        <ele>174</ele>
        <time>2020-02-18T09:19:30Z</time>
      </trkpt>
      <trkpt lat="48.69696" lon="1.85895">
        <ele>174</ele>
        <time>2020-02-18T09:19:36Z</time>
      </trkpt>
      <trkpt lat="48.69698" lon="1.85886">
        <ele>174</ele>
        <time>2020-02-18T09:19:42Z</time>
      </trkpt>
      <trkpt lat="48.697" lon="1.85875">
        <ele>173</ele>
        <time>2020-02-18T09:19:48Z</time>
      </trkpt>
      <trkpt lat="48.697" lon="1.85868">
        <ele>173</ele>
        <time>2020-02-18T09:20:08Z</time>
      </trkpt>
      <trkpt lat="48.69705" lon="1.85863">
        <ele>173</ele>
        <time>2020-02-18T09:21:10Z</time>
      </trkpt>
      <trkpt lat="48.69704" lon="1.85856">
        <ele>173</ele>
        <time>2020-02-18T09:21:16Z</time>
      </trkpt>
      <trkpt lat="48.69699" lon="1.85851">
        <ele>173</ele>
        <time>2020-02-18T09:21:20Z</time>
      </trkpt>
      <trkpt lat="48.69695" lon="1.85848">
        <ele>173</ele>
        <time>2020-02-18T09:21:24Z</time>
      </trkpt>
      <trkpt lat="48.6969" lon="1.85847">
        <ele>173</ele>
        <time>2020-02-18T09:21:30Z</time>
      </trkpt>
      <trkpt lat="48.69685" lon="1.85844">
        <ele>173</ele>
        <time>2020-02-18T09:21:34Z</time>
      </trkpt>
      <trkpt lat="48.6968" lon="1.85841">
        <ele>173</ele>
        <time>2020-02-18T09:21:38Z</time>
      </trkpt>
      <trkpt lat="48.69675" lon="1.85839">
        <ele>173</ele>
        <time>2020-02-18T09:21:42Z</time>
      </trkpt>
      <trkpt lat="48.69671" lon="1.85835">
        <ele>172</ele>
        <time>2020-02-18T09:21:46Z</time>
      </trkpt>
      <trkpt lat="48.69664" lon="1.85833">
        <ele>172</ele>
        <time>2020-02-18T09:21:50Z</time>
      </trkpt>
      <trkpt lat="48.69658" lon="1.85829">
        <ele>172</ele>
        <time>2020-02-18T09:21:54Z</time>
      </trkpt>
      <trkpt lat="48.69652" lon="1.85824">
        <ele>172</ele>
        <time>2020-02-18T09:21:58Z</time>
      </trkpt>
      <trkpt lat="48.69647" lon="1.8582">
        <ele>172</ele>
        <time>2020-02-18T09:22:02Z</time>
      </trkpt>
      <trkpt lat="48.69641" lon="1.85817">
        <ele>172</ele>
        <time>2020-02-18T09:22:08Z</time>
      </trkpt>
      <trkpt lat="48.69635" lon="1.85814">
        <ele>172</ele>
        <time>2020-02-18T09:22:14Z</time>
      </trkpt>
      <trkpt lat="48.6963" lon="1.8581">
        <ele>172</ele>
        <time>2020-02-18T09:22:18Z</time>
      </trkpt>
      <trkpt lat="48.69625" lon="1.85808">
        <ele>172</ele>
        <time>2020-02-18T09:22:22Z</time>
      </trkpt>
      <trkpt lat="48.6962" lon="1.85805">
        <ele>172</ele>
        <time>2020-02-18T09:22:26Z</time>
      </trkpt>
      <trkpt lat="48.69613" lon="1.85801">
        <ele>172</ele>
        <time>2020-02-18T09:22:30Z</time>
      </trkpt>
      <trkpt lat="48.69606" lon="1.85798">
        <ele>172</ele>
        <time>2020-02-18T09:22:34Z</time>
      </trkpt>
      <trkpt lat="48.69602" lon="1.85796">
        <ele>172</ele>
        <time>2020-02-18T09:22:38Z</time>
      </trkpt>
      <trkpt lat="48.69597" lon="1.85794">
        <ele>172</ele>
        <time>2020-02-18T09:22:44Z</time>
      </trkpt>
      <trkpt lat="48.69589" lon="1.8579">
        <ele>172</ele>
        <time>2020-02-18T09:22:50Z</time>
      </trkpt>
      <trkpt lat="48.69583" lon="1.85786">
        <ele>172</ele>
        <time>2020-02-18T09:22:54Z</time>
      </trkpt>
      <trkpt lat="48.69578" lon="1.85783">
        <ele>172</ele>
        <time>2020-02-18T09:22:58Z</time>
      </trkpt>
      <trkpt lat="48.69572" lon="1.8578">
        <ele>172</ele>
        <time>2020-02-18T09:23:02Z</time>
      </trkpt>
      <trkpt lat="48.69568" lon="1.85778">
        <ele>172</ele>
        <time>2020-02-18T09:23:06Z</time>
      </trkpt>
      <trkpt lat="48.6956" lon="1.85774">
        <ele>172</ele>
        <time>2020-02-18T09:23:10Z</time>
      </trkpt>
      <trkpt lat="48.69555" lon="1.85773">
        <ele>172</ele>
        <time>2020-02-18T09:23:14Z</time>
      </trkpt>
      <trkpt lat="48.69551" lon="1.85771">
        <ele>172</ele>
        <time>2020-02-18T09:23:18Z</time>
      </trkpt>
      <trkpt lat="48.69546" lon="1.8577">
        <ele>172</ele>
        <time>2020-02-18T09:23:24Z</time>
      </trkpt>
      <trkpt lat="48.69541" lon="1.85767">
        <ele>172</ele>
        <time>2020-02-18T09:23:28Z</time>
      </trkpt>
      <trkpt lat="48.69535" lon="1.85763">
        <ele>172</ele>
        <time>2020-02-18T09:23:32Z</time>
      </trkpt>
      <trkpt lat="48.6953" lon="1.85761">
        <ele>172</ele>
        <time>2020-02-18T09:23:36Z</time>
      </trkpt>
      <trkpt lat="48.6953" lon="1.85768">
        <ele>172</ele>
        <time>2020-02-18T09:23:52Z</time>
      </trkpt>
      <trkpt lat="48.69533" lon="1.85775">
        <ele>172</ele>
        <time>2020-02-18T09:23:56Z</time>
      </trkpt>
      <trkpt lat="48.69536" lon="1.85782">
        <ele>172</ele>
        <time>2020-02-18T09:24:00Z</time>
      </trkpt>
      <trkpt lat="48.69539" lon="1.85791">
        <ele>172</ele>
        <time>2020-02-18T09:24:06Z</time>
      </trkpt>
      <trkpt lat="48.69539" lon="1.85798">
        <ele>172</ele>
        <time>2020-02-18T09:24:10Z</time>
      </trkpt>
      <trkpt lat="48.69543" lon="1.85804">
        <ele>172</ele>
        <time>2020-02-18T09:24:16Z</time>
      </trkpt>
      <trkpt lat="48.69547" lon="1.8581">
        <ele>172</ele>
        <time>2020-02-18T09:24:24Z</time>
      </trkpt>
      <trkpt lat="48.6955" lon="1.85816">
        <ele>172</ele>
        <time>2020-02-18T09:24:32Z</time>
      </trkpt>
      <trkpt lat="48.69552" lon="1.85823">
        <ele>172</ele>
        <time>2020-02-18T09:24:38Z</time>
      </trkpt>
      <trkpt lat="48.69552" lon="1.8583">
        <ele>172</ele>
        <time>2020-02-18T09:24:42Z</time>
      </trkpt>
      <trkpt lat="48.69552" lon="1.85838">
        <ele>172</ele>
        <time>2020-02-18T09:24:48Z</time>
      </trkpt>
      <trkpt lat="48.69551" lon="1.85848">
        <ele>172</ele>
        <time>2020-02-18T09:24:52Z</time>
      </trkpt>
      <trkpt lat="48.69551" lon="1.85855">
        <ele>172</ele>
        <time>2020-02-18T09:24:56Z</time>
      </trkpt>
      <trkpt lat="48.69551" lon="1.85863">
        <ele>172</ele>
        <time>2020-02-18T09:25:00Z</time>
      </trkpt>
      <trkpt lat="48.6955" lon="1.85875">
        <ele>172</ele>
        <time>2020-02-18T09:25:06Z</time>
      </trkpt>
      <trkpt lat="48.69549" lon="1.85883">
        <ele>172</ele>
        <time>2020-02-18T09:25:12Z</time>
      </trkpt>
      <trkpt lat="48.6955" lon="1.85892">
        <ele>172</ele>
        <time>2020-02-18T09:25:18Z</time>
      </trkpt>
      <trkpt lat="48.6955" lon="1.859">
        <ele>173</ele>
        <time>2020-02-18T09:25:24Z</time>
      </trkpt>
      <trkpt lat="48.6955" lon="1.85908">
        <ele>173</ele>
        <time>2020-02-18T09:25:28Z</time>
      </trkpt>
      <trkpt lat="48.69551" lon="1.85918">
        <ele>173</ele>
        <time>2020-02-18T09:25:34Z</time>
      </trkpt>
      <trkpt lat="48.6955" lon="1.85925">
        <ele>173</ele>
        <time>2020-02-18T09:25:38Z</time>
      </trkpt>
      <trkpt lat="48.69549" lon="1.85933">
        <ele>173</ele>
        <time>2020-02-18T09:25:42Z</time>
      </trkpt>
      <trkpt lat="48.69547" lon="1.85941">
        <ele>173</ele>
        <time>2020-02-18T09:25:48Z</time>
      </trkpt>
      <trkpt lat="48.69547" lon="1.8595">
        <ele>173</ele>
        <time>2020-02-18T09:25:52Z</time>
      </trkpt>
      <trkpt lat="48.69546" lon="1.85962">
        <ele>173</ele>
        <time>2020-02-18T09:25:58Z</time>
      </trkpt>
      <trkpt lat="48.69546" lon="1.85969">
        <ele>173</ele>
        <time>2020-02-18T09:26:02Z</time>
      </trkpt>
      <trkpt lat="48.69547" lon="1.85976">
        <ele>173</ele>
        <time>2020-02-18T09:26:06Z</time>
      </trkpt>
      <trkpt lat="48.69546" lon="1.85984">
        <ele>173</ele>
        <time>2020-02-18T09:26:12Z</time>
      </trkpt>
      <trkpt lat="48.69546" lon="1.85994">
        <ele>173</ele>
        <time>2020-02-18T09:26:18Z</time>
      </trkpt>
      <trkpt lat="48.69544" lon="1.86003">
        <ele>172</ele>
        <time>2020-02-18T09:26:22Z</time>
      </trkpt>
      <trkpt lat="48.69544" lon="1.86011">
        <ele>172</ele>
        <time>2020-02-18T09:26:26Z</time>
      </trkpt>
      <trkpt lat="48.69545" lon="1.86022">
        <ele>172</ele>
        <time>2020-02-18T09:26:30Z</time>
      </trkpt>
      <trkpt lat="48.69545" lon="1.86032">
        <ele>172</ele>
        <time>2020-02-18T09:26:34Z</time>
      </trkpt>
      <trkpt lat="48.69544" lon="1.8604">
        <ele>172</ele>
        <time>2020-02-18T09:26:38Z</time>
      </trkpt>
      <trkpt lat="48.69545" lon="1.86051">
        <ele>172</ele>
        <time>2020-02-18T09:26:42Z</time>
      </trkpt>
      <trkpt lat="48.69541" lon="1.86064">
        <ele>172</ele>
        <time>2020-02-18T09:26:46Z</time>
      </trkpt>
      <trkpt lat="48.6954" lon="1.86073">
        <ele>172</ele>
        <time>2020-02-18T09:26:48Z</time>
      </trkpt>
      <trkpt lat="48.69538" lon="1.86083">
        <ele>172</ele>
        <time>2020-02-18T09:26:52Z</time>
      </trkpt>
      <trkpt lat="48.69536" lon="1.86091">
        <ele>172</ele>
        <time>2020-02-18T09:26:56Z</time>
      </trkpt>
      <trkpt lat="48.69533" lon="1.86099">
        <ele>172</ele>
        <time>2020-02-18T09:27:02Z</time>
      </trkpt>
      <trkpt lat="48.69531" lon="1.86105">
        <ele>172</ele>
        <time>2020-02-18T09:27:04Z</time>
      </trkpt>
      <trkpt lat="48.69526" lon="1.86113">
        <ele>172</ele>
        <time>2020-02-18T09:27:08Z</time>
      </trkpt>
      <trkpt lat="48.69522" lon="1.8612">
        <ele>172</ele>
        <time>2020-02-18T09:27:12Z</time>
      </trkpt>
      <trkpt lat="48.69519" lon="1.86126">
        <ele>172</ele>
        <time>2020-02-18T09:27:18Z</time>
      </trkpt>
      <trkpt lat="48.69516" lon="1.86133">
        <ele>172</ele>
        <time>2020-02-18T09:27:24Z</time>
      </trkpt>
      <trkpt lat="48.69513" lon="1.86139">
        <ele>172</ele>
        <time>2020-02-18T09:27:28Z</time>
      </trkpt>
      <trkpt lat="48.69508" lon="1.86141">
        <ele>172</ele>
        <time>2020-02-18T09:27:34Z</time>
      </trkpt>
      <trkpt lat="48.69505" lon="1.86147">
        <ele>172</ele>
        <time>2020-02-18T09:27:40Z</time>
      </trkpt>
      <trkpt lat="48.69501" lon="1.86153">
        <ele>173</ele>
        <time>2020-02-18T09:27:44Z</time>
      </trkpt>
      <trkpt lat="48.69495" lon="1.86156">
        <ele>173</ele>
        <time>2020-02-18T09:27:50Z</time>
      </trkpt>
      <trkpt lat="48.69492" lon="1.86162">
        <ele>173</ele>
        <time>2020-02-18T09:27:54Z</time>
      </trkpt>
      <trkpt lat="48.69487" lon="1.8617">
        <ele>173</ele>
        <time>2020-02-18T09:27:58Z</time>
      </trkpt>
      <trkpt lat="48.69483" lon="1.86174">
        <ele>174</ele>
        <time>2020-02-18T09:28:00Z</time>
      </trkpt>
      <trkpt lat="48.6948" lon="1.86181">
        <ele>174</ele>
        <time>2020-02-18T09:28:04Z</time>
      </trkpt>
      <trkpt lat="48.69476" lon="1.86185">
        <ele>174</ele>
        <time>2020-02-18T09:28:08Z</time>
      </trkpt>
      <trkpt lat="48.6947" lon="1.8619">
        <ele>174</ele>
        <time>2020-02-18T09:28:12Z</time>
      </trkpt>
      <trkpt lat="48.69466" lon="1.86196">
        <ele>174</ele>
        <time>2020-02-18T09:28:16Z</time>
      </trkpt>
      <trkpt lat="48.6946" lon="1.86202">
        <ele>174</ele>
        <time>2020-02-18T09:28:20Z</time>
      </trkpt>
      <trkpt lat="48.69453" lon="1.86207">
        <ele>174</ele>
        <time>2020-02-18T09:28:24Z</time>
      </trkpt>
      <trkpt lat="48.69447" lon="1.86213">
        <ele>174</ele>
        <time>2020-02-18T09:28:28Z</time>
      </trkpt>
      <trkpt lat="48.69444" lon="1.86221">
        <ele>174</ele>
        <time>2020-02-18T09:28:32Z</time>
      </trkpt>
      <trkpt lat="48.6944" lon="1.86228">
        <ele>174</ele>
        <time>2020-02-18T09:28:36Z</time>
      </trkpt>
      <trkpt lat="48.69437" lon="1.86234">
        <ele>174</ele>
        <time>2020-02-18T09:28:44Z</time>
      </trkpt>
      <trkpt lat="48.69433" lon="1.8624">
        <ele>174</ele>
        <time>2020-02-18T09:28:50Z</time>
      </trkpt>
      <trkpt lat="48.69428" lon="1.86245">
        <ele>174</ele>
        <time>2020-02-18T09:28:54Z</time>
      </trkpt>
      <trkpt lat="48.69424" lon="1.8625">
        <ele>174</ele>
        <time>2020-02-18T09:28:58Z</time>
      </trkpt>
      <trkpt lat="48.6942" lon="1.86257">
        <ele>174</ele>
        <time>2020-02-18T09:29:02Z</time>
      </trkpt>
      <trkpt lat="48.69416" lon="1.86262">
        <ele>174</ele>
        <time>2020-02-18T09:29:06Z</time>
      </trkpt>
      <trkpt lat="48.69412" lon="1.86272">
        <ele>173</ele>
        <time>2020-02-18T09:29:10Z</time>
      </trkpt>
      <trkpt lat="48.69408" lon="1.86281">
        <ele>173</ele>
        <time>2020-02-18T09:29:14Z</time>
      </trkpt>
      <trkpt lat="48.69405" lon="1.86287">
        <ele>173</ele>
        <time>2020-02-18T09:29:18Z</time>
      </trkpt>
      <trkpt lat="48.69402" lon="1.86297">
        <ele>173</ele>
        <time>2020-02-18T09:29:26Z</time>
      </trkpt>
      <trkpt lat="48.69401" lon="1.86307">
        <ele>173</ele>
        <time>2020-02-18T09:29:30Z</time>
      </trkpt>
      <trkpt lat="48.69401" lon="1.86317">
        <ele>173</ele>
        <time>2020-02-18T09:29:36Z</time>
      </trkpt>
      <trkpt lat="48.69401" lon="1.86325">
        <ele>173</ele>
        <time>2020-02-18T09:29:40Z</time>
      </trkpt>
      <trkpt lat="48.69401" lon="1.86336">
        <ele>173</ele>
        <time>2020-02-18T09:29:44Z</time>
      </trkpt>
      <trkpt lat="48.694" lon="1.86346">
        <ele>173</ele>
        <time>2020-02-18T09:29:48Z</time>
      </trkpt>
      <trkpt lat="48.694" lon="1.86356">
        <ele>173</ele>
        <time>2020-02-18T09:29:52Z</time>
      </trkpt>
      <trkpt lat="48.694" lon="1.86365">
        <ele>173</ele>
        <time>2020-02-18T09:29:56Z</time>
      </trkpt>
      <trkpt lat="48.69402" lon="1.86375">
        <ele>173</ele>
        <time>2020-02-18T09:30:00Z</time>
      </trkpt>
      <trkpt lat="48.69402" lon="1.86386">
        <ele>173</ele>
        <time>2020-02-18T09:30:04Z</time>
      </trkpt>
      <trkpt lat="48.694" lon="1.86394">
        <ele>173</ele>
        <time>2020-02-18T09:30:10Z</time>
      </trkpt>
      <trkpt lat="48.69396" lon="1.864">
        <ele>173</ele>
        <time>2020-02-18T09:30:16Z</time>
      </trkpt>
      <trkpt lat="48.69391" lon="1.86403">
        <ele>173</ele>
        <time>2020-02-18T09:30:20Z</time>
      </trkpt>
      <trkpt lat="48.69387" lon="1.86405">
        <ele>173</ele>
        <time>2020-02-18T09:30:26Z</time>
      </trkpt>
      <trkpt lat="48.69382" lon="1.8641">
        <ele>173</ele>
        <time>2020-02-18T09:30:32Z</time>
      </trkpt>
      <trkpt lat="48.6938" lon="1.8642">
        <ele>173</ele>
        <time>2020-02-18T09:30:38Z</time>
      </trkpt>
      <trkpt lat="48.69383" lon="1.86429">
        <ele>173</ele>
        <time>2020-02-18T09:30:42Z</time>
      </trkpt>
      <trkpt lat="48.69385" lon="1.86437">
        <ele>173</ele>
        <time>2020-02-18T09:30:48Z</time>
      </trkpt>
      <trkpt lat="48.69382" lon="1.86445">
        <ele>173</ele>
        <time>2020-02-18T09:30:54Z</time>
      </trkpt>
      <trkpt lat="48.6938" lon="1.86453">
        <ele>173</ele>
        <time>2020-02-18T09:30:58Z</time>
      </trkpt>
      <trkpt lat="48.69378" lon="1.86459">
        <ele>173</ele>
        <time>2020-02-18T09:31:02Z</time>
      </trkpt>
      <trkpt lat="48.69375" lon="1.86469">
        <ele>173</ele>
        <time>2020-02-18T09:31:06Z</time>
      </trkpt>
      <trkpt lat="48.69372" lon="1.86478">
        <ele>173</ele>
        <time>2020-02-18T09:31:10Z</time>
      </trkpt>
      <trkpt lat="48.6937" lon="1.86486">
        <ele>173</ele>
        <time>2020-02-18T09:31:14Z</time>
      </trkpt>
      <trkpt lat="48.69368" lon="1.86496">
        <ele>173</ele>
        <time>2020-02-18T09:31:20Z</time>
      </trkpt>
      <trkpt lat="48.69364" lon="1.86504">
        <ele>173</ele>
        <time>2020-02-18T09:31:26Z</time>
      </trkpt>
      <trkpt lat="48.69361" lon="1.86513">
        <ele>173</ele>
        <time>2020-02-18T09:31:30Z</time>
      </trkpt>
      <trkpt lat="48.69359" lon="1.8652">
        <ele>173</ele>
        <time>2020-02-18T09:31:34Z</time>
      </trkpt>
      <trkpt lat="48.69356" lon="1.86529">
        <ele>174</ele>
        <time>2020-02-18T09:31:40Z</time>
      </trkpt>
      <trkpt lat="48.69353" lon="1.86536">
        <ele>174</ele>
        <time>2020-02-18T09:31:44Z</time>
      </trkpt>
      <trkpt lat="48.6935" lon="1.86545">
        <ele>174</ele>
        <time>2020-02-18T09:31:48Z</time>
      </trkpt>
      <trkpt lat="48.69347" lon="1.86552">
        <ele>174</ele>
        <time>2020-02-18T09:31:52Z</time>
      </trkpt>
      <trkpt lat="48.69344" lon="1.86559">
        <ele>174</ele>
        <time>2020-02-18T09:31:56Z</time>
      </trkpt>
      <trkpt lat="48.69341" lon="1.86567">
        <ele>175</ele>
        <time>2020-02-18T09:32:02Z</time>
      </trkpt>
      <trkpt lat="48.69335" lon="1.86563">
        <ele>175</ele>
        <time>2020-02-18T09:32:10Z</time>
      </trkpt>
      <trkpt lat="48.6933" lon="1.86566">
        <ele>175</ele>
        <time>2020-02-18T09:32:16Z</time>
      </trkpt>
      <trkpt lat="48.69328" lon="1.86573">
        <ele>176</ele>
        <time>2020-02-18T09:32:20Z</time>
      </trkpt>
      <trkpt lat="48.69326" lon="1.8658">
        <ele>176</ele>
        <time>2020-02-18T09:32:24Z</time>
      </trkpt>
      <trkpt lat="48.69323" lon="1.86587">
        <ele>176</ele>
        <time>2020-02-18T09:32:28Z</time>
      </trkpt>
      <trkpt lat="48.69322" lon="1.86594">
        <ele>176</ele>
        <time>2020-02-18T09:32:32Z</time>
      </trkpt>
      <trkpt lat="48.69318" lon="1.86603">
        <ele>176</ele>
        <time>2020-02-18T09:32:38Z</time>
      </trkpt>
      <trkpt lat="48.69316" lon="1.8661">
        <ele>176</ele>
        <time>2020-02-18T09:32:42Z</time>
      </trkpt>
      <trkpt lat="48.69314" lon="1.8662">
        <ele>176</ele>
        <time>2020-02-18T09:32:48Z</time>
      </trkpt>
      <trkpt lat="48.69312" lon="1.86627">
        <ele>175</ele>
        <time>2020-02-18T09:32:54Z</time>
      </trkpt>
      <trkpt lat="48.6931" lon="1.86636">
        <ele>175</ele>
        <time>2020-02-18T09:33:00Z</time>
      </trkpt>
      <trkpt lat="48.69306" lon="1.86643">
        <ele>175</ele>
        <time>2020-02-18T09:33:06Z</time>
      </trkpt>
      <trkpt lat="48.69303" lon="1.86649">
        <ele>175</ele>
        <time>2020-02-18T09:33:10Z</time>
      </trkpt>
      <trkpt lat="48.693" lon="1.86655">
        <ele>175</ele>
        <time>2020-02-18T09:33:14Z</time>
      </trkpt>
      <trkpt lat="48.69295" lon="1.86657">
        <ele>175</ele>
        <time>2020-02-18T09:33:20Z</time>
      </trkpt>
      <trkpt lat="48.6929" lon="1.8666">
        <ele>176</ele>
        <time>2020-02-18T09:33:26Z</time>
      </trkpt>
      <trkpt lat="48.69284" lon="1.86663">
        <ele>176</ele>
        <time>2020-02-18T09:33:34Z</time>
      </trkpt>
      <trkpt lat="48.69277" lon="1.86664">
        <ele>176</ele>
        <time>2020-02-18T09:33:40Z</time>
      </trkpt>
      <trkpt lat="48.69272" lon="1.86669">
        <ele>175</ele>
        <time>2020-02-18T09:33:46Z</time>
      </trkpt>
      <trkpt lat="48.69265" lon="1.86669">
        <ele>175</ele>
        <time>2020-02-18T09:33:54Z</time>
      </trkpt>
      <trkpt lat="48.6926" lon="1.86672">
        <ele>175</ele>
        <time>2020-02-18T09:34:00Z</time>
      </trkpt>
      <trkpt lat="48.69254" lon="1.86673">
        <ele>176</ele>
        <time>2020-02-18T09:34:06Z</time>
      </trkpt>
      <trkpt lat="48.6925" lon="1.86674">
        <ele>176</ele>
        <time>2020-02-18T09:34:10Z</time>
      </trkpt>
      <trkpt lat="48.69245" lon="1.86676">
        <ele>176</ele>
        <time>2020-02-18T09:34:16Z</time>
      </trkpt>
      <trkpt lat="48.6924" lon="1.8668">
        <ele>176</ele>
        <time>2020-02-18T09:34:22Z</time>
      </trkpt>
      <trkpt lat="48.69235" lon="1.86682">
        <ele>176</ele>
        <time>2020-02-18T09:34:26Z</time>
      </trkpt>
      <trkpt lat="48.69229" lon="1.86683">
        <ele>176</ele>
        <time>2020-02-18T09:34:30Z</time>
      </trkpt>
      <trkpt lat="48.69223" lon="1.86684">
        <ele>175</ele>
        <time>2020-02-18T09:34:36Z</time>
      </trkpt>
      <trkpt lat="48.69216" lon="1.86685">
        <ele>175</ele>
        <time>2020-02-18T09:34:44Z</time>
      </trkpt>
      <trkpt lat="48.69211" lon="1.86687">
        <ele>175</ele>
        <time>2020-02-18T09:34:48Z</time>
      </trkpt>
      <trkpt lat="48.69205" lon="1.8669">
        <ele>175</ele>
        <time>2020-02-18T09:34:56Z</time>
      </trkpt>
      <trkpt lat="48.69199" lon="1.86692">
        <ele>175</ele>
        <time>2020-02-18T09:35:06Z</time>
      </trkpt>
      <trkpt lat="48.69194" lon="1.86694">
        <ele>175</ele>
        <time>2020-02-18T09:35:12Z</time>
      </trkpt>
      <trkpt lat="48.69188" lon="1.86695">
        <ele>175</ele>
        <time>2020-02-18T09:35:18Z</time>
      </trkpt>
      <trkpt lat="48.69184" lon="1.867">
        <ele>175</ele>
        <time>2020-02-18T09:35:22Z</time>
      </trkpt>
      <trkpt lat="48.69178" lon="1.86702">
        <ele>175</ele>
        <time>2020-02-18T09:35:26Z</time>
      </trkpt>
      <trkpt lat="48.69173" lon="1.86701">
        <ele>175</ele>
        <time>2020-02-18T09:35:30Z</time>
      </trkpt>
      <trkpt lat="48.69165" lon="1.86703">
        <ele>175</ele>
        <time>2020-02-18T09:35:36Z</time>
      </trkpt>
      <trkpt lat="48.69161" lon="1.86706">
        <ele>175</ele>
        <time>2020-02-18T09:35:38Z</time>
      </trkpt>
      <trkpt lat="48.69155" lon="1.86708">
        <ele>175</ele>
        <time>2020-02-18T09:35:44Z</time>
      </trkpt>
      <trkpt lat="48.69149" lon="1.86711">
        <ele>175</ele>
        <time>2020-02-18T09:35:48Z</time>
      </trkpt>
      <trkpt lat="48.69143" lon="1.86714">
        <ele>175</ele>
        <time>2020-02-18T09:35:54Z</time>
      </trkpt>
      <trkpt lat="48.69135" lon="1.86717">
        <ele>175</ele>
        <time>2020-02-18T09:35:58Z</time>
      </trkpt>
      <trkpt lat="48.69129" lon="1.86718">
        <ele>174</ele>
        <time>2020-02-18T09:36:02Z</time>
      </trkpt>
      <trkpt lat="48.69123" lon="1.86721">
        <ele>174</ele>
        <time>2020-02-18T09:36:06Z</time>
      </trkpt>
      <trkpt lat="48.69117" lon="1.86723">
        <ele>174</ele>
        <time>2020-02-18T09:36:10Z</time>
      </trkpt>
      <trkpt lat="48.6911" lon="1.86723">
        <ele>174</ele>
        <time>2020-02-18T09:36:14Z</time>
      </trkpt>
      <trkpt lat="48.69104" lon="1.86726">
        <ele>174</ele>
        <time>2020-02-18T09:36:20Z</time>
      </trkpt>
      <trkpt lat="48.69099" lon="1.86727">
        <ele>174</ele>
        <time>2020-02-18T09:36:24Z</time>
      </trkpt>
      <trkpt lat="48.69091" lon="1.86729">
        <ele>174</ele>
        <time>2020-02-18T09:36:28Z</time>
      </trkpt>
      <trkpt lat="48.69085" lon="1.86731">
        <ele>174</ele>
        <time>2020-02-18T09:36:32Z</time>
      </trkpt>
      <trkpt lat="48.69081" lon="1.86731">
        <ele>174</ele>
        <time>2020-02-18T09:36:36Z</time>
      </trkpt>
      <trkpt lat="48.69075" lon="1.86733">
        <ele>174</ele>
        <time>2020-02-18T09:36:40Z</time>
      </trkpt>
      <trkpt lat="48.69067" lon="1.86735">
        <ele>174</ele>
        <time>2020-02-18T09:36:44Z</time>
      </trkpt>
      <trkpt lat="48.69061" lon="1.86736">
        <ele>174</ele>
        <time>2020-02-18T09:36:46Z</time>
      </trkpt>
      <trkpt lat="48.69056" lon="1.86738">
        <ele>174</ele>
        <time>2020-02-18T09:36:50Z</time>
      </trkpt>
      <trkpt lat="48.69051" lon="1.86739">
        <ele>174</ele>
        <time>2020-02-18T09:36:54Z</time>
      </trkpt>
      <trkpt lat="48.69046" lon="1.86741">
        <ele>174</ele>
        <time>2020-02-18T09:36:58Z</time>
      </trkpt>
      <trkpt lat="48.69039" lon="1.86745">
        <ele>174</ele>
        <time>2020-02-18T09:37:02Z</time>
      </trkpt>
      <trkpt lat="48.69035" lon="1.86746">
        <ele>174</ele>
        <time>2020-02-18T09:37:08Z</time>
      </trkpt>
      <trkpt lat="48.69029" lon="1.86751">
        <ele>173</ele>
        <time>2020-02-18T09:37:14Z</time>
      </trkpt>
      <trkpt lat="48.69022" lon="1.8675">
        <ele>173</ele>
        <time>2020-02-18T09:37:18Z</time>
      </trkpt>
      <trkpt lat="48.69016" lon="1.86753">
        <ele>173</ele>
        <time>2020-02-18T09:37:24Z</time>
      </trkpt>
      <trkpt lat="48.69011" lon="1.86755">
        <ele>174</ele>
        <time>2020-02-18T09:37:28Z</time>
      </trkpt>
      <trkpt lat="48.69006" lon="1.86757">
        <ele>174</ele>
        <time>2020-02-18T09:37:32Z</time>
      </trkpt>
      <trkpt lat="48.69" lon="1.86757">
        <ele>174</ele>
        <time>2020-02-18T09:37:36Z</time>
      </trkpt>
      <trkpt lat="48.68996" lon="1.86759">
        <ele>174</ele>
        <time>2020-02-18T09:37:40Z</time>
      </trkpt>
      <trkpt lat="48.6899" lon="1.86762">
        <ele>173</ele>
        <time>2020-02-18T09:37:48Z</time>
      </trkpt>
      <trkpt lat="48.68984" lon="1.86766">
        <ele>173</ele>
        <time>2020-02-18T09:37:52Z</time>
      </trkpt>
      <trkpt lat="48.6898" lon="1.86767">
        <ele>173</ele>
        <time>2020-02-18T09:37:56Z</time>
      </trkpt>
      <trkpt lat="48.68973" lon="1.86771">
        <ele>173</ele>
        <time>2020-02-18T09:38:00Z</time>
      </trkpt>
      <trkpt lat="48.68967" lon="1.86774">
        <ele>173</ele>
        <time>2020-02-18T09:38:06Z</time>
      </trkpt>
      <trkpt lat="48.68962" lon="1.86776">
        <ele>173</ele>
        <time>2020-02-18T09:38:10Z</time>
      </trkpt>
      <trkpt lat="48.68957" lon="1.86774">
        <ele>173</ele>
        <time>2020-02-18T09:38:16Z</time>
      </trkpt>
      <trkpt lat="48.68952" lon="1.8677">
        <ele>173</ele>
        <time>2020-02-18T09:38:20Z</time>
      </trkpt>
      <trkpt lat="48.68947" lon="1.86766">
        <ele>173</ele>
        <time>2020-02-18T09:38:28Z</time>
      </trkpt>
      <trkpt lat="48.68944" lon="1.8676">
        <ele>173</ele>
        <time>2020-02-18T09:38:30Z</time>
      </trkpt>
      <trkpt lat="48.68942" lon="1.86753">
        <ele>173</ele>
        <time>2020-02-18T09:38:34Z</time>
      </trkpt>
      <trkpt lat="48.68939" lon="1.86744">
        <ele>174</ele>
        <time>2020-02-18T09:38:40Z</time>
      </trkpt>
      <trkpt lat="48.68935" lon="1.86737">
        <ele>174</ele>
        <time>2020-02-18T09:38:44Z</time>
      </trkpt>
      <trkpt lat="48.68929" lon="1.86728">
        <ele>174</ele>
        <time>2020-02-18T09:38:48Z</time>
      </trkpt>
      <trkpt lat="48.68924" lon="1.86719">
        <ele>174</ele>
        <time>2020-02-18T09:38:52Z</time>
      </trkpt>
      <trkpt lat="48.68922" lon="1.86713">
        <ele>174</ele>
        <time>2020-02-18T09:38:54Z</time>
      </trkpt>
      <trkpt lat="48.6892" lon="1.86701">
        <ele>174</ele>
        <time>2020-02-18T09:39:00Z</time>
      </trkpt>
      <trkpt lat="48.68917" lon="1.86691">
        <ele>174</ele>
        <time>2020-02-18T09:39:06Z</time>
      </trkpt>
      <trkpt lat="48.68917" lon="1.86681">
        <ele>174</ele>
        <time>2020-02-18T09:39:12Z</time>
      </trkpt>
      <trkpt lat="48.68919" lon="1.86671">
        <ele>174</ele>
        <time>2020-02-18T09:39:18Z</time>
      </trkpt>
      <trkpt lat="48.68922" lon="1.86663">
        <ele>174</ele>
        <time>2020-02-18T09:39:24Z</time>
      </trkpt>
      <trkpt lat="48.68923" lon="1.86655">
        <ele>175</ele>
        <time>2020-02-18T09:39:28Z</time>
      </trkpt>
      <trkpt lat="48.68925" lon="1.86647">
        <ele>175</ele>
        <time>2020-02-18T09:39:34Z</time>
      </trkpt>
      <trkpt lat="48.68926" lon="1.8664">
        <ele>175</ele>
        <time>2020-02-18T09:39:38Z</time>
      </trkpt>
      <trkpt lat="48.68927" lon="1.86632">
        <ele>175</ele>
        <time>2020-02-18T09:39:42Z</time>
      </trkpt>
      <trkpt lat="48.68927" lon="1.86625">
        <ele>175</ele>
        <time>2020-02-18T09:39:46Z</time>
      </trkpt>
      <trkpt lat="48.68928" lon="1.86614">
        <ele>175</ele>
        <time>2020-02-18T09:39:50Z</time>
      </trkpt>
      <trkpt lat="48.68928" lon="1.86605">
        <ele>175</ele>
        <time>2020-02-18T09:39:54Z</time>
      </trkpt>
      <trkpt lat="48.68929" lon="1.86597">
        <ele>175</ele>
        <time>2020-02-18T09:39:58Z</time>
      </trkpt>
      <trkpt lat="48.68929" lon="1.86586">
        <ele>175</ele>
        <time>2020-02-18T09:40:06Z</time>
      </trkpt>
      <trkpt lat="48.68929" lon="1.86574">
        <ele>175</ele>
        <time>2020-02-18T09:40:10Z</time>
      </trkpt>
      <trkpt lat="48.68931" lon="1.86564">
        <ele>175</ele>
        <time>2020-02-18T09:40:16Z</time>
      </trkpt>
      <trkpt lat="48.68934" lon="1.86554">
        <ele>175</ele>
        <time>2020-02-18T09:40:22Z</time>
      </trkpt>
      <trkpt lat="48.68934" lon="1.86545">
        <ele>175</ele>
        <time>2020-02-18T09:40:26Z</time>
      </trkpt>
      <trkpt lat="48.68934" lon="1.86538">
        <ele>175</ele>
        <time>2020-02-18T09:40:30Z</time>
      </trkpt>
      <trkpt lat="48.68936" lon="1.86529">
        <ele>175</ele>
        <time>2020-02-18T09:40:36Z</time>
      </trkpt>
      <trkpt lat="48.68938" lon="1.86522">
        <ele>175</ele>
        <time>2020-02-18T09:40:40Z</time>
      </trkpt>
      <trkpt lat="48.68939" lon="1.86515">
        <ele>175</ele>
        <time>2020-02-18T09:40:44Z</time>
      </trkpt>
      <trkpt lat="48.68939" lon="1.86506">
        <ele>175</ele>
        <time>2020-02-18T09:40:48Z</time>
      </trkpt>
      <trkpt lat="48.68938" lon="1.86497">
        <ele>175</ele>
        <time>2020-02-18T09:40:52Z</time>
      </trkpt>
      <trkpt lat="48.6894" lon="1.86488">
        <ele>175</ele>
        <time>2020-02-18T09:40:58Z</time>
      </trkpt>
      <trkpt lat="48.68943" lon="1.86479">
        <ele>175</ele>
        <time>2020-02-18T09:41:04Z</time>
      </trkpt>
      <trkpt lat="48.68944" lon="1.86469">
        <ele>175</ele>
        <time>2020-02-18T09:41:10Z</time>
      </trkpt>
      <trkpt lat="48.68945" lon="1.86461">
        <ele>175</ele>
        <time>2020-02-18T09:41:14Z</time>
      </trkpt>
      <trkpt lat="48.68948" lon="1.86451">
        <ele>176</ele>
        <time>2020-02-18T09:41:20Z</time>
      </trkpt>
      <trkpt lat="48.68948" lon="1.86439">
        <ele>176</ele>
        <time>2020-02-18T09:41:26Z</time>
      </trkpt>
      <trkpt lat="48.68949" lon="1.86427">
        <ele>176</ele>
        <time>2020-02-18T09:41:32Z</time>
      </trkpt>
      <trkpt lat="48.6895" lon="1.86418">
        <ele>176</ele>
        <time>2020-02-18T09:41:36Z</time>
      </trkpt>
      <trkpt lat="48.68951" lon="1.86407">
        <ele>175</ele>
        <time>2020-02-18T09:41:40Z</time>
      </trkpt>
      <trkpt lat="48.68951" lon="1.86398">
        <ele>175</ele>
        <time>2020-02-18T09:41:44Z</time>
      </trkpt>
      <trkpt lat="48.68952" lon="1.86388">
        <ele>175</ele>
        <time>2020-02-18T09:41:48Z</time>
      </trkpt>
      <trkpt lat="48.68953" lon="1.8638">
        <ele>175</ele>
        <time>2020-02-18T09:41:52Z</time>
      </trkpt>
      <trkpt lat="48.68954" lon="1.86372">
        <ele>175</ele>
        <time>2020-02-18T09:41:56Z</time>
      </trkpt>
      <trkpt lat="48.68955" lon="1.86364">
        <ele>175</ele>
        <time>2020-02-18T09:42:00Z</time>
      </trkpt>
      <trkpt lat="48.68957" lon="1.86357">
        <ele>175</ele>
        <time>2020-02-18T09:42:04Z</time>
      </trkpt>
      <trkpt lat="48.68958" lon="1.86349">
        <ele>175</ele>
        <time>2020-02-18T09:42:08Z</time>
      </trkpt>
      <trkpt lat="48.68959" lon="1.8634">
        <ele>174</ele>
        <time>2020-02-18T09:42:14Z</time>
      </trkpt>
      <trkpt lat="48.68959" lon="1.86332">
        <ele>174</ele>
        <time>2020-02-18T09:42:18Z</time>
      </trkpt>
      <trkpt lat="48.6896" lon="1.86324">
        <ele>175</ele>
        <time>2020-02-18T09:42:22Z</time>
      </trkpt>
      <trkpt lat="48.68958" lon="1.86317">
        <ele>175</ele>
        <time>2020-02-18T09:43:10Z</time>
      </trkpt>
      <trkpt lat="48.68959" lon="1.86308">
        <ele>175</ele>
        <time>2020-02-18T09:44:04Z</time>
      </trkpt>
      <trkpt lat="48.68954" lon="1.86311">
        <ele>175</ele>
        <time>2020-02-18T09:44:10Z</time>
      </trkpt>
      <trkpt lat="48.68949" lon="1.86316">
        <ele>175</ele>
        <time>2020-02-18T09:44:16Z</time>
      </trkpt>
      <trkpt lat="48.68945" lon="1.86319">
        <ele>174</ele>
        <time>2020-02-18T09:44:20Z</time>
      </trkpt>
      <trkpt lat="48.68939" lon="1.86323">
        <ele>174</ele>
        <time>2020-02-18T09:44:26Z</time>
      </trkpt>
      <trkpt lat="48.68935" lon="1.86327">
        <ele>174</ele>
        <time>2020-02-18T09:44:32Z</time>
      </trkpt>
      <trkpt lat="48.68929" lon="1.86331">
        <ele>174</ele>
        <time>2020-02-18T09:44:36Z</time>
      </trkpt>
      <trkpt lat="48.68925" lon="1.86334">
        <ele>174</ele>
        <time>2020-02-18T09:44:40Z</time>
      </trkpt>
      <trkpt lat="48.6892" lon="1.86336">
        <ele>174</ele>
        <time>2020-02-18T09:44:44Z</time>
      </trkpt>
      <trkpt lat="48.68915" lon="1.86338">
        <ele>174</ele>
        <time>2020-02-18T09:44:48Z</time>
      </trkpt>
      <trkpt lat="48.6891" lon="1.86342">
        <ele>174</ele>
        <time>2020-02-18T09:44:52Z</time>
      </trkpt>
      <trkpt lat="48.68903" lon="1.86346">
        <ele>174</ele>
        <time>2020-02-18T09:44:58Z</time>
      </trkpt>
      <trkpt lat="48.68898" lon="1.86349">
        <ele>174</ele>
        <time>2020-02-18T09:45:02Z</time>
      </trkpt>
      <trkpt lat="48.68894" lon="1.86353">
        <ele>174</ele>
        <time>2020-02-18T09:45:06Z</time>
      </trkpt>
      <trkpt lat="48.6889" lon="1.86357">
        <ele>174</ele>
        <time>2020-02-18T09:45:10Z</time>
      </trkpt>
      <trkpt lat="48.68886" lon="1.86361">
        <ele>174</ele>
        <time>2020-02-18T09:45:14Z</time>
      </trkpt>
      <trkpt lat="48.6888" lon="1.86361">
        <ele>174</ele>
        <time>2020-02-18T09:45:18Z</time>
      </trkpt>
      <trkpt lat="48.68875" lon="1.86359">
        <ele>174</ele>
        <time>2020-02-18T09:45:22Z</time>
      </trkpt>
      <trkpt lat="48.6887" lon="1.86361">
        <ele>174</ele>
        <time>2020-02-18T09:45:42Z</time>
      </trkpt>
      <trkpt lat="48.68864" lon="1.86362">
        <ele>174</ele>
        <time>2020-02-18T09:45:52Z</time>
      </trkpt>
      <trkpt lat="48.68859" lon="1.86361">
        <ele>174</ele>
        <time>2020-02-18T09:45:58Z</time>
      </trkpt>
      <trkpt lat="48.68854" lon="1.86359">
        <ele>174</ele>
        <time>2020-02-18T09:46:04Z</time>
      </trkpt>
      <trkpt lat="48.6885" lon="1.86356">
        <ele>174</ele>
        <time>2020-02-18T09:46:08Z</time>
      </trkpt>
      <trkpt lat="48.68845" lon="1.86352">
        <ele>174</ele>
        <time>2020-02-18T09:46:12Z</time>
      </trkpt>
      <trkpt lat="48.68841" lon="1.86348">
        <ele>174</ele>
        <time>2020-02-18T09:46:16Z</time>
      </trkpt>
      <trkpt lat="48.68836" lon="1.86343">
        <ele>173</ele>
        <time>2020-02-18T09:46:20Z</time>
      </trkpt>
      <trkpt lat="48.68832" lon="1.86341">
        <ele>173</ele>
        <time>2020-02-18T09:46:24Z</time>
      </trkpt>
      <trkpt lat="48.68826" lon="1.86338">
        <ele>173</ele>
        <time>2020-02-18T09:46:28Z</time>
      </trkpt>
      <trkpt lat="48.68821" lon="1.86335">
        <ele>173</ele>
        <time>2020-02-18T09:46:32Z</time>
      </trkpt>
      <trkpt lat="48.68816" lon="1.86333">
        <ele>172</ele>
        <time>2020-02-18T09:46:36Z</time>
      </trkpt>
      <trkpt lat="48.68812" lon="1.86329">
        <ele>172</ele>
        <time>2020-02-18T09:46:40Z</time>
      </trkpt>
      <trkpt lat="48.68807" lon="1.86327">
        <ele>172</ele>
        <time>2020-02-18T09:46:44Z</time>
      </trkpt>
      <trkpt lat="48.68801" lon="1.86324">
        <ele>172</ele>
        <time>2020-02-18T09:46:48Z</time>
      </trkpt>
      <trkpt lat="48.68796" lon="1.86322">
        <ele>172</ele>
        <time>2020-02-18T09:46:52Z</time>
      </trkpt>
      <trkpt lat="48.68792" lon="1.86319">
        <ele>172</ele>
        <time>2020-02-18T09:46:56Z</time>
      </trkpt>
      <trkpt lat="48.68787" lon="1.86312">
        <ele>172</ele>
        <time>2020-02-18T09:47:02Z</time>
      </trkpt>
      <trkpt lat="48.68782" lon="1.86307">
        <ele>172</ele>
        <time>2020-02-18T09:47:06Z</time>
      </trkpt>
      <trkpt lat="48.68775" lon="1.86303">
        <ele>172</ele>
        <time>2020-02-18T09:47:10Z</time>
      </trkpt>
      <trkpt lat="48.6877" lon="1.86302">
        <ele>171</ele>
        <time>2020-02-18T09:47:14Z</time>
      </trkpt>
      <trkpt lat="48.68765" lon="1.863">
        <ele>171</ele>
        <time>2020-02-18T09:47:18Z</time>
      </trkpt>
      <trkpt lat="48.6876" lon="1.86297">
        <ele>171</ele>
        <time>2020-02-18T09:47:22Z</time>
      </trkpt>
      <trkpt lat="48.68755" lon="1.86293">
        <ele>171</ele>
        <time>2020-02-18T09:47:26Z</time>
      </trkpt>
      <trkpt lat="48.68749" lon="1.86289">
        <ele>171</ele>
        <time>2020-02-18T09:47:30Z</time>
      </trkpt>
      <trkpt lat="48.68743" lon="1.86284">
        <ele>171</ele>
        <time>2020-02-18T09:47:34Z</time>
      </trkpt>
      <trkpt lat="48.68738" lon="1.86283">
        <ele>171</ele>
        <time>2020-02-18T09:47:38Z</time>
      </trkpt>
      <trkpt lat="48.68733" lon="1.86279">
        <ele>171</ele>
        <time>2020-02-18T09:47:42Z</time>
      </trkpt>
      <trkpt lat="48.68729" lon="1.86274">
        <ele>171</ele>
        <time>2020-02-18T09:47:46Z</time>
      </trkpt>
      <trkpt lat="48.68724" lon="1.86271">
        <ele>171</ele>
        <time>2020-02-18T09:47:50Z</time>
      </trkpt>
      <trkpt lat="48.68719" lon="1.86267">
        <ele>171</ele>
        <time>2020-02-18T09:47:54Z</time>
      </trkpt>
      <trkpt lat="48.68714" lon="1.86263">
        <ele>171</ele>
        <time>2020-02-18T09:47:58Z</time>
      </trkpt>
      <trkpt lat="48.68709" lon="1.86261">
        <ele>171</ele>
        <time>2020-02-18T09:48:02Z</time>
      </trkpt>
      <trkpt lat="48.68704" lon="1.86257">
        <ele>172</ele>
        <time>2020-02-18T09:48:06Z</time>
      </trkpt>
      <trkpt lat="48.68699" lon="1.86254">
        <ele>172</ele>
        <time>2020-02-18T09:48:10Z</time>
      </trkpt>
      <trkpt lat="48.68694" lon="1.8625">
        <ele>172</ele>
        <time>2020-02-18T09:48:14Z</time>
      </trkpt>
      <trkpt lat="48.68689" lon="1.86248">
        <ele>172</ele>
        <time>2020-02-18T09:48:18Z</time>
      </trkpt>
      <trkpt lat="48.68686" lon="1.86243">
        <ele>172</ele>
        <time>2020-02-18T09:48:22Z</time>
      </trkpt>
      <trkpt lat="48.68681" lon="1.86239">
        <ele>173</ele>
        <time>2020-02-18T09:48:26Z</time>
      </trkpt>
      <trkpt lat="48.68675" lon="1.86238">
        <ele>173</ele>
        <time>2020-02-18T09:48:34Z</time>
      </trkpt>
      <trkpt lat="48.68668" lon="1.86235">
        <ele>173</ele>
        <time>2020-02-18T09:48:42Z</time>
      </trkpt>
      <trkpt lat="48.68663" lon="1.8623">
        <ele>174</ele>
        <time>2020-02-18T09:48:48Z</time>
      </trkpt>
      <trkpt lat="48.68658" lon="1.86228">
        <ele>174</ele>
        <time>2020-02-18T09:48:52Z</time>
      </trkpt>
      <trkpt lat="48.68654" lon="1.86222">
        <ele>174</ele>
        <time>2020-02-18T09:48:54Z</time>
      </trkpt>
      <trkpt lat="48.6865" lon="1.86219">
        <ele>175</ele>
        <time>2020-02-18T09:48:56Z</time>
      </trkpt>
      <trkpt lat="48.68645" lon="1.86217">
        <ele>175</ele>
        <time>2020-02-18T09:49:02Z</time>
      </trkpt>
      <trkpt lat="48.68637" lon="1.86207">
        <ele>175</ele>
        <time>2020-02-18T09:49:08Z</time>
      </trkpt>
      <trkpt lat="48.68632" lon="1.86199">
        <ele>175</ele>
        <time>2020-02-18T09:49:12Z</time>
      </trkpt>
      <trkpt lat="48.68629" lon="1.86193">
        <ele>175</ele>
        <time>2020-02-18T09:49:14Z</time>
      </trkpt>
      <trkpt lat="48.68625" lon="1.86189">
        <ele>175</ele>
        <time>2020-02-18T09:49:18Z</time>
      </trkpt>
      <trkpt lat="48.68618" lon="1.86182">
        <ele>175</ele>
        <time>2020-02-18T09:49:22Z</time>
      </trkpt>
      <trkpt lat="48.68613" lon="1.86183">
        <ele>175</ele>
        <time>2020-02-18T09:49:28Z</time>
      </trkpt>
      <trkpt lat="48.68608" lon="1.86185">
        <ele>175</ele>
        <time>2020-02-18T09:49:34Z</time>
      </trkpt>
      <trkpt lat="48.68606" lon="1.86179">
        <ele>175</ele>
        <time>2020-02-18T09:49:36Z</time>
      </trkpt>
      <trkpt lat="48.68603" lon="1.86173">
        <ele>175</ele>
        <time>2020-02-18T09:49:38Z</time>
      </trkpt>
      <trkpt lat="48.68597" lon="1.86165">
        <ele>174</ele>
        <time>2020-02-18T09:49:42Z</time>
      </trkpt>
      <trkpt lat="48.68592" lon="1.86158">
        <ele>174</ele>
        <time>2020-02-18T09:49:46Z</time>
      </trkpt>
      <trkpt lat="48.68588" lon="1.86153">
        <ele>174</ele>
        <time>2020-02-18T09:49:50Z</time>
      </trkpt>
      <trkpt lat="48.68583" lon="1.86152">
        <ele>174</ele>
        <time>2020-02-18T09:49:54Z</time>
      </trkpt>
      <trkpt lat="48.68578" lon="1.86153">
        <ele>174</ele>
        <time>2020-02-18T09:50:00Z</time>
      </trkpt>
      <trkpt lat="48.68571" lon="1.8614">
        <ele>174</ele>
        <time>2020-02-18T09:50:04Z</time>
      </trkpt>
      <trkpt lat="48.68568" lon="1.86132">
        <ele>174</ele>
        <time>2020-02-18T09:50:06Z</time>
      </trkpt>
      <trkpt lat="48.68564" lon="1.86126">
        <ele>174</ele>
        <time>2020-02-18T09:50:08Z</time>
      </trkpt>
      <trkpt lat="48.6856" lon="1.86119">
        <ele>173</ele>
        <time>2020-02-18T09:50:10Z</time>
      </trkpt>
      <trkpt lat="48.68556" lon="1.86113">
        <ele>173</ele>
        <time>2020-02-18T09:50:12Z</time>
      </trkpt>
      <trkpt lat="48.6855" lon="1.86106">
        <ele>173</ele>
        <time>2020-02-18T09:50:16Z</time>
      </trkpt>
      <trkpt lat="48.68545" lon="1.861">
        <ele>173</ele>
        <time>2020-02-18T09:50:20Z</time>
      </trkpt>
      <trkpt lat="48.6854" lon="1.86095">
        <ele>173</ele>
        <time>2020-02-18T09:50:24Z</time>
      </trkpt>
      <trkpt lat="48.68535" lon="1.8609">
        <ele>173</ele>
        <time>2020-02-18T09:50:28Z</time>
      </trkpt>
      <trkpt lat="48.68531" lon="1.86084">
        <ele>173</ele>
        <time>2020-02-18T09:50:32Z</time>
      </trkpt>
      <trkpt lat="48.68526" lon="1.8608">
        <ele>171</ele>
        <time>2020-02-18T09:50:36Z</time>
      </trkpt>
      <trkpt lat="48.68521" lon="1.86076">
        <ele>172</ele>
        <time>2020-02-18T09:50:40Z</time>
      </trkpt>
      <trkpt lat="48.68516" lon="1.86072">
        <ele>172</ele>
        <time>2020-02-18T09:50:44Z</time>
      </trkpt>
      <trkpt lat="48.68512" lon="1.8607">
        <ele>172</ele>
        <time>2020-02-18T09:50:48Z</time>
      </trkpt>
      <trkpt lat="48.68507" lon="1.86064">
        <ele>172</ele>
        <time>2020-02-18T09:50:52Z</time>
      </trkpt>
      <trkpt lat="48.68501" lon="1.86057">
        <ele>171</ele>
        <time>2020-02-18T09:50:56Z</time>
      </trkpt>
      <trkpt lat="48.68496" lon="1.8605">
        <ele>171</ele>
        <time>2020-02-18T09:51:00Z</time>
      </trkpt>
      <trkpt lat="48.68491" lon="1.86043">
        <ele>171</ele>
        <time>2020-02-18T09:51:04Z</time>
      </trkpt>
      <trkpt lat="48.68485" lon="1.86037">
        <ele>171</ele>
        <time>2020-02-18T09:51:08Z</time>
      </trkpt>
      <trkpt lat="48.68479" lon="1.86029">
        <ele>171</ele>
        <time>2020-02-18T09:51:12Z</time>
      </trkpt>
      <trkpt lat="48.68473" lon="1.86025">
        <ele>171</ele>
        <time>2020-02-18T09:51:16Z</time>
      </trkpt>
      <trkpt lat="48.68468" lon="1.8602">
        <ele>171</ele>
        <time>2020-02-18T09:51:20Z</time>
      </trkpt>
      <trkpt lat="48.68461" lon="1.86015">
        <ele>171</ele>
        <time>2020-02-18T09:51:26Z</time>
      </trkpt>
      <trkpt lat="48.68456" lon="1.86011">
        <ele>171</ele>
        <time>2020-02-18T09:51:30Z</time>
      </trkpt>
      <trkpt lat="48.68451" lon="1.86006">
        <ele>171</ele>
        <time>2020-02-18T09:51:34Z</time>
      </trkpt>
      <trkpt lat="48.68445" lon="1.86">
        <ele>171</ele>
        <time>2020-02-18T09:51:38Z</time>
      </trkpt>
      <trkpt lat="48.6844" lon="1.85995">
        <ele>172</ele>
        <time>2020-02-18T09:51:42Z</time>
      </trkpt>
      <trkpt lat="48.68434" lon="1.85989">
        <ele>172</ele>
        <time>2020-02-18T09:51:46Z</time>
      </trkpt>
      <trkpt lat="48.6843" lon="1.85984">
        <ele>172</ele>
        <time>2020-02-18T09:51:50Z</time>
      </trkpt>
      <trkpt lat="48.68424" lon="1.85978">
        <ele>172</ele>
        <time>2020-02-18T09:51:54Z</time>
      </trkpt>
      <trkpt lat="48.68419" lon="1.85974">
        <ele>172</ele>
        <time>2020-02-18T09:51:58Z</time>
      </trkpt>
      <trkpt lat="48.68415" lon="1.8597">
        <ele>174</ele>
        <time>2020-02-18T09:52:02Z</time>
      </trkpt>
      <trkpt lat="48.68409" lon="1.85964">
        <ele>174</ele>
        <time>2020-02-18T09:52:08Z</time>
      </trkpt>
      <trkpt lat="48.68403" lon="1.85958">
        <ele>174</ele>
        <time>2020-02-18T09:52:12Z</time>
      </trkpt>
      <trkpt lat="48.68399" lon="1.85954">
        <ele>174</ele>
        <time>2020-02-18T09:52:16Z</time>
      </trkpt>
      <trkpt lat="48.68394" lon="1.85951">
        <ele>174</ele>
        <time>2020-02-18T09:52:24Z</time>
      </trkpt>
      <trkpt lat="48.6839" lon="1.85949">
        <ele>174</ele>
        <time>2020-02-18T09:52:30Z</time>
      </trkpt>
      <trkpt lat="48.68385" lon="1.85945">
        <ele>174</ele>
        <time>2020-02-18T09:52:36Z</time>
      </trkpt>
      <trkpt lat="48.6838" lon="1.8594">
        <ele>174</ele>
        <time>2020-02-18T09:52:40Z</time>
      </trkpt>
      <trkpt lat="48.68375" lon="1.85935">
        <ele>175</ele>
        <time>2020-02-18T09:52:46Z</time>
      </trkpt>
      <trkpt lat="48.6837" lon="1.85928">
        <ele>175</ele>
        <time>2020-02-18T09:52:50Z</time>
      </trkpt>
      <trkpt lat="48.68366" lon="1.8592">
        <ele>175</ele>
        <time>2020-02-18T09:52:54Z</time>
      </trkpt>
      <trkpt lat="48.68361" lon="1.85915">
        <ele>176</ele>
        <time>2020-02-18T09:53:00Z</time>
      </trkpt>
      <trkpt lat="48.68357" lon="1.85909">
        <ele>176</ele>
        <time>2020-02-18T09:53:04Z</time>
      </trkpt>
      <trkpt lat="48.68353" lon="1.85905">
        <ele>176</ele>
        <time>2020-02-18T09:53:08Z</time>
      </trkpt>
      <trkpt lat="48.68348" lon="1.859">
        <ele>176</ele>
        <time>2020-02-18T09:53:12Z</time>
      </trkpt>
      <trkpt lat="48.68345" lon="1.85894">
        <ele>176</ele>
        <time>2020-02-18T09:53:14Z</time>
      </trkpt>
      <trkpt lat="48.6834" lon="1.85886">
        <ele>176</ele>
        <time>2020-02-18T09:53:18Z</time>
      </trkpt>
      <trkpt lat="48.68336" lon="1.85881">
        <ele>176</ele>
        <time>2020-02-18T09:53:22Z</time>
      </trkpt>
      <trkpt lat="48.68329" lon="1.85872">
        <ele>178</ele>
        <time>2020-02-18T09:53:26Z</time>
      </trkpt>
      <trkpt lat="48.68324" lon="1.85868">
        <ele>178</ele>
        <time>2020-02-18T09:53:30Z</time>
      </trkpt>
      <trkpt lat="48.68318" lon="1.85862">
        <ele>178</ele>
        <time>2020-02-18T09:53:34Z</time>
      </trkpt>
      <trkpt lat="48.68314" lon="1.85857">
        <ele>178</ele>
        <time>2020-02-18T09:53:38Z</time>
      </trkpt>
      <trkpt lat="48.6831" lon="1.8585">
        <ele>178</ele>
        <time>2020-02-18T09:53:42Z</time>
      </trkpt>
      <trkpt lat="48.68307" lon="1.85843">
        <ele>178</ele>
        <time>2020-02-18T09:53:44Z</time>
      </trkpt>
      <trkpt lat="48.68301" lon="1.85837">
        <ele>178</ele>
        <time>2020-02-18T09:53:48Z</time>
      </trkpt>
      <trkpt lat="48.68294" lon="1.85829">
        <ele>179</ele>
        <time>2020-02-18T09:53:52Z</time>
      </trkpt>
      <trkpt lat="48.68288" lon="1.85826">
        <ele>179</ele>
        <time>2020-02-18T09:53:56Z</time>
      </trkpt>
      <trkpt lat="48.68283" lon="1.85823">
        <ele>179</ele>
        <time>2020-02-18T09:54:00Z</time>
      </trkpt>
      <trkpt lat="48.6828" lon="1.85816">
        <ele>179</ele>
        <time>2020-02-18T09:54:04Z</time>
      </trkpt>
      <trkpt lat="48.68275" lon="1.85813">
        <ele>180</ele>
        <time>2020-02-18T09:54:12Z</time>
      </trkpt>
      <trkpt lat="48.6827" lon="1.85812">
        <ele>180</ele>
        <time>2020-02-18T09:54:16Z</time>
      </trkpt>
      <trkpt lat="48.68265" lon="1.85804">
        <ele>180</ele>
        <time>2020-02-18T09:54:20Z</time>
      </trkpt>
      <trkpt lat="48.68261" lon="1.85798">
        <ele>180</ele>
        <time>2020-02-18T09:54:24Z</time>
      </trkpt>
      <trkpt lat="48.68256" lon="1.85793">
        <ele>180</ele>
        <time>2020-02-18T09:54:28Z</time>
      </trkpt>
      <trkpt lat="48.6825" lon="1.85784">
        <ele>181</ele>
        <time>2020-02-18T09:54:34Z</time>
      </trkpt>
      <trkpt lat="48.68245" lon="1.85778">
        <ele>181</ele>
        <time>2020-02-18T09:54:38Z</time>
      </trkpt>
      <trkpt lat="48.6824" lon="1.85774">
        <ele>181</ele>
        <time>2020-02-18T09:54:42Z</time>
      </trkpt>
      <trkpt lat="48.68235" lon="1.85767">
        <ele>181</ele>
        <time>2020-02-18T09:54:46Z</time>
      </trkpt>
      <trkpt lat="48.68231" lon="1.85762">
        <ele>181</ele>
        <time>2020-02-18T09:54:50Z</time>
      </trkpt>
      <trkpt lat="48.68227" lon="1.85758">
        <ele>182</ele>
        <time>2020-02-18T09:54:54Z</time>
      </trkpt>
      <trkpt lat="48.68222" lon="1.85755">
        <ele>182</ele>
        <time>2020-02-18T09:54:58Z</time>
      </trkpt>
      <trkpt lat="48.68218" lon="1.85752">
        <ele>182</ele>
        <time>2020-02-18T09:55:02Z</time>
      </trkpt>
      <trkpt lat="48.68214" lon="1.85743">
        <ele>182</ele>
        <time>2020-02-18T09:55:06Z</time>
      </trkpt>
      <trkpt lat="48.6821" lon="1.85734">
        <ele>182</ele>
        <time>2020-02-18T09:55:10Z</time>
      </trkpt>
      <trkpt lat="48.68206" lon="1.8573">
        <ele>182</ele>
        <time>2020-02-18T09:55:16Z</time>
      </trkpt>
      <trkpt lat="48.68202" lon="1.85728">
        <ele>182</ele>
        <time>2020-02-18T09:55:22Z</time>
      </trkpt>
      <trkpt lat="48.68196" lon="1.85727">
        <ele>182</ele>
        <time>2020-02-18T09:55:30Z</time>
      </trkpt>
      <trkpt lat="48.68192" lon="1.85726">
        <ele>182</ele>
        <time>2020-02-18T09:55:36Z</time>
      </trkpt>
      <trkpt lat="48.68191" lon="1.85718">
        <ele>182</ele>
        <time>2020-02-18T09:55:46Z</time>
      </trkpt>
      <trkpt lat="48.68191" lon="1.85711">
        <ele>182</ele>
        <time>2020-02-18T09:55:54Z</time>
      </trkpt>
      <trkpt lat="48.6819" lon="1.85704">
        <ele>182</ele>
        <time>2020-02-18T09:56:36Z</time>
      </trkpt>
      <trkpt lat="48.68191" lon="1.85712">
        <ele>182</ele>
        <time>2020-02-18T09:56:50Z</time>
      </trkpt>
      <trkpt lat="48.68185" lon="1.85716">
        <ele>183</ele>
        <time>2020-02-18T09:56:56Z</time>
      </trkpt>
      <trkpt lat="48.6818" lon="1.85723">
        <ele>183</ele>
        <time>2020-02-18T09:57:02Z</time>
      </trkpt>
      <trkpt lat="48.68174" lon="1.85727">
        <ele>183</ele>
        <time>2020-02-18T09:57:06Z</time>
      </trkpt>
      <trkpt lat="48.68169" lon="1.8573">
        <ele>183</ele>
        <time>2020-02-18T09:57:10Z</time>
      </trkpt>
      <trkpt lat="48.68164" lon="1.85731">
        <ele>184</ele>
        <time>2020-02-18T09:57:14Z</time>
      </trkpt>
      <trkpt lat="48.68159" lon="1.85732">
        <ele>184</ele>
        <time>2020-02-18T09:57:18Z</time>
      </trkpt>
      <trkpt lat="48.68155" lon="1.85734">
        <ele>184</ele>
        <time>2020-02-18T09:57:22Z</time>
      </trkpt>
      <trkpt lat="48.68148" lon="1.85735">
        <ele>184</ele>
        <time>2020-02-18T09:57:28Z</time>
      </trkpt>
      <trkpt lat="48.68143" lon="1.85737">
        <ele>184</ele>
        <time>2020-02-18T09:57:32Z</time>
      </trkpt>
      <trkpt lat="48.68138" lon="1.85737">
        <ele>184</ele>
        <time>2020-02-18T09:57:36Z</time>
      </trkpt>
      <trkpt lat="48.68132" lon="1.85739">
        <ele>184</ele>
        <time>2020-02-18T09:57:40Z</time>
      </trkpt>
      <trkpt lat="48.68127" lon="1.85735">
        <ele>184</ele>
        <time>2020-02-18T09:57:46Z</time>
      </trkpt>
      <trkpt lat="48.68122" lon="1.85736">
        <ele>184</ele>
        <time>2020-02-18T09:57:50Z</time>
      </trkpt>
      <trkpt lat="48.68117" lon="1.85734">
        <ele>184</ele>
        <time>2020-02-18T09:57:56Z</time>
      </trkpt>
      <trkpt lat="48.68111" lon="1.85733">
        <ele>184</ele>
        <time>2020-02-18T09:58:00Z</time>
      </trkpt>
      <trkpt lat="48.68107" lon="1.85732">
        <ele>184</ele>
        <time>2020-02-18T09:58:02Z</time>
      </trkpt>
      <trkpt lat="48.68101" lon="1.85731">
        <ele>184</ele>
        <time>2020-02-18T09:58:06Z</time>
      </trkpt>
      <trkpt lat="48.68096" lon="1.85733">
        <ele>185</ele>
        <time>2020-02-18T09:58:10Z</time>
      </trkpt>
      <trkpt lat="48.68091" lon="1.85734">
        <ele>185</ele>
        <time>2020-02-18T09:58:14Z</time>
      </trkpt>
      <trkpt lat="48.68086" lon="1.85732">
        <ele>185</ele>
        <time>2020-02-18T09:58:20Z</time>
      </trkpt>
      <trkpt lat="48.68081" lon="1.85734">
        <ele>184</ele>
        <time>2020-02-18T09:58:24Z</time>
      </trkpt>
      <trkpt lat="48.68075" lon="1.85734">
        <ele>184</ele>
        <time>2020-02-18T09:58:30Z</time>
      </trkpt>
      <trkpt lat="48.68068" lon="1.85734">
        <ele>184</ele>
        <time>2020-02-18T09:58:36Z</time>
      </trkpt>
      <trkpt lat="48.68063" lon="1.85731">
        <ele>184</ele>
        <time>2020-02-18T09:58:40Z</time>
      </trkpt>
      <trkpt lat="48.68057" lon="1.85731">
        <ele>184</ele>
        <time>2020-02-18T09:58:46Z</time>
      </trkpt>
      <trkpt lat="48.68051" lon="1.85731">
        <ele>184</ele>
        <time>2020-02-18T09:58:50Z</time>
      </trkpt>
      <trkpt lat="48.68047" lon="1.8573">
        <ele>184</ele>
        <time>2020-02-18T09:58:54Z</time>
      </trkpt>
      <trkpt lat="48.68042" lon="1.85728">
        <ele>184</ele>
        <time>2020-02-18T09:58:58Z</time>
      </trkpt>
      <trkpt lat="48.68035" lon="1.85732">
        <ele>184</ele>
        <time>2020-02-18T09:59:02Z</time>
      </trkpt>
      <trkpt lat="48.68028" lon="1.85733">
        <ele>183</ele>
        <time>2020-02-18T09:59:06Z</time>
      </trkpt>
      <trkpt lat="48.68023" lon="1.85735">
        <ele>183</ele>
        <time>2020-02-18T09:59:08Z</time>
      </trkpt>
      <trkpt lat="48.68018" lon="1.85736">
        <ele>183</ele>
        <time>2020-02-18T09:59:14Z</time>
      </trkpt>
      <trkpt lat="48.68012" lon="1.85738">
        <ele>183</ele>
        <time>2020-02-18T09:59:18Z</time>
      </trkpt>
      <trkpt lat="48.68005" lon="1.85739">
        <ele>183</ele>
        <time>2020-02-18T09:59:22Z</time>
      </trkpt>
      <trkpt lat="48.67999" lon="1.85737">
        <ele>182</ele>
        <time>2020-02-18T09:59:26Z</time>
      </trkpt>
      <trkpt lat="48.67992" lon="1.85736">
        <ele>182</ele>
        <time>2020-02-18T09:59:30Z</time>
      </trkpt>
      <trkpt lat="48.67988" lon="1.85737">
        <ele>182</ele>
        <time>2020-02-18T09:59:34Z</time>
      </trkpt>
      <trkpt lat="48.67983" lon="1.85739">
        <ele>182</ele>
        <time>2020-02-18T09:59:38Z</time>
      </trkpt>
      <trkpt lat="48.67976" lon="1.85744">
        <ele>182</ele>
        <time>2020-02-18T09:59:44Z</time>
      </trkpt>
      <trkpt lat="48.67972" lon="1.85749">
        <ele>182</ele>
        <time>2020-02-18T09:59:48Z</time>
      </trkpt>
      <trkpt lat="48.67966" lon="1.85752">
        <ele>182</ele>
        <time>2020-02-18T09:59:52Z</time>
      </trkpt>
      <trkpt lat="48.67961" lon="1.85755">
        <ele>182</ele>
        <time>2020-02-18T09:59:56Z</time>
      </trkpt>
      <trkpt lat="48.67953" lon="1.85755">
        <ele>182</ele>
        <time>2020-02-18T10:00:02Z</time>
      </trkpt>
      <trkpt lat="48.67947" lon="1.8576">
        <ele>182</ele>
        <time>2020-02-18T10:00:06Z</time>
      </trkpt>
      <trkpt lat="48.67942" lon="1.85762">
        <ele>182</ele>
        <time>2020-02-18T10:00:10Z</time>
      </trkpt>
      <trkpt lat="48.67935" lon="1.85765">
        <ele>182</ele>
        <time>2020-02-18T10:00:16Z</time>
      </trkpt>
      <trkpt lat="48.6793" lon="1.85768">
        <ele>182</ele>
        <time>2020-02-18T10:00:20Z</time>
      </trkpt>
      <trkpt lat="48.67924" lon="1.85771">
        <ele>182</ele>
        <time>2020-02-18T10:00:24Z</time>
      </trkpt>
      <trkpt lat="48.67919" lon="1.85775">
        <ele>183</ele>
        <time>2020-02-18T10:00:26Z</time>
      </trkpt>
      <trkpt lat="48.67915" lon="1.85778">
        <ele>182</ele>
        <time>2020-02-18T10:00:30Z</time>
      </trkpt>
      <trkpt lat="48.67908" lon="1.85779">
        <ele>182</ele>
        <time>2020-02-18T10:00:34Z</time>
      </trkpt>
      <trkpt lat="48.67901" lon="1.85784">
        <ele>181</ele>
        <time>2020-02-18T10:00:38Z</time>
      </trkpt>
      <trkpt lat="48.67896" lon="1.85787">
        <ele>181</ele>
        <time>2020-02-18T10:00:42Z</time>
      </trkpt>
      <trkpt lat="48.67889" lon="1.85792">
        <ele>181</ele>
        <time>2020-02-18T10:00:54Z</time>
      </trkpt>
      <trkpt lat="48.67883" lon="1.85792">
        <ele>181</ele>
        <time>2020-02-18T10:00:58Z</time>
      </trkpt>
      <trkpt lat="48.67878" lon="1.85795">
        <ele>181</ele>
        <time>2020-02-18T10:01:02Z</time>
      </trkpt>
      <trkpt lat="48.67871" lon="1.85799">
        <ele>181</ele>
        <time>2020-02-18T10:01:08Z</time>
      </trkpt>
      <trkpt lat="48.67865" lon="1.85798">
        <ele>181</ele>
        <time>2020-02-18T10:01:12Z</time>
      </trkpt>
      <trkpt lat="48.6786" lon="1.85798">
        <ele>181</ele>
        <time>2020-02-18T10:01:16Z</time>
      </trkpt>
      <trkpt lat="48.67853" lon="1.858">
        <ele>180</ele>
        <time>2020-02-18T10:01:20Z</time>
      </trkpt>
      <trkpt lat="48.67847" lon="1.85806">
        <ele>180</ele>
        <time>2020-02-18T10:01:24Z</time>
      </trkpt>
      <trkpt lat="48.67842" lon="1.85809">
        <ele>180</ele>
        <time>2020-02-18T10:01:26Z</time>
      </trkpt>
      <trkpt lat="48.67837" lon="1.85811">
        <ele>180</ele>
        <time>2020-02-18T10:01:30Z</time>
      </trkpt>
      <trkpt lat="48.67831" lon="1.85812">
        <ele>179</ele>
        <time>2020-02-18T10:01:34Z</time>
      </trkpt>
      <trkpt lat="48.67826" lon="1.85814">
        <ele>179</ele>
        <time>2020-02-18T10:01:38Z</time>
      </trkpt>
      <trkpt lat="48.67819" lon="1.8582">
        <ele>179</ele>
        <time>2020-02-18T10:01:42Z</time>
      </trkpt>
      <trkpt lat="48.67815" lon="1.85825">
        <ele>179</ele>
        <time>2020-02-18T10:01:44Z</time>
      </trkpt>
      <trkpt lat="48.67811" lon="1.85827">
        <ele>178</ele>
        <time>2020-02-18T10:01:48Z</time>
      </trkpt>
      <trkpt lat="48.67804" lon="1.85828">
        <ele>178</ele>
        <time>2020-02-18T10:01:52Z</time>
      </trkpt>
      <trkpt lat="48.67798" lon="1.85825">
        <ele>178</ele>
        <time>2020-02-18T10:01:58Z</time>
      </trkpt>
      <trkpt lat="48.67793" lon="1.85833">
        <ele>178</ele>
        <time>2020-02-18T10:02:08Z</time>
      </trkpt>
      <trkpt lat="48.67793" lon="1.8584">
        <ele>178</ele>
        <time>2020-02-18T10:02:12Z</time>
      </trkpt>
      <trkpt lat="48.67793" lon="1.85849">
        <ele>178</ele>
        <time>2020-02-18T10:02:20Z</time>
      </trkpt>
      <trkpt lat="48.67788" lon="1.85852">
        <ele>178</ele>
        <time>2020-02-18T10:02:28Z</time>
      </trkpt>
      <trkpt lat="48.67783" lon="1.85852">
        <ele>178</ele>
        <time>2020-02-18T10:05:08Z</time>
      </trkpt>
      <trkpt lat="48.67778" lon="1.85851">
        <ele>178</ele>
        <time>2020-02-18T10:05:12Z</time>
      </trkpt>
      <trkpt lat="48.67773" lon="1.85848">
        <ele>178</ele>
        <time>2020-02-18T10:05:16Z</time>
      </trkpt>
      <trkpt lat="48.67768" lon="1.85846">
        <ele>178</ele>
        <time>2020-02-18T10:05:20Z</time>
      </trkpt>
      <trkpt lat="48.67763" lon="1.85843">
        <ele>178</ele>
        <time>2020-02-18T10:05:24Z</time>
      </trkpt>
      <trkpt lat="48.67758" lon="1.85841">
        <ele>177</ele>
        <time>2020-02-18T10:05:28Z</time>
      </trkpt>
      <trkpt lat="48.67752" lon="1.85836">
        <ele>177</ele>
        <time>2020-02-18T10:05:36Z</time>
      </trkpt>
      <trkpt lat="48.67747" lon="1.85835">
        <ele>177</ele>
        <time>2020-02-18T10:05:40Z</time>
      </trkpt>
      <trkpt lat="48.67742" lon="1.85832">
        <ele>177</ele>
        <time>2020-02-18T10:05:44Z</time>
      </trkpt>
      <trkpt lat="48.67736" lon="1.85829">
        <ele>177</ele>
        <time>2020-02-18T10:05:48Z</time>
      </trkpt>
      <trkpt lat="48.6773" lon="1.85827">
        <ele>177</ele>
        <time>2020-02-18T10:05:52Z</time>
      </trkpt>
      <trkpt lat="48.67725" lon="1.85825">
        <ele>177</ele>
        <time>2020-02-18T10:05:56Z</time>
      </trkpt>
      <trkpt lat="48.67719" lon="1.85822">
        <ele>177</ele>
        <time>2020-02-18T10:06:00Z</time>
      </trkpt>
      <trkpt lat="48.67714" lon="1.85819">
        <ele>177</ele>
        <time>2020-02-18T10:06:04Z</time>
      </trkpt>
      <trkpt lat="48.67709" lon="1.85819">
        <ele>177</ele>
        <time>2020-02-18T10:06:08Z</time>
      </trkpt>
      <trkpt lat="48.67702" lon="1.85818">
        <ele>176</ele>
        <time>2020-02-18T10:06:12Z</time>
      </trkpt>
      <trkpt lat="48.67698" lon="1.85815">
        <ele>176</ele>
        <time>2020-02-18T10:06:16Z</time>
      </trkpt>
      <trkpt lat="48.67692" lon="1.85812">
        <ele>176</ele>
        <time>2020-02-18T10:06:20Z</time>
      </trkpt>
      <trkpt lat="48.67686" lon="1.85808">
        <ele>176</ele>
        <time>2020-02-18T10:06:24Z</time>
      </trkpt>
      <trkpt lat="48.67681" lon="1.85805">
        <ele>176</ele>
        <time>2020-02-18T10:06:28Z</time>
      </trkpt>
      <trkpt lat="48.67675" lon="1.85803">
        <ele>176</ele>
        <time>2020-02-18T10:06:32Z</time>
      </trkpt>
      <trkpt lat="48.67669" lon="1.85801">
        <ele>176</ele>
        <time>2020-02-18T10:06:36Z</time>
      </trkpt>
      <trkpt lat="48.67663" lon="1.85797">
        <ele>176</ele>
        <time>2020-02-18T10:06:40Z</time>
      </trkpt>
      <trkpt lat="48.67657" lon="1.85795">
        <ele>176</ele>
        <time>2020-02-18T10:06:44Z</time>
      </trkpt>
      <trkpt lat="48.67651" lon="1.85793">
        <ele>176</ele>
        <time>2020-02-18T10:06:48Z</time>
      </trkpt>
      <trkpt lat="48.67646" lon="1.8579">
        <ele>175</ele>
        <time>2020-02-18T10:06:52Z</time>
      </trkpt>
      <trkpt lat="48.67639" lon="1.85788">
        <ele>175</ele>
        <time>2020-02-18T10:06:56Z</time>
      </trkpt>
      <trkpt lat="48.67632" lon="1.85783">
        <ele>175</ele>
        <time>2020-02-18T10:07:00Z</time>
      </trkpt>
      <trkpt lat="48.67625" lon="1.85782">
        <ele>175</ele>
        <time>2020-02-18T10:07:04Z</time>
      </trkpt>
      <trkpt lat="48.67619" lon="1.85778">
        <ele>175</ele>
        <time>2020-02-18T10:07:08Z</time>
      </trkpt>
      <trkpt lat="48.67614" lon="1.85775">
        <ele>175</ele>
        <time>2020-02-18T10:07:12Z</time>
      </trkpt>
      <trkpt lat="48.67607" lon="1.85773">
        <ele>175</ele>
        <time>2020-02-18T10:07:16Z</time>
      </trkpt>
      <trkpt lat="48.67602" lon="1.8577">
        <ele>175</ele>
        <time>2020-02-18T10:07:20Z</time>
      </trkpt>
      <trkpt lat="48.67596" lon="1.85768">
        <ele>175</ele>
        <time>2020-02-18T10:07:24Z</time>
      </trkpt>
      <trkpt lat="48.67589" lon="1.85767">
        <ele>175</ele>
        <time>2020-02-18T10:07:28Z</time>
      </trkpt>
      <trkpt lat="48.67584" lon="1.85763">
        <ele>175</ele>
        <time>2020-02-18T10:07:32Z</time>
      </trkpt>
      <trkpt lat="48.67579" lon="1.85759">
        <ele>175</ele>
        <time>2020-02-18T10:07:36Z</time>
      </trkpt>
      <trkpt lat="48.67573" lon="1.85757">
        <ele>175</ele>
        <time>2020-02-18T10:07:40Z</time>
      </trkpt>
      <trkpt lat="48.67567" lon="1.85754">
        <ele>175</ele>
        <time>2020-02-18T10:07:44Z</time>
      </trkpt>
      <trkpt lat="48.67561" lon="1.85752">
        <ele>175</ele>
        <time>2020-02-18T10:07:48Z</time>
      </trkpt>
      <trkpt lat="48.67556" lon="1.85748">
        <ele>175</ele>
        <time>2020-02-18T10:07:52Z</time>
      </trkpt>
      <trkpt lat="48.6755" lon="1.85747">
        <ele>175</ele>
        <time>2020-02-18T10:07:56Z</time>
      </trkpt>
      <trkpt lat="48.67544" lon="1.85745">
        <ele>175</ele>
        <time>2020-02-18T10:08:00Z</time>
      </trkpt>
      <trkpt lat="48.67538" lon="1.85743">
        <ele>175</ele>
        <time>2020-02-18T10:08:04Z</time>
      </trkpt>
      <trkpt lat="48.67533" lon="1.85738">
        <ele>175</ele>
        <time>2020-02-18T10:08:08Z</time>
      </trkpt>
      <trkpt lat="48.67528" lon="1.85736">
        <ele>175</ele>
        <time>2020-02-18T10:08:12Z</time>
      </trkpt>
      <trkpt lat="48.67522" lon="1.85733">
        <ele>175</ele>
        <time>2020-02-18T10:08:16Z</time>
      </trkpt>
      <trkpt lat="48.67516" lon="1.85729">
        <ele>175</ele>
        <time>2020-02-18T10:08:20Z</time>
      </trkpt>
      <trkpt lat="48.67509" lon="1.85726">
        <ele>175</ele>
        <time>2020-02-18T10:08:24Z</time>
      </trkpt>
      <trkpt lat="48.67503" lon="1.85725">
        <ele>175</ele>
        <time>2020-02-18T10:08:28Z</time>
      </trkpt>
      <trkpt lat="48.67496" lon="1.85724">
        <ele>175</ele>
        <time>2020-02-18T10:08:32Z</time>
      </trkpt>
      <trkpt lat="48.67491" lon="1.85722">
        <ele>175</ele>
        <time>2020-02-18T10:08:36Z</time>
      </trkpt>
      <trkpt lat="48.67486" lon="1.85718">
        <ele>175</ele>
        <time>2020-02-18T10:08:40Z</time>
      </trkpt>
      <trkpt lat="48.67481" lon="1.85716">
        <ele>175</ele>
        <time>2020-02-18T10:08:44Z</time>
      </trkpt>
      <trkpt lat="48.67475" lon="1.85713">
        <ele>175</ele>
        <time>2020-02-18T10:08:48Z</time>
      </trkpt>
      <trkpt lat="48.6747" lon="1.85711">
        <ele>175</ele>
        <time>2020-02-18T10:08:52Z</time>
      </trkpt>
      <trkpt lat="48.67464" lon="1.85709">
        <ele>175</ele>
        <time>2020-02-18T10:08:56Z</time>
      </trkpt>
      <trkpt lat="48.67456" lon="1.85708">
        <ele>175</ele>
        <time>2020-02-18T10:09:00Z</time>
      </trkpt>
      <trkpt lat="48.67451" lon="1.85704">
        <ele>175</ele>
        <time>2020-02-18T10:09:04Z</time>
      </trkpt>
      <trkpt lat="48.67445" lon="1.85702">
        <ele>175</ele>
        <time>2020-02-18T10:09:08Z</time>
      </trkpt>
      <trkpt lat="48.67438" lon="1.85699">
        <ele>175</ele>
        <time>2020-02-18T10:09:14Z</time>
      </trkpt>
      <trkpt lat="48.67434" lon="1.85694">
        <ele>175</ele>
        <time>2020-02-18T10:09:18Z</time>
      </trkpt>
      <trkpt lat="48.6743" lon="1.85691">
        <ele>175</ele>
        <time>2020-02-18T10:09:22Z</time>
      </trkpt>
      <trkpt lat="48.67425" lon="1.85686">
        <ele>175</ele>
        <time>2020-02-18T10:09:26Z</time>
      </trkpt>
      <trkpt lat="48.67419" lon="1.85684">
        <ele>175</ele>
        <time>2020-02-18T10:09:30Z</time>
      </trkpt>
      <trkpt lat="48.67412" lon="1.85681">
        <ele>175</ele>
        <time>2020-02-18T10:09:34Z</time>
      </trkpt>
      <trkpt lat="48.67408" lon="1.85677">
        <ele>175</ele>
        <time>2020-02-18T10:09:38Z</time>
      </trkpt>
      <trkpt lat="48.67401" lon="1.85675">
        <ele>175</ele>
        <time>2020-02-18T10:09:42Z</time>
      </trkpt>
      <trkpt lat="48.67393" lon="1.85674">
        <ele>175</ele>
        <time>2020-02-18T10:09:46Z</time>
      </trkpt>
      <trkpt lat="48.67387" lon="1.85673">
        <ele>175</ele>
        <time>2020-02-18T10:09:50Z</time>
      </trkpt>
      <trkpt lat="48.67382" lon="1.85669">
        <ele>175</ele>
        <time>2020-02-18T10:09:54Z</time>
      </trkpt>
      <trkpt lat="48.67376" lon="1.85668">
        <ele>175</ele>
        <time>2020-02-18T10:09:58Z</time>
      </trkpt>
      <trkpt lat="48.67368" lon="1.85665">
        <ele>176</ele>
        <time>2020-02-18T10:10:02Z</time>
      </trkpt>
      <trkpt lat="48.67365" lon="1.8566">
        <ele>176</ele>
        <time>2020-02-18T10:10:06Z</time>
      </trkpt>
      <trkpt lat="48.67358" lon="1.85658">
        <ele>176</ele>
        <time>2020-02-18T10:10:10Z</time>
      </trkpt>
      <trkpt lat="48.6735" lon="1.85656">
        <ele>176</ele>
        <time>2020-02-18T10:10:14Z</time>
      </trkpt>
      <trkpt lat="48.67346" lon="1.85653">
        <ele>176</ele>
        <time>2020-02-18T10:10:18Z</time>
      </trkpt>
      <trkpt lat="48.6734" lon="1.85649">
        <ele>176</ele>
        <time>2020-02-18T10:10:22Z</time>
      </trkpt>
      <trkpt lat="48.67335" lon="1.85647">
        <ele>176</ele>
        <time>2020-02-18T10:10:26Z</time>
      </trkpt>
      <trkpt lat="48.67327" lon="1.85646">
        <ele>177</ele>
        <time>2020-02-18T10:10:30Z</time>
      </trkpt>
      <trkpt lat="48.67322" lon="1.85645">
        <ele>177</ele>
        <time>2020-02-18T10:10:34Z</time>
      </trkpt>
      <trkpt lat="48.67316" lon="1.8564">
        <ele>177</ele>
        <time>2020-02-18T10:10:40Z</time>
      </trkpt>
      <trkpt lat="48.6731" lon="1.85638">
        <ele>177</ele>
        <time>2020-02-18T10:10:46Z</time>
      </trkpt>
      <trkpt lat="48.67304" lon="1.85636">
        <ele>177</ele>
        <time>2020-02-18T10:10:50Z</time>
      </trkpt>
      <trkpt lat="48.67299" lon="1.85633">
        <ele>177</ele>
        <time>2020-02-18T10:10:54Z</time>
      </trkpt>
      <trkpt lat="48.67293" lon="1.85631">
        <ele>177</ele>
        <time>2020-02-18T10:10:58Z</time>
      </trkpt>
      <trkpt lat="48.67288" lon="1.85626">
        <ele>177</ele>
        <time>2020-02-18T10:11:02Z</time>
      </trkpt>
      <trkpt lat="48.67283" lon="1.85623">
        <ele>177</ele>
        <time>2020-02-18T10:11:06Z</time>
      </trkpt>
      <trkpt lat="48.67278" lon="1.85622">
        <ele>177</ele>
        <time>2020-02-18T10:11:10Z</time>
      </trkpt>
      <trkpt lat="48.67274" lon="1.85617">
        <ele>177</ele>
        <time>2020-02-18T10:11:14Z</time>
      </trkpt>
      <trkpt lat="48.67268" lon="1.85616">
        <ele>177</ele>
        <time>2020-02-18T10:11:18Z</time>
      </trkpt>
      <trkpt lat="48.67263" lon="1.85616">
        <ele>177</ele>
        <time>2020-02-18T10:11:22Z</time>
      </trkpt>
      <trkpt lat="48.67256" lon="1.85611">
        <ele>177</ele>
        <time>2020-02-18T10:11:26Z</time>
      </trkpt>
      <trkpt lat="48.67251" lon="1.85607">
        <ele>177</ele>
        <time>2020-02-18T10:11:30Z</time>
      </trkpt>
      <trkpt lat="48.67246" lon="1.85605">
        <ele>177</ele>
        <time>2020-02-18T10:11:34Z</time>
      </trkpt>
      <trkpt lat="48.67241" lon="1.85604">
        <ele>177</ele>
        <time>2020-02-18T10:11:38Z</time>
      </trkpt>
      <trkpt lat="48.67235" lon="1.85601">
        <ele>177</ele>
        <time>2020-02-18T10:11:42Z</time>
      </trkpt>
      <trkpt lat="48.6723" lon="1.85599">
        <ele>177</ele>
        <time>2020-02-18T10:11:46Z</time>
      </trkpt>
      <trkpt lat="48.67223" lon="1.85597">
        <ele>177</ele>
        <time>2020-02-18T10:11:50Z</time>
      </trkpt>
      <trkpt lat="48.67219" lon="1.8559">
        <ele>177</ele>
        <time>2020-02-18T10:11:54Z</time>
      </trkpt>
      <trkpt lat="48.67213" lon="1.85588">
        <ele>177</ele>
        <time>2020-02-18T10:11:58Z</time>
      </trkpt>
      <trkpt lat="48.67207" lon="1.85589">
        <ele>177</ele>
        <time>2020-02-18T10:12:02Z</time>
      </trkpt>
      <trkpt lat="48.67203" lon="1.85585">
        <ele>177</ele>
        <time>2020-02-18T10:12:06Z</time>
      </trkpt>
      <trkpt lat="48.67197" lon="1.85584">
        <ele>177</ele>
        <time>2020-02-18T10:12:10Z</time>
      </trkpt>
      <trkpt lat="48.67191" lon="1.85581">
        <ele>177</ele>
        <time>2020-02-18T10:12:14Z</time>
      </trkpt>
      <trkpt lat="48.67185" lon="1.85579">
        <ele>177</ele>
        <time>2020-02-18T10:12:18Z</time>
      </trkpt>
      <trkpt lat="48.67181" lon="1.85575">
        <ele>177</ele>
        <time>2020-02-18T10:12:22Z</time>
      </trkpt>
      <trkpt lat="48.67175" lon="1.85576">
        <ele>177</ele>
        <time>2020-02-18T10:12:26Z</time>
      </trkpt>
      <trkpt lat="48.67169" lon="1.85572">
        <ele>177</ele>
        <time>2020-02-18T10:12:30Z</time>
      </trkpt>
      <trkpt lat="48.67165" lon="1.85573">
        <ele>177</ele>
        <time>2020-02-18T10:12:34Z</time>
      </trkpt>
      <trkpt lat="48.67158" lon="1.85568">
        <ele>177</ele>
        <time>2020-02-18T10:12:38Z</time>
      </trkpt>
      <trkpt lat="48.67152" lon="1.85565">
        <ele>177</ele>
        <time>2020-02-18T10:12:42Z</time>
      </trkpt>
      <trkpt lat="48.67146" lon="1.85561">
        <ele>177</ele>
        <time>2020-02-18T10:12:46Z</time>
      </trkpt>
      <trkpt lat="48.6714" lon="1.8556">
        <ele>177</ele>
        <time>2020-02-18T10:12:50Z</time>
      </trkpt>
      <trkpt lat="48.67133" lon="1.85558">
        <ele>177</ele>
        <time>2020-02-18T10:12:54Z</time>
      </trkpt>
      <trkpt lat="48.67127" lon="1.85554">
        <ele>177</ele>
        <time>2020-02-18T10:12:58Z</time>
      </trkpt>
      <trkpt lat="48.67122" lon="1.85553">
        <ele>177</ele>
        <time>2020-02-18T10:13:02Z</time>
      </trkpt>
      <trkpt lat="48.67116" lon="1.8555">
        <ele>177</ele>
        <time>2020-02-18T10:13:06Z</time>
      </trkpt>
      <trkpt lat="48.67112" lon="1.85547">
        <ele>177</ele>
        <time>2020-02-18T10:13:10Z</time>
      </trkpt>
      <trkpt lat="48.67107" lon="1.85546">
        <ele>177</ele>
        <time>2020-02-18T10:13:14Z</time>
      </trkpt>
      <trkpt lat="48.671" lon="1.85548">
        <ele>177</ele>
        <time>2020-02-18T10:13:20Z</time>
      </trkpt>
      <trkpt lat="48.67097" lon="1.85557">
        <ele>177</ele>
        <time>2020-02-18T10:13:24Z</time>
      </trkpt>
      <trkpt lat="48.67097" lon="1.85565">
        <ele>177</ele>
        <time>2020-02-18T10:13:28Z</time>
      </trkpt>
      <trkpt lat="48.67098" lon="1.85572">
        <ele>177</ele>
        <time>2020-02-18T10:13:32Z</time>
      </trkpt>
      <trkpt lat="48.67098" lon="1.85581">
        <ele>177</ele>
        <time>2020-02-18T10:13:36Z</time>
      </trkpt>
      <trkpt lat="48.67098" lon="1.85589">
        <ele>178</ele>
        <time>2020-02-18T10:13:40Z</time>
      </trkpt>
      <trkpt lat="48.67098" lon="1.85597">
        <ele>178</ele>
        <time>2020-02-18T10:13:44Z</time>
      </trkpt>
      <trkpt lat="48.67098" lon="1.85606">
        <ele>179</ele>
        <time>2020-02-18T10:13:48Z</time>
      </trkpt>
      <trkpt lat="48.67098" lon="1.85617">
        <ele>179</ele>
        <time>2020-02-18T10:13:52Z</time>
      </trkpt>
      <trkpt lat="48.67097" lon="1.85625">
        <ele>179</ele>
        <time>2020-02-18T10:13:54Z</time>
      </trkpt>
      <trkpt lat="48.67096" lon="1.85633">
        <ele>179</ele>
        <time>2020-02-18T10:13:58Z</time>
      </trkpt>
      <trkpt lat="48.67095" lon="1.85642">
        <ele>180</ele>
        <time>2020-02-18T10:14:02Z</time>
      </trkpt>
      <trkpt lat="48.67094" lon="1.85651">
        <ele>180</ele>
        <time>2020-02-18T10:14:06Z</time>
      </trkpt>
      <trkpt lat="48.67093" lon="1.85659">
        <ele>181</ele>
        <time>2020-02-18T10:14:10Z</time>
      </trkpt>
      <trkpt lat="48.67093" lon="1.85669">
        <ele>181</ele>
        <time>2020-02-18T10:14:14Z</time>
      </trkpt>
      <trkpt lat="48.67093" lon="1.85678">
        <ele>181</ele>
        <time>2020-02-18T10:14:18Z</time>
      </trkpt>
      <trkpt lat="48.67091" lon="1.85689">
        <ele>181</ele>
        <time>2020-02-18T10:14:22Z</time>
      </trkpt>
      <trkpt lat="48.6709" lon="1.85697">
        <ele>181</ele>
        <time>2020-02-18T10:14:26Z</time>
      </trkpt>
      <trkpt lat="48.67091" lon="1.85705">
        <ele>181</ele>
        <time>2020-02-18T10:14:30Z</time>
      </trkpt>
      <trkpt lat="48.67089" lon="1.85718">
        <ele>181</ele>
        <time>2020-02-18T10:14:34Z</time>
      </trkpt>
      <trkpt lat="48.67089" lon="1.85728">
        <ele>181</ele>
        <time>2020-02-18T10:14:40Z</time>
      </trkpt>
      <trkpt lat="48.67088" lon="1.85735">
        <ele>182</ele>
        <time>2020-02-18T10:14:44Z</time>
      </trkpt>
      <trkpt lat="48.67089" lon="1.85744">
        <ele>182</ele>
        <time>2020-02-18T10:14:50Z</time>
      </trkpt>
      <trkpt lat="48.67088" lon="1.85754">
        <ele>182</ele>
        <time>2020-02-18T10:14:56Z</time>
      </trkpt>
      <trkpt lat="48.67087" lon="1.85761">
        <ele>182</ele>
        <time>2020-02-18T10:15:00Z</time>
      </trkpt>
      <trkpt lat="48.67089" lon="1.85768">
        <ele>181</ele>
        <time>2020-02-18T10:15:04Z</time>
      </trkpt>
      <trkpt lat="48.67089" lon="1.85776">
        <ele>181</ele>
        <time>2020-02-18T10:15:08Z</time>
      </trkpt>
      <trkpt lat="48.67088" lon="1.85786">
        <ele>180</ele>
        <time>2020-02-18T10:15:12Z</time>
      </trkpt>
      <trkpt lat="48.67087" lon="1.85795">
        <ele>180</ele>
        <time>2020-02-18T10:15:16Z</time>
      </trkpt>
      <trkpt lat="48.67085" lon="1.85805">
        <ele>180</ele>
        <time>2020-02-18T10:15:20Z</time>
      </trkpt>
      <trkpt lat="48.67086" lon="1.85813">
        <ele>180</ele>
        <time>2020-02-18T10:15:26Z</time>
      </trkpt>
      <trkpt lat="48.67087" lon="1.85821">
        <ele>180</ele>
        <time>2020-02-18T10:15:30Z</time>
      </trkpt>
      <trkpt lat="48.67086" lon="1.8583">
        <ele>181</ele>
        <time>2020-02-18T10:15:34Z</time>
      </trkpt>
      <trkpt lat="48.67086" lon="1.85838">
        <ele>181</ele>
        <time>2020-02-18T10:15:38Z</time>
      </trkpt>
      <trkpt lat="48.67086" lon="1.85849">
        <ele>180</ele>
        <time>2020-02-18T10:15:44Z</time>
      </trkpt>
      <trkpt lat="48.67085" lon="1.85857">
        <ele>179</ele>
        <time>2020-02-18T10:15:50Z</time>
      </trkpt>
      <trkpt lat="48.67084" lon="1.85866">
        <ele>179</ele>
        <time>2020-02-18T10:15:54Z</time>
      </trkpt>
      <trkpt lat="48.67083" lon="1.85876">
        <ele>182</ele>
        <time>2020-02-18T10:15:58Z</time>
      </trkpt>
      <trkpt lat="48.67083" lon="1.85886">
        <ele>181</ele>
        <time>2020-02-18T10:16:02Z</time>
      </trkpt>
      <trkpt lat="48.67084" lon="1.85894">
        <ele>179</ele>
        <time>2020-02-18T10:16:08Z</time>
      </trkpt>
      <trkpt lat="48.67084" lon="1.85902">
        <ele>179</ele>
        <time>2020-02-18T10:16:12Z</time>
      </trkpt>
      <trkpt lat="48.67083" lon="1.8591">
        <ele>181</ele>
        <time>2020-02-18T10:16:16Z</time>
      </trkpt>
      <trkpt lat="48.67083" lon="1.85917">
        <ele>180</ele>
        <time>2020-02-18T10:16:20Z</time>
      </trkpt>
      <trkpt lat="48.67082" lon="1.85925">
        <ele>181</ele>
        <time>2020-02-18T10:16:24Z</time>
      </trkpt>
      <trkpt lat="48.67082" lon="1.85933">
        <ele>181</ele>
        <time>2020-02-18T10:16:28Z</time>
      </trkpt>
      <trkpt lat="48.6708" lon="1.85942">
        <ele>181</ele>
        <time>2020-02-18T10:16:34Z</time>
      </trkpt>
      <trkpt lat="48.6708" lon="1.8595">
        <ele>182</ele>
        <time>2020-02-18T10:16:38Z</time>
      </trkpt>
      <trkpt lat="48.6708" lon="1.8596">
        <ele>182</ele>
        <time>2020-02-18T10:16:42Z</time>
      </trkpt>
      <trkpt lat="48.67081" lon="1.8597">
        <ele>181</ele>
        <time>2020-02-18T10:16:48Z</time>
      </trkpt>
      <trkpt lat="48.67081" lon="1.85978">
        <ele>181</ele>
        <time>2020-02-18T10:16:52Z</time>
      </trkpt>
      <trkpt lat="48.67081" lon="1.85987">
        <ele>181</ele>
        <time>2020-02-18T10:16:56Z</time>
      </trkpt>
      <trkpt lat="48.67083" lon="1.85997">
        <ele>180</ele>
        <time>2020-02-18T10:17:04Z</time>
      </trkpt>
      <trkpt lat="48.67083" lon="1.86005">
        <ele>180</ele>
        <time>2020-02-18T10:17:08Z</time>
      </trkpt>
      <trkpt lat="48.67083" lon="1.86013">
        <ele>181</ele>
        <time>2020-02-18T10:17:12Z</time>
      </trkpt>
      <trkpt lat="48.67082" lon="1.86022">
        <ele>181</ele>
        <time>2020-02-18T10:17:16Z</time>
      </trkpt>
      <trkpt lat="48.67079" lon="1.86031">
        <ele>182</ele>
        <time>2020-02-18T10:17:20Z</time>
      </trkpt>
      <trkpt lat="48.67078" lon="1.86042">
        <ele>182</ele>
        <time>2020-02-18T10:17:24Z</time>
      </trkpt>
      <trkpt lat="48.67078" lon="1.86052">
        <ele>181</ele>
        <time>2020-02-18T10:17:28Z</time>
      </trkpt>
      <trkpt lat="48.67079" lon="1.86059">
        <ele>181</ele>
        <time>2020-02-18T10:17:32Z</time>
      </trkpt>
      <trkpt lat="48.67077" lon="1.86067">
        <ele>181</ele>
        <time>2020-02-18T10:17:36Z</time>
      </trkpt>
      <trkpt lat="48.67075" lon="1.86075">
        <ele>180</ele>
        <time>2020-02-18T10:17:40Z</time>
      </trkpt>
      <trkpt lat="48.67076" lon="1.86085">
        <ele>180</ele>
        <time>2020-02-18T10:17:44Z</time>
      </trkpt>
      <trkpt lat="48.67076" lon="1.86093">
        <ele>180</ele>
        <time>2020-02-18T10:17:48Z</time>
      </trkpt>
      <trkpt lat="48.67073" lon="1.86105">
        <ele>180</ele>
        <time>2020-02-18T10:17:52Z</time>
      </trkpt>
      <trkpt lat="48.67071" lon="1.86115">
        <ele>181</ele>
        <time>2020-02-18T10:17:56Z</time>
      </trkpt>
      <trkpt lat="48.67071" lon="1.86123">
        <ele>180</ele>
        <time>2020-02-18T10:18:00Z</time>
      </trkpt>
      <trkpt lat="48.67072" lon="1.86131">
        <ele>180</ele>
        <time>2020-02-18T10:18:04Z</time>
      </trkpt>
      <trkpt lat="48.67071" lon="1.8614">
        <ele>180</ele>
        <time>2020-02-18T10:18:08Z</time>
      </trkpt>
      <trkpt lat="48.6707" lon="1.86148">
        <ele>180</ele>
        <time>2020-02-18T10:18:12Z</time>
      </trkpt>
      <trkpt lat="48.67069" lon="1.86157">
        <ele>179</ele>
        <time>2020-02-18T10:18:16Z</time>
      </trkpt>
      <trkpt lat="48.67068" lon="1.86167">
        <ele>179</ele>
        <time>2020-02-18T10:18:20Z</time>
      </trkpt>
      <trkpt lat="48.6707" lon="1.86177">
        <ele>179</ele>
        <time>2020-02-18T10:18:24Z</time>
      </trkpt>
      <trkpt lat="48.67071" lon="1.86186">
        <ele>179</ele>
        <time>2020-02-18T10:18:28Z</time>
      </trkpt>
      <trkpt lat="48.67072" lon="1.86194">
        <ele>179</ele>
        <time>2020-02-18T10:18:32Z</time>
      </trkpt>
      <trkpt lat="48.67071" lon="1.86202">
        <ele>179</ele>
        <time>2020-02-18T10:18:36Z</time>
      </trkpt>
      <trkpt lat="48.67069" lon="1.86212">
        <ele>179</ele>
        <time>2020-02-18T10:18:40Z</time>
      </trkpt>
      <trkpt lat="48.67066" lon="1.86222">
        <ele>179</ele>
        <time>2020-02-18T10:18:44Z</time>
      </trkpt>
      <trkpt lat="48.67065" lon="1.86229">
        <ele>179</ele>
        <time>2020-02-18T10:18:48Z</time>
      </trkpt>
      <trkpt lat="48.67064" lon="1.8624">
        <ele>179</ele>
        <time>2020-02-18T10:18:52Z</time>
      </trkpt>
      <trkpt lat="48.67063" lon="1.86248">
        <ele>179</ele>
        <time>2020-02-18T10:18:56Z</time>
      </trkpt>
      <trkpt lat="48.67062" lon="1.86257">
        <ele>178</ele>
        <time>2020-02-18T10:19:00Z</time>
      </trkpt>
      <trkpt lat="48.67061" lon="1.86266">
        <ele>178</ele>
        <time>2020-02-18T10:19:04Z</time>
      </trkpt>
      <trkpt lat="48.6706" lon="1.86275">
        <ele>178</ele>
        <time>2020-02-18T10:19:08Z</time>
      </trkpt>
      <trkpt lat="48.67059" lon="1.86285">
        <ele>178</ele>
        <time>2020-02-18T10:19:14Z</time>
      </trkpt>
      <trkpt lat="48.67061" lon="1.86294">
        <ele>178</ele>
        <time>2020-02-18T10:19:18Z</time>
      </trkpt>
      <trkpt lat="48.6706" lon="1.86303">
        <ele>178</ele>
        <time>2020-02-18T10:19:22Z</time>
      </trkpt>
      <trkpt lat="48.67058" lon="1.86313">
        <ele>178</ele>
        <time>2020-02-18T10:19:26Z</time>
      </trkpt>
      <trkpt lat="48.67058" lon="1.86322">
        <ele>178</ele>
        <time>2020-02-18T10:19:30Z</time>
      </trkpt>
      <trkpt lat="48.67061" lon="1.86328">
        <ele>177</ele>
        <time>2020-02-18T10:19:34Z</time>
      </trkpt>
      <trkpt lat="48.67059" lon="1.86337">
        <ele>177</ele>
        <time>2020-02-18T10:19:38Z</time>
      </trkpt>
      <trkpt lat="48.67059" lon="1.86346">
        <ele>177</ele>
        <time>2020-02-18T10:19:42Z</time>
      </trkpt>
      <trkpt lat="48.67058" lon="1.86355">
        <ele>177</ele>
        <time>2020-02-18T10:19:46Z</time>
      </trkpt>
      <trkpt lat="48.67058" lon="1.86364">
        <ele>177</ele>
        <time>2020-02-18T10:19:50Z</time>
      </trkpt>
      <trkpt lat="48.67057" lon="1.86371">
        <ele>177</ele>
        <time>2020-02-18T10:19:54Z</time>
      </trkpt>
      <trkpt lat="48.67055" lon="1.86379">
        <ele>177</ele>
        <time>2020-02-18T10:19:58Z</time>
      </trkpt>
      <trkpt lat="48.67054" lon="1.86385">
        <ele>177</ele>
        <time>2020-02-18T10:20:06Z</time>
      </trkpt>
      <trkpt lat="48.67049" lon="1.8639">
        <ele>177</ele>
        <time>2020-02-18T10:20:22Z</time>
      </trkpt>
      <trkpt lat="48.6705" lon="1.86382">
        <ele>177</ele>
        <time>2020-02-18T10:21:58Z</time>
      </trkpt>
      <trkpt lat="48.67045" lon="1.86378">
        <ele>177</ele>
        <time>2020-02-18T10:22:48Z</time>
      </trkpt>
      <trkpt lat="48.67044" lon="1.8637">
        <ele>177</ele>
        <time>2020-02-18T10:22:54Z</time>
      </trkpt>
      <trkpt lat="48.6704" lon="1.86363">
        <ele>177</ele>
        <time>2020-02-18T10:23:00Z</time>
      </trkpt>
      <trkpt lat="48.67038" lon="1.86354">
        <ele>178</ele>
        <time>2020-02-18T10:23:08Z</time>
      </trkpt>
      <trkpt lat="48.67035" lon="1.86347">
        <ele>178</ele>
        <time>2020-02-18T10:23:12Z</time>
      </trkpt>
      <trkpt lat="48.67032" lon="1.86341">
        <ele>178</ele>
        <time>2020-02-18T10:23:16Z</time>
      </trkpt>
      <trkpt lat="48.67029" lon="1.86332">
        <ele>179</ele>
        <time>2020-02-18T10:23:20Z</time>
      </trkpt>
      <trkpt lat="48.67027" lon="1.86322">
        <ele>179</ele>
        <time>2020-02-18T10:23:24Z</time>
      </trkpt>
      <trkpt lat="48.67023" lon="1.86318">
        <ele>180</ele>
        <time>2020-02-18T10:23:32Z</time>
      </trkpt>
      <trkpt lat="48.67016" lon="1.86318">
        <ele>180</ele>
        <time>2020-02-18T10:23:36Z</time>
      </trkpt>
      <trkpt lat="48.67012" lon="1.86315">
        <ele>180</ele>
        <time>2020-02-18T10:23:40Z</time>
      </trkpt>
      <trkpt lat="48.67008" lon="1.8631">
        <ele>180</ele>
        <time>2020-02-18T10:23:44Z</time>
      </trkpt>
      <trkpt lat="48.67004" lon="1.86306">
        <ele>180</ele>
        <time>2020-02-18T10:23:46Z</time>
      </trkpt>
      <trkpt lat="48.66999" lon="1.86295">
        <ele>182</ele>
        <time>2020-02-18T10:23:50Z</time>
      </trkpt>
      <trkpt lat="48.66994" lon="1.86292">
        <ele>182</ele>
        <time>2020-02-18T10:23:54Z</time>
      </trkpt>
      <trkpt lat="48.66988" lon="1.86289">
        <ele>182</ele>
        <time>2020-02-18T10:23:58Z</time>
      </trkpt>
      <trkpt lat="48.66983" lon="1.86284">
        <ele>182</ele>
        <time>2020-02-18T10:24:02Z</time>
      </trkpt>
      <trkpt lat="48.66978" lon="1.8628">
        <ele>183</ele>
        <time>2020-02-18T10:24:06Z</time>
      </trkpt>
      <trkpt lat="48.66973" lon="1.8628">
        <ele>183</ele>
        <time>2020-02-18T10:24:10Z</time>
      </trkpt>
      <trkpt lat="48.66967" lon="1.86278">
        <ele>183</ele>
        <time>2020-02-18T10:24:14Z</time>
      </trkpt>
      <trkpt lat="48.66961" lon="1.86276">
        <ele>183</ele>
        <time>2020-02-18T10:24:18Z</time>
      </trkpt>
      <trkpt lat="48.66956" lon="1.86273">
        <ele>183</ele>
        <time>2020-02-18T10:24:22Z</time>
      </trkpt>
      <trkpt lat="48.6695" lon="1.8627">
        <ele>183</ele>
        <time>2020-02-18T10:24:26Z</time>
      </trkpt>
      <trkpt lat="48.66942" lon="1.86269">
        <ele>183</ele>
        <time>2020-02-18T10:24:30Z</time>
      </trkpt>
      <trkpt lat="48.66937" lon="1.86266">
        <ele>183</ele>
        <time>2020-02-18T10:24:34Z</time>
      </trkpt>
      <trkpt lat="48.66931" lon="1.86264">
        <ele>183</ele>
        <time>2020-02-18T10:24:38Z</time>
      </trkpt>
      <trkpt lat="48.66925" lon="1.86265">
        <ele>183</ele>
        <time>2020-02-18T10:24:42Z</time>
      </trkpt>
      <trkpt lat="48.66922" lon="1.86259">
        <ele>183</ele>
        <time>2020-02-18T10:24:48Z</time>
      </trkpt>
      <trkpt lat="48.66917" lon="1.86255">
        <ele>184</ele>
        <time>2020-02-18T10:24:54Z</time>
      </trkpt>
      <trkpt lat="48.66912" lon="1.86254">
        <ele>184</ele>
        <time>2020-02-18T10:24:58Z</time>
      </trkpt>
      <trkpt lat="48.66906" lon="1.86256">
        <ele>183</ele>
        <time>2020-02-18T10:25:02Z</time>
      </trkpt>
      <trkpt lat="48.66901" lon="1.86257">
        <ele>183</ele>
        <time>2020-02-18T10:25:06Z</time>
      </trkpt>
      <trkpt lat="48.66896" lon="1.86253">
        <ele>183</ele>
        <time>2020-02-18T10:25:10Z</time>
      </trkpt>
      <trkpt lat="48.66892" lon="1.86248">
        <ele>184</ele>
        <time>2020-02-18T10:25:14Z</time>
      </trkpt>
      <trkpt lat="48.66885" lon="1.86252">
        <ele>183</ele>
        <time>2020-02-18T10:25:18Z</time>
      </trkpt>
      <trkpt lat="48.66877" lon="1.86249">
        <ele>183</ele>
        <time>2020-02-18T10:25:24Z</time>
      </trkpt>
      <trkpt lat="48.66872" lon="1.86245">
        <ele>183</ele>
        <time>2020-02-18T10:25:28Z</time>
      </trkpt>
      <trkpt lat="48.66866" lon="1.86246">
        <ele>183</ele>
        <time>2020-02-18T10:25:32Z</time>
      </trkpt>
      <trkpt lat="48.66862" lon="1.86239">
        <ele>183</ele>
        <time>2020-02-18T10:25:42Z</time>
      </trkpt>
      <trkpt lat="48.66857" lon="1.86235">
        <ele>183</ele>
        <time>2020-02-18T10:25:48Z</time>
      </trkpt>
      <trkpt lat="48.66852" lon="1.86233">
        <ele>183</ele>
        <time>2020-02-18T10:25:52Z</time>
      </trkpt>
      <trkpt lat="48.66846" lon="1.86234">
        <ele>183</ele>
        <time>2020-02-18T10:25:56Z</time>
      </trkpt>
      <trkpt lat="48.66838" lon="1.86235">
        <ele>183</ele>
        <time>2020-02-18T10:26:00Z</time>
      </trkpt>
      <trkpt lat="48.66834" lon="1.86233">
        <ele>183</ele>
        <time>2020-02-18T10:26:04Z</time>
      </trkpt>
      <trkpt lat="48.66827" lon="1.86229">
        <ele>183</ele>
        <time>2020-02-18T10:26:10Z</time>
      </trkpt>
      <trkpt lat="48.6682" lon="1.86226">
        <ele>183</ele>
        <time>2020-02-18T10:26:14Z</time>
      </trkpt>
      <trkpt lat="48.66814" lon="1.86229">
        <ele>183</ele>
        <time>2020-02-18T10:26:18Z</time>
      </trkpt>
      <trkpt lat="48.66808" lon="1.86233">
        <ele>183</ele>
        <time>2020-02-18T10:26:22Z</time>
      </trkpt>
      <trkpt lat="48.66805" lon="1.86227">
        <ele>183</ele>
        <time>2020-02-18T10:26:32Z</time>
      </trkpt>
      <trkpt lat="48.66808" lon="1.86221">
        <ele>183</ele>
        <time>2020-02-18T10:26:44Z</time>
      </trkpt>
      <trkpt lat="48.66806" lon="1.86214">
        <ele>183</ele>
        <time>2020-02-18T10:26:54Z</time>
      </trkpt>
      <trkpt lat="48.66802" lon="1.86218">
        <ele>183</ele>
        <time>2020-02-18T10:27:10Z</time>
      </trkpt>
      <trkpt lat="48.66804" lon="1.86225">
        <ele>183</ele>
        <time>2020-02-18T10:28:08Z</time>
      </trkpt>
      <trkpt lat="48.66801" lon="1.86218">
        <ele>183</ele>
        <time>2020-02-18T10:28:20Z</time>
      </trkpt>
      <trkpt lat="48.66795" lon="1.86219">
        <ele>183</ele>
        <time>2020-02-18T10:28:34Z</time>
      </trkpt>
      <trkpt lat="48.66789" lon="1.86219">
        <ele>183</ele>
        <time>2020-02-18T10:28:42Z</time>
      </trkpt>
      <trkpt lat="48.66783" lon="1.86217">
        <ele>183</ele>
        <time>2020-02-18T10:28:46Z</time>
      </trkpt>
      <trkpt lat="48.66777" lon="1.86219">
        <ele>183</ele>
        <time>2020-02-18T10:28:50Z</time>
      </trkpt>
      <trkpt lat="48.66773" lon="1.86216">
        <ele>183</ele>
        <time>2020-02-18T10:28:56Z</time>
      </trkpt>
      <trkpt lat="48.66767" lon="1.86216">
        <ele>183</ele>
        <time>2020-02-18T10:29:00Z</time>
      </trkpt>
      <trkpt lat="48.66761" lon="1.86215">
        <ele>183</ele>
        <time>2020-02-18T10:29:04Z</time>
      </trkpt>
      <trkpt lat="48.66756" lon="1.86213">
        <ele>183</ele>
        <time>2020-02-18T10:29:08Z</time>
      </trkpt>
      <trkpt lat="48.66751" lon="1.8621">
        <ele>183</ele>
        <time>2020-02-18T10:29:12Z</time>
      </trkpt>
      <trkpt lat="48.66747" lon="1.86205">
        <ele>183</ele>
        <time>2020-02-18T10:29:16Z</time>
      </trkpt>
      <trkpt lat="48.66742" lon="1.862">
        <ele>183</ele>
        <time>2020-02-18T10:29:20Z</time>
      </trkpt>
      <trkpt lat="48.66736" lon="1.86199">
        <ele>183</ele>
        <time>2020-02-18T10:29:24Z</time>
      </trkpt>
      <trkpt lat="48.66729" lon="1.86201">
        <ele>183</ele>
        <time>2020-02-18T10:29:30Z</time>
      </trkpt>
      <trkpt lat="48.66722" lon="1.862">
        <ele>183</ele>
        <time>2020-02-18T10:29:36Z</time>
      </trkpt>
      <trkpt lat="48.66716" lon="1.86205">
        <ele>183</ele>
        <time>2020-02-18T10:29:40Z</time>
      </trkpt>
      <trkpt lat="48.66718" lon="1.86198">
        <ele>183</ele>
        <time>2020-02-18T10:29:44Z</time>
      </trkpt>
      <trkpt lat="48.66715" lon="1.86193">
        <ele>183</ele>
        <time>2020-02-18T10:29:52Z</time>
      </trkpt>
      <trkpt lat="48.6671" lon="1.86191">
        <ele>183</ele>
        <time>2020-02-18T10:29:56Z</time>
      </trkpt>
      <trkpt lat="48.66705" lon="1.8619">
        <ele>183</ele>
        <time>2020-02-18T10:30:02Z</time>
      </trkpt>
      <trkpt lat="48.6671" lon="1.86191">
        <ele>183</ele>
        <time>2020-02-18T10:30:16Z</time>
      </trkpt>
      <trkpt lat="48.66712" lon="1.86184">
        <ele>183</ele>
        <time>2020-02-18T10:30:24Z</time>
      </trkpt>
      <trkpt lat="48.66706" lon="1.86182">
        <ele>183</ele>
        <time>2020-02-18T10:30:34Z</time>
      </trkpt>
      <trkpt lat="48.66704" lon="1.86175">
        <ele>183</ele>
        <time>2020-02-18T10:31:30Z</time>
      </trkpt>
      <trkpt lat="48.66702" lon="1.86183">
        <ele>183</ele>
        <time>2020-02-18T10:32:40Z</time>
      </trkpt>
      <trkpt lat="48.66697" lon="1.86182">
        <ele>183</ele>
        <time>2020-02-18T10:32:44Z</time>
      </trkpt>
      <trkpt lat="48.66691" lon="1.86186">
        <ele>183</ele>
        <time>2020-02-18T10:32:48Z</time>
      </trkpt>
      <trkpt lat="48.66686" lon="1.86186">
        <ele>183</ele>
        <time>2020-02-18T10:32:58Z</time>
      </trkpt>
      <trkpt lat="48.66689" lon="1.86191">
        <ele>183</ele>
        <time>2020-02-18T10:33:08Z</time>
      </trkpt>
      <trkpt lat="48.66688" lon="1.86199">
        <ele>183</ele>
        <time>2020-02-18T10:33:12Z</time>
      </trkpt>
      <trkpt lat="48.66687" lon="1.86208">
        <ele>183</ele>
        <time>2020-02-18T10:33:18Z</time>
      </trkpt>
      <trkpt lat="48.66684" lon="1.86216">
        <ele>182</ele>
        <time>2020-02-18T10:33:24Z</time>
      </trkpt>
      <trkpt lat="48.66682" lon="1.86224">
        <ele>182</ele>
        <time>2020-02-18T10:33:32Z</time>
      </trkpt>
      <trkpt lat="48.66679" lon="1.86233">
        <ele>182</ele>
        <time>2020-02-18T10:33:40Z</time>
      </trkpt>
      <trkpt lat="48.66679" lon="1.86242">
        <ele>182</ele>
        <time>2020-02-18T10:33:48Z</time>
      </trkpt>
      <trkpt lat="48.66678" lon="1.86253">
        <ele>182</ele>
        <time>2020-02-18T10:33:54Z</time>
      </trkpt>
      <trkpt lat="48.66677" lon="1.86261">
        <ele>182</ele>
        <time>2020-02-18T10:34:00Z</time>
      </trkpt>
      <trkpt lat="48.66675" lon="1.8627">
        <ele>182</ele>
        <time>2020-02-18T10:34:06Z</time>
      </trkpt>
      <trkpt lat="48.66673" lon="1.86277">
        <ele>182</ele>
        <time>2020-02-18T10:34:10Z</time>
      </trkpt>
      <trkpt lat="48.66672" lon="1.86285">
        <ele>182</ele>
        <time>2020-02-18T10:34:18Z</time>
      </trkpt>
      <trkpt lat="48.6667" lon="1.86291">
        <ele>182</ele>
        <time>2020-02-18T10:34:22Z</time>
      </trkpt>
      <trkpt lat="48.66668" lon="1.86301">
        <ele>182</ele>
        <time>2020-02-18T10:34:28Z</time>
      </trkpt>
      <trkpt lat="48.66667" lon="1.86311">
        <ele>182</ele>
        <time>2020-02-18T10:34:34Z</time>
      </trkpt>
      <trkpt lat="48.66666" lon="1.86319">
        <ele>183</ele>
        <time>2020-02-18T10:34:40Z</time>
      </trkpt>
      <trkpt lat="48.66664" lon="1.86325">
        <ele>183</ele>
        <time>2020-02-18T10:34:42Z</time>
      </trkpt>
      <trkpt lat="48.66663" lon="1.86334">
        <ele>183</ele>
        <time>2020-02-18T10:34:46Z</time>
      </trkpt>
      <trkpt lat="48.66661" lon="1.86342">
        <ele>183</ele>
        <time>2020-02-18T10:34:52Z</time>
      </trkpt>
      <trkpt lat="48.66663" lon="1.86352">
        <ele>183</ele>
        <time>2020-02-18T10:34:58Z</time>
      </trkpt>
      <trkpt lat="48.66662" lon="1.86361">
        <ele>183</ele>
        <time>2020-02-18T10:35:02Z</time>
      </trkpt>
      <trkpt lat="48.66663" lon="1.86368">
        <ele>183</ele>
        <time>2020-02-18T10:35:06Z</time>
      </trkpt>
      <trkpt lat="48.66661" lon="1.86374">
        <ele>183</ele>
        <time>2020-02-18T10:35:10Z</time>
      </trkpt>
      <trkpt lat="48.66657" lon="1.86382">
        <ele>183</ele>
        <time>2020-02-18T10:35:14Z</time>
      </trkpt>
      <trkpt lat="48.66655" lon="1.8639">
        <ele>183</ele>
        <time>2020-02-18T10:35:18Z</time>
      </trkpt>
      <trkpt lat="48.66651" lon="1.86395">
        <ele>183</ele>
        <time>2020-02-18T10:35:20Z</time>
      </trkpt>
      <trkpt lat="48.66648" lon="1.86403">
        <ele>183</ele>
        <time>2020-02-18T10:35:24Z</time>
      </trkpt>
      <trkpt lat="48.66645" lon="1.86411">
        <ele>183</ele>
        <time>2020-02-18T10:35:28Z</time>
      </trkpt>
      <trkpt lat="48.66644" lon="1.86418">
        <ele>183</ele>
        <time>2020-02-18T10:35:34Z</time>
      </trkpt>
      <trkpt lat="48.66642" lon="1.86429">
        <ele>182</ele>
        <time>2020-02-18T10:35:38Z</time>
      </trkpt>
      <trkpt lat="48.66641" lon="1.86438">
        <ele>182</ele>
        <time>2020-02-18T10:35:42Z</time>
      </trkpt>
      <trkpt lat="48.66641" lon="1.86447">
        <ele>182</ele>
        <time>2020-02-18T10:35:46Z</time>
      </trkpt>
      <trkpt lat="48.66642" lon="1.86457">
        <ele>182</ele>
        <time>2020-02-18T10:35:50Z</time>
      </trkpt>
      <trkpt lat="48.66637" lon="1.86466">
        <ele>182</ele>
        <time>2020-02-18T10:35:54Z</time>
      </trkpt>
      <trkpt lat="48.66635" lon="1.8648">
        <ele>182</ele>
        <time>2020-02-18T10:35:58Z</time>
      </trkpt>
      <trkpt lat="48.66632" lon="1.86489">
        <ele>182</ele>
        <time>2020-02-18T10:36:02Z</time>
      </trkpt>
      <trkpt lat="48.66629" lon="1.86499">
        <ele>182</ele>
        <time>2020-02-18T10:36:06Z</time>
      </trkpt>
      <trkpt lat="48.66627" lon="1.86509">
        <ele>182</ele>
        <time>2020-02-18T10:36:10Z</time>
      </trkpt>
      <trkpt lat="48.66628" lon="1.86518">
        <ele>181</ele>
        <time>2020-02-18T10:36:16Z</time>
      </trkpt>
      <trkpt lat="48.66627" lon="1.86527">
        <ele>181</ele>
        <time>2020-02-18T10:36:20Z</time>
      </trkpt>
      <trkpt lat="48.66624" lon="1.86535">
        <ele>181</ele>
        <time>2020-02-18T10:36:24Z</time>
      </trkpt>
      <trkpt lat="48.66624" lon="1.86544">
        <ele>181</ele>
        <time>2020-02-18T10:36:30Z</time>
      </trkpt>
      <trkpt lat="48.66622" lon="1.86552">
        <ele>181</ele>
        <time>2020-02-18T10:36:36Z</time>
      </trkpt>
      <trkpt lat="48.6662" lon="1.86558">
        <ele>181</ele>
        <time>2020-02-18T10:36:40Z</time>
      </trkpt>
      <trkpt lat="48.66619" lon="1.86567">
        <ele>181</ele>
        <time>2020-02-18T10:36:44Z</time>
      </trkpt>
      <trkpt lat="48.66618" lon="1.86574">
        <ele>181</ele>
        <time>2020-02-18T10:36:48Z</time>
      </trkpt>
      <trkpt lat="48.66617" lon="1.86587">
        <ele>180</ele>
        <time>2020-02-18T10:36:52Z</time>
      </trkpt>
      <trkpt lat="48.66615" lon="1.86598">
        <ele>180</ele>
        <time>2020-02-18T10:36:56Z</time>
      </trkpt>
      <trkpt lat="48.66613" lon="1.86606">
        <ele>180</ele>
        <time>2020-02-18T10:37:02Z</time>
      </trkpt>
      <trkpt lat="48.66611" lon="1.86613">
        <ele>180</ele>
        <time>2020-02-18T10:37:06Z</time>
      </trkpt>
      <trkpt lat="48.66609" lon="1.86621">
        <ele>180</ele>
        <time>2020-02-18T10:37:12Z</time>
      </trkpt>
      <trkpt lat="48.66607" lon="1.8663">
        <ele>180</ele>
        <time>2020-02-18T10:37:18Z</time>
      </trkpt>
      <trkpt lat="48.6661" lon="1.86638">
        <ele>180</ele>
        <time>2020-02-18T10:37:24Z</time>
      </trkpt>
      <trkpt lat="48.66611" lon="1.86646">
        <ele>180</ele>
        <time>2020-02-18T10:37:28Z</time>
      </trkpt>
      <trkpt lat="48.6661" lon="1.86653">
        <ele>180</ele>
        <time>2020-02-18T10:37:32Z</time>
      </trkpt>
      <trkpt lat="48.66604" lon="1.86663">
        <ele>180</ele>
        <time>2020-02-18T10:37:36Z</time>
      </trkpt>
      <trkpt lat="48.66603" lon="1.86671">
        <ele>180</ele>
        <time>2020-02-18T10:37:40Z</time>
      </trkpt>
      <trkpt lat="48.66602" lon="1.86681">
        <ele>180</ele>
        <time>2020-02-18T10:37:44Z</time>
      </trkpt>
      <trkpt lat="48.66602" lon="1.86689">
        <ele>180</ele>
        <time>2020-02-18T10:37:48Z</time>
      </trkpt>
      <trkpt lat="48.66596" lon="1.86705">
        <ele>180</ele>
        <time>2020-02-18T10:37:52Z</time>
      </trkpt>
      <trkpt lat="48.66595" lon="1.86713">
        <ele>180</ele>
        <time>2020-02-18T10:37:56Z</time>
      </trkpt>
      <trkpt lat="48.66593" lon="1.86721">
        <ele>180</ele>
        <time>2020-02-18T10:38:00Z</time>
      </trkpt>
      <trkpt lat="48.66592" lon="1.86729">
        <ele>180</ele>
        <time>2020-02-18T10:38:06Z</time>
      </trkpt>
      <trkpt lat="48.66589" lon="1.86738">
        <ele>180</ele>
        <time>2020-02-18T10:38:10Z</time>
      </trkpt>
      <trkpt lat="48.66584" lon="1.86746">
        <ele>180</ele>
        <time>2020-02-18T10:38:12Z</time>
      </trkpt>
      <trkpt lat="48.66582" lon="1.86757">
        <ele>179</ele>
        <time>2020-02-18T10:38:16Z</time>
      </trkpt>
      <trkpt lat="48.66581" lon="1.86767">
        <ele>179</ele>
        <time>2020-02-18T10:38:20Z</time>
      </trkpt>
      <trkpt lat="48.6658" lon="1.86776">
        <ele>178</ele>
        <time>2020-02-18T10:38:24Z</time>
      </trkpt>
      <trkpt lat="48.66579" lon="1.86784">
        <ele>178</ele>
        <time>2020-02-18T10:38:28Z</time>
      </trkpt>
      <trkpt lat="48.66576" lon="1.86792">
        <ele>178</ele>
        <time>2020-02-18T10:38:30Z</time>
      </trkpt>
      <trkpt lat="48.66573" lon="1.868">
        <ele>177</ele>
        <time>2020-02-18T10:38:32Z</time>
      </trkpt>
      <trkpt lat="48.66571" lon="1.86809">
        <ele>177</ele>
        <time>2020-02-18T10:38:36Z</time>
      </trkpt>
      <trkpt lat="48.66569" lon="1.86819">
        <ele>177</ele>
        <time>2020-02-18T10:38:40Z</time>
      </trkpt>
      <trkpt lat="48.66568" lon="1.86827">
        <ele>177</ele>
        <time>2020-02-18T10:38:44Z</time>
      </trkpt>
      <trkpt lat="48.66566" lon="1.86835">
        <ele>176</ele>
        <time>2020-02-18T10:38:48Z</time>
      </trkpt>
      <trkpt lat="48.66564" lon="1.86845">
        <ele>175</ele>
        <time>2020-02-18T10:38:52Z</time>
      </trkpt>
      <trkpt lat="48.6656" lon="1.86853">
        <ele>175</ele>
        <time>2020-02-18T10:38:54Z</time>
      </trkpt>
      <trkpt lat="48.6656" lon="1.86861">
        <ele>175</ele>
        <time>2020-02-18T10:39:06Z</time>
      </trkpt>
      <trkpt lat="48.66558" lon="1.86868">
        <ele>175</ele>
        <time>2020-02-18T10:39:12Z</time>
      </trkpt>
      <trkpt lat="48.66555" lon="1.86873">
        <ele>175</ele>
        <time>2020-02-18T10:39:18Z</time>
      </trkpt>
      <trkpt lat="48.66553" lon="1.86882">
        <ele>174</ele>
        <time>2020-02-18T10:39:24Z</time>
      </trkpt>
      <trkpt lat="48.66552" lon="1.86889">
        <ele>174</ele>
        <time>2020-02-18T10:39:30Z</time>
      </trkpt>
      <trkpt lat="48.6655" lon="1.86896">
        <ele>174</ele>
        <time>2020-02-18T10:39:34Z</time>
      </trkpt>
      <trkpt lat="48.66549" lon="1.86904">
        <ele>174</ele>
        <time>2020-02-18T10:39:38Z</time>
      </trkpt>
      <trkpt lat="48.66549" lon="1.86914">
        <ele>174</ele>
        <time>2020-02-18T10:39:42Z</time>
      </trkpt>
      <trkpt lat="48.66549" lon="1.86921">
        <ele>172</ele>
        <time>2020-02-18T10:39:46Z</time>
      </trkpt>
      <trkpt lat="48.66547" lon="1.86932">
        <ele>172</ele>
        <time>2020-02-18T10:39:50Z</time>
      </trkpt>
      <trkpt lat="48.66545" lon="1.8694">
        <ele>172</ele>
        <time>2020-02-18T10:39:54Z</time>
      </trkpt>
      <trkpt lat="48.66544" lon="1.86947">
        <ele>172</ele>
        <time>2020-02-18T10:39:58Z</time>
      </trkpt>
      <trkpt lat="48.66544" lon="1.86956">
        <ele>172</ele>
        <time>2020-02-18T10:40:04Z</time>
      </trkpt>
      <trkpt lat="48.6654" lon="1.86964">
        <ele>172</ele>
        <time>2020-02-18T10:40:10Z</time>
      </trkpt>
      <trkpt lat="48.66538" lon="1.86971">
        <ele>172</ele>
        <time>2020-02-18T10:40:14Z</time>
      </trkpt>
      <trkpt lat="48.66535" lon="1.86977">
        <ele>172</ele>
        <time>2020-02-18T10:40:18Z</time>
      </trkpt>
      <trkpt lat="48.66534" lon="1.86987">
        <ele>172</ele>
        <time>2020-02-18T10:40:22Z</time>
      </trkpt>
      <trkpt lat="48.66533" lon="1.86996">
        <ele>171</ele>
        <time>2020-02-18T10:40:26Z</time>
      </trkpt>
      <trkpt lat="48.6653" lon="1.87005">
        <ele>171</ele>
        <time>2020-02-18T10:40:30Z</time>
      </trkpt>
      <trkpt lat="48.66529" lon="1.87013">
        <ele>171</ele>
        <time>2020-02-18T10:40:32Z</time>
      </trkpt>
      <trkpt lat="48.66527" lon="1.87022">
        <ele>171</ele>
        <time>2020-02-18T10:40:36Z</time>
      </trkpt>
      <trkpt lat="48.66527" lon="1.8703">
        <ele>171</ele>
        <time>2020-02-18T10:40:40Z</time>
      </trkpt>
      <trkpt lat="48.66527" lon="1.87039">
        <ele>171</ele>
        <time>2020-02-18T10:40:46Z</time>
      </trkpt>
      <trkpt lat="48.66526" lon="1.87046">
        <ele>171</ele>
        <time>2020-02-18T10:40:50Z</time>
      </trkpt>
      <trkpt lat="48.66524" lon="1.87053">
        <ele>171</ele>
        <time>2020-02-18T10:40:56Z</time>
      </trkpt>
      <trkpt lat="48.66523" lon="1.87062">
        <ele>171</ele>
        <time>2020-02-18T10:41:00Z</time>
      </trkpt>
      <trkpt lat="48.66519" lon="1.8707">
        <ele>171</ele>
        <time>2020-02-18T10:41:04Z</time>
      </trkpt>
      <trkpt lat="48.66517" lon="1.87076">
        <ele>171</ele>
        <time>2020-02-18T10:41:08Z</time>
      </trkpt>
      <trkpt lat="48.66516" lon="1.87087">
        <ele>171</ele>
        <time>2020-02-18T10:41:12Z</time>
      </trkpt>
      <trkpt lat="48.66515" lon="1.87097">
        <ele>171</ele>
        <time>2020-02-18T10:41:16Z</time>
      </trkpt>
      <trkpt lat="48.66514" lon="1.87107">
        <ele>171</ele>
        <time>2020-02-18T10:41:24Z</time>
      </trkpt>
      <trkpt lat="48.66513" lon="1.87115">
        <ele>171</ele>
        <time>2020-02-18T10:41:30Z</time>
      </trkpt>
      <trkpt lat="48.66513" lon="1.87124">
        <ele>171</ele>
        <time>2020-02-18T10:41:38Z</time>
      </trkpt>
      <trkpt lat="48.6651" lon="1.87129">
        <ele>172</ele>
        <time>2020-02-18T10:41:42Z</time>
      </trkpt>
      <trkpt lat="48.66509" lon="1.87138">
        <ele>172</ele>
        <time>2020-02-18T10:41:46Z</time>
      </trkpt>
      <trkpt lat="48.66505" lon="1.87143">
        <ele>172</ele>
        <time>2020-02-18T10:41:48Z</time>
      </trkpt>
      <trkpt lat="48.66502" lon="1.87149">
        <ele>172</ele>
        <time>2020-02-18T10:41:52Z</time>
      </trkpt>
      <trkpt lat="48.66501" lon="1.87157">
        <ele>172</ele>
        <time>2020-02-18T10:41:56Z</time>
      </trkpt>
      <trkpt lat="48.66501" lon="1.87165">
        <ele>172</ele>
        <time>2020-02-18T10:42:00Z</time>
      </trkpt>
      <trkpt lat="48.66501" lon="1.87174">
        <ele>172</ele>
        <time>2020-02-18T10:42:04Z</time>
      </trkpt>
      <trkpt lat="48.66497" lon="1.8718">
        <ele>172</ele>
        <time>2020-02-18T10:42:08Z</time>
      </trkpt>
      <trkpt lat="48.66496" lon="1.87188">
        <ele>172</ele>
        <time>2020-02-18T10:42:12Z</time>
      </trkpt>
      <trkpt lat="48.66496" lon="1.87196">
        <ele>172</ele>
        <time>2020-02-18T10:42:16Z</time>
      </trkpt>
      <trkpt lat="48.66498" lon="1.87202">
        <ele>172</ele>
        <time>2020-02-18T10:42:20Z</time>
      </trkpt>
      <trkpt lat="48.66499" lon="1.87213">
        <ele>172</ele>
        <time>2020-02-18T10:42:26Z</time>
      </trkpt>
      <trkpt lat="48.66498" lon="1.8722">
        <ele>172</ele>
        <time>2020-02-18T10:42:30Z</time>
      </trkpt>
      <trkpt lat="48.66496" lon="1.87229">
        <ele>172</ele>
        <time>2020-02-18T10:42:34Z</time>
      </trkpt>
      <trkpt lat="48.66495" lon="1.87238">
        <ele>172</ele>
        <time>2020-02-18T10:42:38Z</time>
      </trkpt>
      <trkpt lat="48.66492" lon="1.87246">
        <ele>172</ele>
        <time>2020-02-18T10:42:42Z</time>
      </trkpt>
      <trkpt lat="48.66489" lon="1.87253">
        <ele>172</ele>
        <time>2020-02-18T10:42:46Z</time>
      </trkpt>
      <trkpt lat="48.66486" lon="1.8726">
        <ele>172</ele>
        <time>2020-02-18T10:42:50Z</time>
      </trkpt>
      <trkpt lat="48.66483" lon="1.87268">
        <ele>172</ele>
        <time>2020-02-18T10:42:54Z</time>
      </trkpt>
      <trkpt lat="48.66483" lon="1.87276">
        <ele>172</ele>
        <time>2020-02-18T10:43:04Z</time>
      </trkpt>
      <trkpt lat="48.66484" lon="1.87282">
        <ele>172</ele>
        <time>2020-02-18T10:43:10Z</time>
      </trkpt>
      <trkpt lat="48.66481" lon="1.87292">
        <ele>172</ele>
        <time>2020-02-18T10:43:14Z</time>
      </trkpt>
      <trkpt lat="48.66479" lon="1.87299">
        <ele>172</ele>
        <time>2020-02-18T10:43:18Z</time>
      </trkpt>
      <trkpt lat="48.66477" lon="1.87306">
        <ele>172</ele>
        <time>2020-02-18T10:43:22Z</time>
      </trkpt>
      <trkpt lat="48.66476" lon="1.87315">
        <ele>172</ele>
        <time>2020-02-18T10:43:26Z</time>
      </trkpt>
      <trkpt lat="48.66473" lon="1.87321">
        <ele>172</ele>
        <time>2020-02-18T10:43:30Z</time>
      </trkpt>
      <trkpt lat="48.66471" lon="1.87328">
        <ele>172</ele>
        <time>2020-02-18T10:43:34Z</time>
      </trkpt>
      <trkpt lat="48.66471" lon="1.87337">
        <ele>172</ele>
        <time>2020-02-18T10:43:40Z</time>
      </trkpt>
      <trkpt lat="48.66471" lon="1.87345">
        <ele>172</ele>
        <time>2020-02-18T10:43:44Z</time>
      </trkpt>
      <trkpt lat="48.6647" lon="1.87353">
        <ele>172</ele>
        <time>2020-02-18T10:43:48Z</time>
      </trkpt>
      <trkpt lat="48.66467" lon="1.87361">
        <ele>172</ele>
        <time>2020-02-18T10:43:52Z</time>
      </trkpt>
      <trkpt lat="48.66464" lon="1.87369">
        <ele>172</ele>
        <time>2020-02-18T10:43:56Z</time>
      </trkpt>
      <trkpt lat="48.66462" lon="1.87377">
        <ele>172</ele>
        <time>2020-02-18T10:44:00Z</time>
      </trkpt>
      <trkpt lat="48.66459" lon="1.87386">
        <ele>172</ele>
        <time>2020-02-18T10:44:06Z</time>
      </trkpt>
      <trkpt lat="48.66456" lon="1.87393">
        <ele>171</ele>
        <time>2020-02-18T10:44:10Z</time>
      </trkpt>
      <trkpt lat="48.66454" lon="1.87399">
        <ele>171</ele>
        <time>2020-02-18T10:44:16Z</time>
      </trkpt>
      <trkpt lat="48.6645" lon="1.87408">
        <ele>171</ele>
        <time>2020-02-18T10:44:24Z</time>
      </trkpt>
      <trkpt lat="48.66448" lon="1.87415">
        <ele>171</ele>
        <time>2020-02-18T10:44:32Z</time>
      </trkpt>
      <trkpt lat="48.66445" lon="1.8742">
        <ele>171</ele>
        <time>2020-02-18T10:44:36Z</time>
      </trkpt>
      <trkpt lat="48.66441" lon="1.87426">
        <ele>171</ele>
        <time>2020-02-18T10:44:40Z</time>
      </trkpt>
      <trkpt lat="48.66439" lon="1.87435">
        <ele>171</ele>
        <time>2020-02-18T10:44:46Z</time>
      </trkpt>
      <trkpt lat="48.66436" lon="1.87443">
        <ele>171</ele>
        <time>2020-02-18T10:44:52Z</time>
      </trkpt>
      <trkpt lat="48.66432" lon="1.87451">
        <ele>171</ele>
        <time>2020-02-18T10:44:58Z</time>
      </trkpt>
      <trkpt lat="48.66429" lon="1.87458">
        <ele>171</ele>
        <time>2020-02-18T10:45:02Z</time>
      </trkpt>
      <trkpt lat="48.66425" lon="1.87467">
        <ele>171</ele>
        <time>2020-02-18T10:45:08Z</time>
      </trkpt>
      <trkpt lat="48.66422" lon="1.87475">
        <ele>171</ele>
        <time>2020-02-18T10:45:14Z</time>
      </trkpt>
      <trkpt lat="48.66417" lon="1.8748">
        <ele>171</ele>
        <time>2020-02-18T10:45:20Z</time>
      </trkpt>
      <trkpt lat="48.66412" lon="1.87482">
        <ele>170</ele>
        <time>2020-02-18T10:45:24Z</time>
      </trkpt>
      <trkpt lat="48.66408" lon="1.87484">
        <ele>170</ele>
        <time>2020-02-18T10:45:28Z</time>
      </trkpt>
      <trkpt lat="48.66402" lon="1.87484">
        <ele>170</ele>
        <time>2020-02-18T10:45:34Z</time>
      </trkpt>
      <trkpt lat="48.66396" lon="1.87485">
        <ele>170</ele>
        <time>2020-02-18T10:45:40Z</time>
      </trkpt>
      <trkpt lat="48.66392" lon="1.87489">
        <ele>170</ele>
        <time>2020-02-18T10:45:44Z</time>
      </trkpt>
      <trkpt lat="48.66392" lon="1.87496">
        <ele>170</ele>
        <time>2020-02-18T10:45:50Z</time>
      </trkpt>
      <trkpt lat="48.66385" lon="1.87499">
        <ele>169</ele>
        <time>2020-02-18T10:45:56Z</time>
      </trkpt>
      <trkpt lat="48.66379" lon="1.87501">
        <ele>170</ele>
        <time>2020-02-18T10:46:02Z</time>
      </trkpt>
      <trkpt lat="48.66373" lon="1.87501">
        <ele>170</ele>
        <time>2020-02-18T10:46:06Z</time>
      </trkpt>
      <trkpt lat="48.66368" lon="1.87503">
        <ele>170</ele>
        <time>2020-02-18T10:46:10Z</time>
      </trkpt>
      <trkpt lat="48.66362" lon="1.87505">
        <ele>170</ele>
        <time>2020-02-18T10:46:14Z</time>
      </trkpt>
      <trkpt lat="48.66358" lon="1.87508">
        <ele>170</ele>
        <time>2020-02-18T10:46:18Z</time>
      </trkpt>
      <trkpt lat="48.66354" lon="1.8751">
        <ele>170</ele>
        <time>2020-02-18T10:46:22Z</time>
      </trkpt>
      <trkpt lat="48.66348" lon="1.87513">
        <ele>170</ele>
        <time>2020-02-18T10:46:26Z</time>
      </trkpt>
      <trkpt lat="48.66343" lon="1.87516">
        <ele>170</ele>
        <time>2020-02-18T10:46:30Z</time>
      </trkpt>
      <trkpt lat="48.66339" lon="1.8752">
        <ele>170</ele>
        <time>2020-02-18T10:46:34Z</time>
      </trkpt>
      <trkpt lat="48.66333" lon="1.87525">
        <ele>170</ele>
        <time>2020-02-18T10:46:40Z</time>
      </trkpt>
      <trkpt lat="48.66327" lon="1.87526">
        <ele>170</ele>
        <time>2020-02-18T10:46:44Z</time>
      </trkpt>
      <trkpt lat="48.66323" lon="1.8753">
        <ele>170</ele>
        <time>2020-02-18T10:46:48Z</time>
      </trkpt>
      <trkpt lat="48.66317" lon="1.87532">
        <ele>170</ele>
        <time>2020-02-18T10:46:52Z</time>
      </trkpt>
      <trkpt lat="48.66313" lon="1.87534">
        <ele>170</ele>
        <time>2020-02-18T10:46:56Z</time>
      </trkpt>
      <trkpt lat="48.66307" lon="1.87535">
        <ele>170</ele>
        <time>2020-02-18T10:47:02Z</time>
      </trkpt>
      <trkpt lat="48.663" lon="1.87537">
        <ele>170</ele>
        <time>2020-02-18T10:47:08Z</time>
      </trkpt>
      <trkpt lat="48.66294" lon="1.87538">
        <ele>170</ele>
        <time>2020-02-18T10:47:12Z</time>
      </trkpt>
      <trkpt lat="48.66289" lon="1.8754">
        <ele>170</ele>
        <time>2020-02-18T10:47:16Z</time>
      </trkpt>
      <trkpt lat="48.66284" lon="1.87538">
        <ele>170</ele>
        <time>2020-02-18T10:47:22Z</time>
      </trkpt>
      <trkpt lat="48.66283" lon="1.87529">
        <ele>170</ele>
        <time>2020-02-18T10:47:28Z</time>
      </trkpt>
      <trkpt lat="48.6628" lon="1.87523">
        <ele>170</ele>
        <time>2020-02-18T10:47:32Z</time>
      </trkpt>
      <trkpt lat="48.66277" lon="1.87515">
        <ele>170</ele>
        <time>2020-02-18T10:47:38Z</time>
      </trkpt>
      <trkpt lat="48.66276" lon="1.87507">
        <ele>170</ele>
        <time>2020-02-18T10:47:42Z</time>
      </trkpt>
      <trkpt lat="48.66276" lon="1.87498">
        <ele>170</ele>
        <time>2020-02-18T10:47:46Z</time>
      </trkpt>
      <trkpt lat="48.66275" lon="1.87489">
        <ele>170</ele>
        <time>2020-02-18T10:47:50Z</time>
      </trkpt>
      <trkpt lat="48.66273" lon="1.87478">
        <ele>169</ele>
        <time>2020-02-18T10:47:54Z</time>
      </trkpt>
      <trkpt lat="48.66268" lon="1.87473">
        <ele>169</ele>
        <time>2020-02-18T10:47:58Z</time>
      </trkpt>
      <trkpt lat="48.66263" lon="1.87471">
        <ele>170</ele>
        <time>2020-02-18T10:48:06Z</time>
      </trkpt>
      <trkpt lat="48.66257" lon="1.87473">
        <ele>170</ele>
        <time>2020-02-18T10:48:14Z</time>
      </trkpt>
      <trkpt lat="48.6625" lon="1.87475">
        <ele>170</ele>
        <time>2020-02-18T10:48:18Z</time>
      </trkpt>
      <trkpt lat="48.66244" lon="1.87477">
        <ele>172</ele>
        <time>2020-02-18T10:48:22Z</time>
      </trkpt>
      <trkpt lat="48.66238" lon="1.87479">
        <ele>172</ele>
        <time>2020-02-18T10:48:26Z</time>
      </trkpt>
      <trkpt lat="48.66232" lon="1.87482">
        <ele>172</ele>
        <time>2020-02-18T10:48:32Z</time>
      </trkpt>
      <trkpt lat="48.66226" lon="1.87484">
        <ele>172</ele>
        <time>2020-02-18T10:48:38Z</time>
      </trkpt>
      <trkpt lat="48.6622" lon="1.87481">
        <ele>172</ele>
        <time>2020-02-18T10:48:46Z</time>
      </trkpt>
      <trkpt lat="48.66214" lon="1.87482">
        <ele>173</ele>
        <time>2020-02-18T10:48:52Z</time>
      </trkpt>
      <trkpt lat="48.66207" lon="1.87489">
        <ele>173</ele>
        <time>2020-02-18T10:48:56Z</time>
      </trkpt>
      <trkpt lat="48.66198" lon="1.87499">
        <ele>173</ele>
        <time>2020-02-18T10:49:00Z</time>
      </trkpt>
      <trkpt lat="48.66193" lon="1.87507">
        <ele>173</ele>
        <time>2020-02-18T10:49:04Z</time>
      </trkpt>
      <trkpt lat="48.66186" lon="1.87511">
        <ele>173</ele>
        <time>2020-02-18T10:49:08Z</time>
      </trkpt>
      <trkpt lat="48.66181" lon="1.87516">
        <ele>173</ele>
        <time>2020-02-18T10:49:12Z</time>
      </trkpt>
      <trkpt lat="48.66174" lon="1.87521">
        <ele>173</ele>
        <time>2020-02-18T10:49:14Z</time>
      </trkpt>
      <trkpt lat="48.66168" lon="1.87523">
        <ele>173</ele>
        <time>2020-02-18T10:49:18Z</time>
      </trkpt>
      <trkpt lat="48.66163" lon="1.87524">
        <ele>175</ele>
        <time>2020-02-18T10:49:22Z</time>
      </trkpt>
      <trkpt lat="48.66157" lon="1.87527">
        <ele>175</ele>
        <time>2020-02-18T10:49:32Z</time>
      </trkpt>
      <trkpt lat="48.66152" lon="1.87528">
        <ele>175</ele>
        <time>2020-02-18T10:49:36Z</time>
      </trkpt>
      <trkpt lat="48.66148" lon="1.87533">
        <ele>175</ele>
        <time>2020-02-18T10:49:40Z</time>
      </trkpt>
      <trkpt lat="48.66144" lon="1.87537">
        <ele>175</ele>
        <time>2020-02-18T10:49:44Z</time>
      </trkpt>
      <trkpt lat="48.66139" lon="1.87538">
        <ele>175</ele>
        <time>2020-02-18T10:49:48Z</time>
      </trkpt>
      <trkpt lat="48.66134" lon="1.87539">
        <ele>175</ele>
        <time>2020-02-18T10:49:50Z</time>
      </trkpt>
      <trkpt lat="48.6613" lon="1.8754">
        <ele>175</ele>
        <time>2020-02-18T10:49:54Z</time>
      </trkpt>
      <trkpt lat="48.66124" lon="1.87541">
        <ele>175</ele>
        <time>2020-02-18T10:49:58Z</time>
      </trkpt>
      <trkpt lat="48.66118" lon="1.87544">
        <ele>175</ele>
        <time>2020-02-18T10:50:02Z</time>
      </trkpt>
      <trkpt lat="48.66112" lon="1.87547">
        <ele>175</ele>
        <time>2020-02-18T10:50:06Z</time>
      </trkpt>
      <trkpt lat="48.66108" lon="1.87549">
        <ele>175</ele>
        <time>2020-02-18T10:50:10Z</time>
      </trkpt>
      <trkpt lat="48.66103" lon="1.8755">
        <ele>175</ele>
        <time>2020-02-18T10:50:14Z</time>
      </trkpt>
      <trkpt lat="48.66097" lon="1.87555">
        <ele>175</ele>
        <time>2020-02-18T10:50:20Z</time>
      </trkpt>
      <trkpt lat="48.66092" lon="1.87559">
        <ele>175</ele>
        <time>2020-02-18T10:50:26Z</time>
      </trkpt>
      <trkpt lat="48.66087" lon="1.87564">
        <ele>175</ele>
        <time>2020-02-18T10:50:32Z</time>
      </trkpt>
      <trkpt lat="48.66083" lon="1.87567">
        <ele>175</ele>
        <time>2020-02-18T10:50:36Z</time>
      </trkpt>
      <trkpt lat="48.66078" lon="1.87567">
        <ele>175</ele>
        <time>2020-02-18T10:50:40Z</time>
      </trkpt>
      <trkpt lat="48.66074" lon="1.87569">
        <ele>175</ele>
        <time>2020-02-18T10:50:44Z</time>
      </trkpt>
      <trkpt lat="48.66069" lon="1.87569">
        <ele>175</ele>
        <time>2020-02-18T10:50:50Z</time>
      </trkpt>
      <trkpt lat="48.66062" lon="1.87571">
        <ele>175</ele>
        <time>2020-02-18T10:50:54Z</time>
      </trkpt>
      <trkpt lat="48.66056" lon="1.87575">
        <ele>175</ele>
        <time>2020-02-18T10:50:58Z</time>
      </trkpt>
      <trkpt lat="48.6605" lon="1.87575">
        <ele>175</ele>
        <time>2020-02-18T10:51:02Z</time>
      </trkpt>
      <trkpt lat="48.66044" lon="1.87577">
        <ele>175</ele>
        <time>2020-02-18T10:51:06Z</time>
      </trkpt>
      <trkpt lat="48.66038" lon="1.87577">
        <ele>175</ele>
        <time>2020-02-18T10:51:10Z</time>
      </trkpt>
      <trkpt lat="48.66031" lon="1.87579">
        <ele>175</ele>
        <time>2020-02-18T10:51:16Z</time>
      </trkpt>
      <trkpt lat="48.66026" lon="1.87584">
        <ele>174</ele>
        <time>2020-02-18T10:51:22Z</time>
      </trkpt>
      <trkpt lat="48.6602" lon="1.87586">
        <ele>175</ele>
        <time>2020-02-18T10:51:28Z</time>
      </trkpt>
      <trkpt lat="48.66016" lon="1.87591">
        <ele>175</ele>
        <time>2020-02-18T10:51:32Z</time>
      </trkpt>
      <trkpt lat="48.66011" lon="1.87594">
        <ele>175</ele>
        <time>2020-02-18T10:51:38Z</time>
      </trkpt>
      <trkpt lat="48.66006" lon="1.87597">
        <ele>175</ele>
        <time>2020-02-18T10:51:42Z</time>
      </trkpt>
      <trkpt lat="48.66" lon="1.87603">
        <ele>175</ele>
        <time>2020-02-18T10:51:46Z</time>
      </trkpt>
      <trkpt lat="48.65996" lon="1.87607">
        <ele>175</ele>
        <time>2020-02-18T10:51:52Z</time>
      </trkpt>
      <trkpt lat="48.65992" lon="1.8761">
        <ele>175</ele>
        <time>2020-02-18T10:51:58Z</time>
      </trkpt>
      <trkpt lat="48.65987" lon="1.87613">
        <ele>175</ele>
        <time>2020-02-18T10:52:02Z</time>
      </trkpt>
      <trkpt lat="48.65981" lon="1.87617">
        <ele>175</ele>
        <time>2020-02-18T10:52:06Z</time>
      </trkpt>
      <trkpt lat="48.65973" lon="1.87619">
        <ele>175</ele>
        <time>2020-02-18T10:52:10Z</time>
      </trkpt>
      <trkpt lat="48.65965" lon="1.8762">
        <ele>175</ele>
        <time>2020-02-18T10:52:14Z</time>
      </trkpt>
      <trkpt lat="48.6596" lon="1.87623">
        <ele>175</ele>
        <time>2020-02-18T10:52:16Z</time>
      </trkpt>
      <trkpt lat="48.65954" lon="1.87626">
        <ele>175</ele>
        <time>2020-02-18T10:52:20Z</time>
      </trkpt>
      <trkpt lat="48.65949" lon="1.87631">
        <ele>175</ele>
        <time>2020-02-18T10:52:24Z</time>
      </trkpt>
      <trkpt lat="48.65944" lon="1.87634">
        <ele>175</ele>
        <time>2020-02-18T10:52:28Z</time>
      </trkpt>
      <trkpt lat="48.65939" lon="1.87635">
        <ele>175</ele>
        <time>2020-02-18T10:52:34Z</time>
      </trkpt>
      <trkpt lat="48.65933" lon="1.87638">
        <ele>175</ele>
        <time>2020-02-18T10:52:40Z</time>
      </trkpt>
      <trkpt lat="48.65928" lon="1.87638">
        <ele>176</ele>
        <time>2020-02-18T10:52:44Z</time>
      </trkpt>
      <trkpt lat="48.65924" lon="1.8764">
        <ele>176</ele>
        <time>2020-02-18T10:52:48Z</time>
      </trkpt>
      <trkpt lat="48.65919" lon="1.87644">
        <ele>176</ele>
        <time>2020-02-18T10:52:54Z</time>
      </trkpt>
      <trkpt lat="48.65917" lon="1.8765">
        <ele>176</ele>
        <time>2020-02-18T10:53:08Z</time>
      </trkpt>
      <trkpt lat="48.65914" lon="1.87656">
        <ele>176</ele>
        <time>2020-02-18T10:53:14Z</time>
      </trkpt>
      <trkpt lat="48.65911" lon="1.87662">
        <ele>176</ele>
        <time>2020-02-18T10:53:22Z</time>
      </trkpt>
      <trkpt lat="48.65907" lon="1.87669">
        <ele>176</ele>
        <time>2020-02-18T10:53:28Z</time>
      </trkpt>
      <trkpt lat="48.65904" lon="1.87677">
        <ele>176</ele>
        <time>2020-02-18T10:53:36Z</time>
      </trkpt>
      <trkpt lat="48.65901" lon="1.87685">
        <ele>177</ele>
        <time>2020-02-18T10:53:42Z</time>
      </trkpt>
      <trkpt lat="48.659" lon="1.87693">
        <ele>177</ele>
        <time>2020-02-18T10:53:50Z</time>
      </trkpt>
      <trkpt lat="48.65895" lon="1.87697">
        <ele>177</ele>
        <time>2020-02-18T10:53:54Z</time>
      </trkpt>
      <trkpt lat="48.6589" lon="1.87708">
        <ele>177</ele>
        <time>2020-02-18T10:54:06Z</time>
      </trkpt>
      <trkpt lat="48.65887" lon="1.87715">
        <ele>177</ele>
        <time>2020-02-18T10:54:16Z</time>
      </trkpt>
      <trkpt lat="48.65885" lon="1.87723">
        <ele>177</ele>
        <time>2020-02-18T10:54:24Z</time>
      </trkpt>
      <trkpt lat="48.65884" lon="1.87731">
        <ele>177</ele>
        <time>2020-02-18T10:54:30Z</time>
      </trkpt>
      <trkpt lat="48.65885" lon="1.87739">
        <ele>177</ele>
        <time>2020-02-18T10:54:38Z</time>
      </trkpt>
      <trkpt lat="48.65883" lon="1.87745">
        <ele>177</ele>
        <time>2020-02-18T10:54:42Z</time>
      </trkpt>
      <trkpt lat="48.6588" lon="1.87752">
        <ele>176</ele>
        <time>2020-02-18T10:54:46Z</time>
      </trkpt>
      <trkpt lat="48.65878" lon="1.8776">
        <ele>176</ele>
        <time>2020-02-18T10:54:50Z</time>
      </trkpt>
      <trkpt lat="48.65875" lon="1.87767">
        <ele>176</ele>
        <time>2020-02-18T10:54:54Z</time>
      </trkpt>
      <trkpt lat="48.65875" lon="1.87773">
        <ele>176</ele>
        <time>2020-02-18T10:55:00Z</time>
      </trkpt>
      <trkpt lat="48.65874" lon="1.87783">
        <ele>175</ele>
        <time>2020-02-18T10:55:04Z</time>
      </trkpt>
      <trkpt lat="48.65873" lon="1.87794">
        <ele>175</ele>
        <time>2020-02-18T10:55:10Z</time>
      </trkpt>
      <trkpt lat="48.65871" lon="1.87801">
        <ele>175</ele>
        <time>2020-02-18T10:55:14Z</time>
      </trkpt>
      <trkpt lat="48.65869" lon="1.8781">
        <ele>175</ele>
        <time>2020-02-18T10:55:20Z</time>
      </trkpt>
      <trkpt lat="48.6587" lon="1.87817">
        <ele>175</ele>
        <time>2020-02-18T10:55:28Z</time>
      </trkpt>
      <trkpt lat="48.65868" lon="1.87824">
        <ele>175</ele>
        <time>2020-02-18T10:55:34Z</time>
      </trkpt>
      <trkpt lat="48.65865" lon="1.87832">
        <ele>176</ele>
        <time>2020-02-18T10:55:40Z</time>
      </trkpt>
      <trkpt lat="48.65861" lon="1.87836">
        <ele>175</ele>
        <time>2020-02-18T10:55:44Z</time>
      </trkpt>
      <trkpt lat="48.65858" lon="1.87841">
        <ele>175</ele>
        <time>2020-02-18T10:55:50Z</time>
      </trkpt>
      <trkpt lat="48.65851" lon="1.87847">
        <ele>176</ele>
        <time>2020-02-18T10:55:56Z</time>
      </trkpt>
      <trkpt lat="48.65847" lon="1.87852">
        <ele>176</ele>
        <time>2020-02-18T10:56:02Z</time>
      </trkpt>
      <trkpt lat="48.65843" lon="1.87857">
        <ele>176</ele>
        <time>2020-02-18T10:56:08Z</time>
      </trkpt>
      <trkpt lat="48.65843" lon="1.87864">
        <ele>175</ele>
        <time>2020-02-18T10:56:16Z</time>
      </trkpt>
      <trkpt lat="48.65839" lon="1.87872">
        <ele>175</ele>
        <time>2020-02-18T10:56:20Z</time>
      </trkpt>
      <trkpt lat="48.6584" lon="1.87881">
        <ele>175</ele>
        <time>2020-02-18T10:56:24Z</time>
      </trkpt>
      <trkpt lat="48.65842" lon="1.87888">
        <ele>175</ele>
        <time>2020-02-18T10:56:28Z</time>
      </trkpt>
      <trkpt lat="48.65841" lon="1.87895">
        <ele>175</ele>
        <time>2020-02-18T10:56:34Z</time>
      </trkpt>
      <trkpt lat="48.65842" lon="1.87905">
        <ele>176</ele>
        <time>2020-02-18T10:56:40Z</time>
      </trkpt>
      <trkpt lat="48.65845" lon="1.87917">
        <ele>175</ele>
        <time>2020-02-18T10:56:44Z</time>
      </trkpt>
      <trkpt lat="48.65848" lon="1.87926">
        <ele>174</ele>
        <time>2020-02-18T10:56:48Z</time>
      </trkpt>
      <trkpt lat="48.65847" lon="1.87935">
        <ele>174</ele>
        <time>2020-02-18T10:57:00Z</time>
      </trkpt>
      <trkpt lat="48.65843" lon="1.8794">
        <ele>173</ele>
        <time>2020-02-18T10:57:02Z</time>
      </trkpt>
      <trkpt lat="48.65843" lon="1.87949">
        <ele>173</ele>
        <time>2020-02-18T10:57:10Z</time>
      </trkpt>
      <trkpt lat="48.65839" lon="1.87958">
        <ele>172</ele>
        <time>2020-02-18T10:57:14Z</time>
      </trkpt>
      <trkpt lat="48.65839" lon="1.87965">
        <ele>172</ele>
        <time>2020-02-18T10:57:18Z</time>
      </trkpt>
      <trkpt lat="48.65835" lon="1.87973">
        <ele>172</ele>
        <time>2020-02-18T10:57:24Z</time>
      </trkpt>
      <trkpt lat="48.65772" lon="1.88148">
        <ele>170</ele>
        <time>2020-02-18T10:58:51Z</time>
      </trkpt>
      <trkpt lat="48.65768" lon="1.88156">
        <ele>170</ele>
        <time>2020-02-18T10:59:06Z</time>
      </trkpt>
      <trkpt lat="48.65765" lon="1.88162">
        <ele>170</ele>
        <time>2020-02-18T10:59:14Z</time>
      </trkpt>
      <trkpt lat="48.6576" lon="1.88168">
        <ele>171</ele>
        <time>2020-02-18T10:59:20Z</time>
      </trkpt>
      <trkpt lat="48.65756" lon="1.88175">
        <ele>171</ele>
        <time>2020-02-18T10:59:30Z</time>
      </trkpt>
      <trkpt lat="48.65749" lon="1.88182">
        <ele>171</ele>
        <time>2020-02-18T10:59:36Z</time>
      </trkpt>
      <trkpt lat="48.65745" lon="1.88185">
        <ele>171</ele>
        <time>2020-02-18T10:59:40Z</time>
      </trkpt>
      <trkpt lat="48.6574" lon="1.88188">
        <ele>172</ele>
        <time>2020-02-18T10:59:46Z</time>
      </trkpt>
      <trkpt lat="48.65734" lon="1.88192">
        <ele>172</ele>
        <time>2020-02-18T10:59:52Z</time>
      </trkpt>
      <trkpt lat="48.65728" lon="1.88198">
        <ele>172</ele>
        <time>2020-02-18T10:59:58Z</time>
      </trkpt>
      <trkpt lat="48.65725" lon="1.88203">
        <ele>172</ele>
        <time>2020-02-18T11:00:02Z</time>
      </trkpt>
      <trkpt lat="48.65719" lon="1.88202">
        <ele>172</ele>
        <time>2020-02-18T11:00:08Z</time>
      </trkpt>
      <trkpt lat="48.65715" lon="1.88206">
        <ele>172</ele>
        <time>2020-02-18T11:00:14Z</time>
      </trkpt>
      <trkpt lat="48.65709" lon="1.88209">
        <ele>171</ele>
        <time>2020-02-18T11:00:18Z</time>
      </trkpt>
      <trkpt lat="48.65704" lon="1.88207">
        <ele>171</ele>
        <time>2020-02-18T11:00:22Z</time>
      </trkpt>
      <trkpt lat="48.65699" lon="1.88206">
        <ele>171</ele>
        <time>2020-02-18T11:00:26Z</time>
      </trkpt>
      <trkpt lat="48.65693" lon="1.88202">
        <ele>171</ele>
        <time>2020-02-18T11:00:30Z</time>
      </trkpt>
      <trkpt lat="48.65689" lon="1.88199">
        <ele>171</ele>
        <time>2020-02-18T11:00:34Z</time>
      </trkpt>
      <trkpt lat="48.65684" lon="1.882">
        <ele>171</ele>
        <time>2020-02-18T11:00:38Z</time>
      </trkpt>
      <trkpt lat="48.65679" lon="1.88197">
        <ele>172</ele>
        <time>2020-02-18T11:00:42Z</time>
      </trkpt>
      <trkpt lat="48.65675" lon="1.88192">
        <ele>172</ele>
        <time>2020-02-18T11:00:46Z</time>
      </trkpt>
      <trkpt lat="48.65671" lon="1.88187">
        <ele>172</ele>
        <time>2020-02-18T11:00:54Z</time>
      </trkpt>
      <trkpt lat="48.65666" lon="1.88182">
        <ele>171</ele>
        <time>2020-02-18T11:01:00Z</time>
      </trkpt>
      <trkpt lat="48.65662" lon="1.88177">
        <ele>172</ele>
        <time>2020-02-18T11:01:08Z</time>
      </trkpt>
      <trkpt lat="48.65659" lon="1.88171">
        <ele>172</ele>
        <time>2020-02-18T11:01:14Z</time>
      </trkpt>
      <trkpt lat="48.65654" lon="1.88166">
        <ele>174</ele>
        <time>2020-02-18T11:01:18Z</time>
      </trkpt>
      <trkpt lat="48.6565" lon="1.88163">
        <ele>174</ele>
        <time>2020-02-18T11:01:24Z</time>
      </trkpt>
      <trkpt lat="48.65646" lon="1.88159">
        <ele>174</ele>
        <time>2020-02-18T11:01:30Z</time>
      </trkpt>
      <trkpt lat="48.65644" lon="1.88152">
        <ele>174</ele>
        <time>2020-02-18T11:01:38Z</time>
      </trkpt>
      <trkpt lat="48.6564" lon="1.88147">
        <ele>174</ele>
        <time>2020-02-18T11:01:44Z</time>
      </trkpt>
      <trkpt lat="48.65633" lon="1.88143">
        <ele>175</ele>
        <time>2020-02-18T11:01:48Z</time>
      </trkpt>
      <trkpt lat="48.65629" lon="1.88142">
        <ele>175</ele>
        <time>2020-02-18T11:01:50Z</time>
      </trkpt>
      <trkpt lat="48.65622" lon="1.88144">
        <ele>175</ele>
        <time>2020-02-18T11:02:00Z</time>
      </trkpt>
      <trkpt lat="48.65616" lon="1.88147">
        <ele>175</ele>
        <time>2020-02-18T11:02:08Z</time>
      </trkpt>
      <trkpt lat="48.65611" lon="1.8815">
        <ele>175</ele>
        <time>2020-02-18T11:02:12Z</time>
      </trkpt>
      <trkpt lat="48.65606" lon="1.88152">
        <ele>175</ele>
        <time>2020-02-18T11:02:16Z</time>
      </trkpt>
      <trkpt lat="48.65599" lon="1.88156">
        <ele>175</ele>
        <time>2020-02-18T11:02:20Z</time>
      </trkpt>
      <trkpt lat="48.65595" lon="1.88158">
        <ele>174</ele>
        <time>2020-02-18T11:02:24Z</time>
      </trkpt>
      <trkpt lat="48.6559" lon="1.88159">
        <ele>174</ele>
        <time>2020-02-18T11:02:28Z</time>
      </trkpt>
      <trkpt lat="48.65584" lon="1.88161">
        <ele>174</ele>
        <time>2020-02-18T11:02:32Z</time>
      </trkpt>
      <trkpt lat="48.65579" lon="1.88163">
        <ele>174</ele>
        <time>2020-02-18T11:02:42Z</time>
      </trkpt>
      <trkpt lat="48.65572" lon="1.88162">
        <ele>175</ele>
        <time>2020-02-18T11:02:46Z</time>
      </trkpt>
      <trkpt lat="48.65566" lon="1.88162">
        <ele>175</ele>
        <time>2020-02-18T11:02:54Z</time>
      </trkpt>
      <trkpt lat="48.65558" lon="1.88165">
        <ele>175</ele>
        <time>2020-02-18T11:03:02Z</time>
      </trkpt>
      <trkpt lat="48.65553" lon="1.88163">
        <ele>175</ele>
        <time>2020-02-18T11:03:06Z</time>
      </trkpt>
      <trkpt lat="48.65547" lon="1.88164">
        <ele>175</ele>
        <time>2020-02-18T11:03:10Z</time>
      </trkpt>
      <trkpt lat="48.65542" lon="1.88164">
        <ele>175</ele>
        <time>2020-02-18T11:03:14Z</time>
      </trkpt>
      <trkpt lat="48.65537" lon="1.88162">
        <ele>175</ele>
        <time>2020-02-18T11:03:18Z</time>
      </trkpt>
      <trkpt lat="48.65532" lon="1.88161">
        <ele>175</ele>
        <time>2020-02-18T11:03:28Z</time>
      </trkpt>
      <trkpt lat="48.65526" lon="1.88159">
        <ele>175</ele>
        <time>2020-02-18T11:03:40Z</time>
      </trkpt>
      <trkpt lat="48.65518" lon="1.88159">
        <ele>175</ele>
        <time>2020-02-18T11:03:44Z</time>
      </trkpt>
      <trkpt lat="48.65513" lon="1.8816">
        <ele>175</ele>
        <time>2020-02-18T11:03:50Z</time>
      </trkpt>
      <trkpt lat="48.65507" lon="1.88163">
        <ele>175</ele>
        <time>2020-02-18T11:03:54Z</time>
      </trkpt>
      <trkpt lat="48.65501" lon="1.88165">
        <ele>175</ele>
        <time>2020-02-18T11:04:00Z</time>
      </trkpt>
      <trkpt lat="48.65494" lon="1.88164">
        <ele>175</ele>
        <time>2020-02-18T11:04:02Z</time>
      </trkpt>
      <trkpt lat="48.65486" lon="1.88166">
        <ele>175</ele>
        <time>2020-02-18T11:04:08Z</time>
      </trkpt>
      <trkpt lat="48.65481" lon="1.88165">
        <ele>175</ele>
        <time>2020-02-18T11:04:14Z</time>
      </trkpt>
      <trkpt lat="48.65477" lon="1.88168">
        <ele>173</ele>
        <time>2020-02-18T11:04:18Z</time>
      </trkpt>
      <trkpt lat="48.6547" lon="1.88173">
        <ele>173</ele>
        <time>2020-02-18T11:04:24Z</time>
      </trkpt>
      <trkpt lat="48.65464" lon="1.88174">
        <ele>173</ele>
        <time>2020-02-18T11:04:28Z</time>
      </trkpt>
      <trkpt lat="48.65459" lon="1.88177">
        <ele>173</ele>
        <time>2020-02-18T11:04:32Z</time>
      </trkpt>
      <trkpt lat="48.65454" lon="1.88181">
        <ele>173</ele>
        <time>2020-02-18T11:04:36Z</time>
      </trkpt>
      <trkpt lat="48.65448" lon="1.8819">
        <ele>173</ele>
        <time>2020-02-18T11:04:40Z</time>
      </trkpt>
      <trkpt lat="48.65444" lon="1.88195">
        <ele>173</ele>
        <time>2020-02-18T11:04:44Z</time>
      </trkpt>
      <trkpt lat="48.65438" lon="1.88204">
        <ele>172</ele>
        <time>2020-02-18T11:04:50Z</time>
      </trkpt>
      <trkpt lat="48.65434" lon="1.8821">
        <ele>172</ele>
        <time>2020-02-18T11:04:54Z</time>
      </trkpt>
      <trkpt lat="48.65432" lon="1.88217">
        <ele>172</ele>
        <time>2020-02-18T11:04:58Z</time>
      </trkpt>
      <trkpt lat="48.65429" lon="1.88226">
        <ele>172</ele>
        <time>2020-02-18T11:05:04Z</time>
      </trkpt>
      <trkpt lat="48.65428" lon="1.88234">
        <ele>171</ele>
        <time>2020-02-18T11:05:08Z</time>
      </trkpt>
      <trkpt lat="48.65428" lon="1.88241">
        <ele>171</ele>
        <time>2020-02-18T11:05:12Z</time>
      </trkpt>
      <trkpt lat="48.65428" lon="1.88252">
        <ele>169</ele>
        <time>2020-02-18T11:05:18Z</time>
      </trkpt>
      <trkpt lat="48.65427" lon="1.88262">
        <ele>169</ele>
        <time>2020-02-18T11:05:22Z</time>
      </trkpt>
      <trkpt lat="48.65427" lon="1.88271">
        <ele>169</ele>
        <time>2020-02-18T11:05:26Z</time>
      </trkpt>
      <trkpt lat="48.65426" lon="1.88278">
        <ele>169</ele>
        <time>2020-02-18T11:05:30Z</time>
      </trkpt>
      <trkpt lat="48.65425" lon="1.88288">
        <ele>168</ele>
        <time>2020-02-18T11:05:36Z</time>
      </trkpt>
      <trkpt lat="48.65425" lon="1.88295">
        <ele>168</ele>
        <time>2020-02-18T11:05:40Z</time>
      </trkpt>
      <trkpt lat="48.65425" lon="1.88304">
        <ele>168</ele>
        <time>2020-02-18T11:05:44Z</time>
      </trkpt>
      <trkpt lat="48.65425" lon="1.88313">
        <ele>167</ele>
        <time>2020-02-18T11:05:48Z</time>
      </trkpt>
      <trkpt lat="48.65425" lon="1.88321">
        <ele>167</ele>
        <time>2020-02-18T11:05:52Z</time>
      </trkpt>
      <trkpt lat="48.65424" lon="1.8833">
        <ele>167</ele>
        <time>2020-02-18T11:05:56Z</time>
      </trkpt>
      <trkpt lat="48.65424" lon="1.88339">
        <ele>166</ele>
        <time>2020-02-18T11:06:00Z</time>
      </trkpt>
      <trkpt lat="48.65424" lon="1.88349">
        <ele>166</ele>
        <time>2020-02-18T11:06:04Z</time>
      </trkpt>
      <trkpt lat="48.65424" lon="1.88358">
        <ele>167</ele>
        <time>2020-02-18T11:06:08Z</time>
      </trkpt>
      <trkpt lat="48.65424" lon="1.88365">
        <ele>167</ele>
        <time>2020-02-18T11:06:12Z</time>
      </trkpt>
      <trkpt lat="48.65424" lon="1.88376">
        <ele>167</ele>
        <time>2020-02-18T11:06:16Z</time>
      </trkpt>
      <trkpt lat="48.65424" lon="1.88383">
        <ele>167</ele>
        <time>2020-02-18T11:06:20Z</time>
      </trkpt>
      <trkpt lat="48.65424" lon="1.88392">
        <ele>167</ele>
        <time>2020-02-18T11:06:24Z</time>
      </trkpt>
      <trkpt lat="48.65425" lon="1.88401">
        <ele>167</ele>
        <time>2020-02-18T11:06:30Z</time>
      </trkpt>
      <trkpt lat="48.65425" lon="1.88412">
        <ele>167</ele>
        <time>2020-02-18T11:06:36Z</time>
      </trkpt>
      <trkpt lat="48.65425" lon="1.88422">
        <ele>168</ele>
        <time>2020-02-18T11:06:40Z</time>
      </trkpt>
      <trkpt lat="48.65426" lon="1.88433">
        <ele>168</ele>
        <time>2020-02-18T11:06:44Z</time>
      </trkpt>
      <trkpt lat="48.65428" lon="1.88439">
        <ele>168</ele>
        <time>2020-02-18T11:06:46Z</time>
      </trkpt>
      <trkpt lat="48.6543" lon="1.88446">
        <ele>169</ele>
        <time>2020-02-18T11:06:48Z</time>
      </trkpt>
      <trkpt lat="48.65436" lon="1.88455">
        <ele>169</ele>
        <time>2020-02-18T11:06:52Z</time>
      </trkpt>
      <trkpt lat="48.65439" lon="1.88463">
        <ele>169</ele>
        <time>2020-02-18T11:06:56Z</time>
      </trkpt>
      <trkpt lat="48.65443" lon="1.88468">
        <ele>169</ele>
        <time>2020-02-18T11:07:00Z</time>
      </trkpt>
      <trkpt lat="48.65449" lon="1.88472">
        <ele>169</ele>
        <time>2020-02-18T11:07:04Z</time>
      </trkpt>
      <trkpt lat="48.65454" lon="1.88474">
        <ele>170</ele>
        <time>2020-02-18T11:07:08Z</time>
      </trkpt>
      <trkpt lat="48.65459" lon="1.88479">
        <ele>170</ele>
        <time>2020-02-18T11:07:14Z</time>
      </trkpt>
      <trkpt lat="48.65463" lon="1.88486">
        <ele>170</ele>
        <time>2020-02-18T11:07:20Z</time>
      </trkpt>
      <trkpt lat="48.65468" lon="1.88492">
        <ele>170</ele>
        <time>2020-02-18T11:07:26Z</time>
      </trkpt>
      <trkpt lat="48.65473" lon="1.88499">
        <ele>171</ele>
        <time>2020-02-18T11:07:34Z</time>
      </trkpt>
      <trkpt lat="48.65477" lon="1.88506">
        <ele>173</ele>
        <time>2020-02-18T11:07:40Z</time>
      </trkpt>
      <trkpt lat="48.65482" lon="1.88512">
        <ele>173</ele>
        <time>2020-02-18T11:07:46Z</time>
      </trkpt>
      <trkpt lat="48.65485" lon="1.88519">
        <ele>173</ele>
        <time>2020-02-18T11:07:54Z</time>
      </trkpt>
      <trkpt lat="48.6549" lon="1.88522">
        <ele>173</ele>
        <time>2020-02-18T11:08:10Z</time>
      </trkpt>
    </trkseg>
  </trk>
</gpx>